GFSNGP_sfc_dewp_000.txt.gz
Dewpoint
34 35 35 36 36 35 36 34 29 28 30 31 33 28 31 35 37 38 38 40 41 40 38 36 34 30 24 19 17 16 15 15 15 15 14 15 15 15 15 15 15 14 14 15
33 36 36 37 38 38 37 36 36 36 36 30 30 31 34 36 37 37 38 40 40 39 38 35 33 27 21 18 16 16 16 16 17 16 16 16 15 14 14 14 13 14 15 15
33 39 37 36 36 38 36 36 35 34 34 32 30 30 34 37 37 37 38 40 40 38 37 34 30 24 20 17 16 16 16 16 16 16 16 15 13 12 12 11 13 15 15 15
34 37 25 28 37 39 38 39 39 31 29 31 32 34 36 36 37 37 38 40 39 36 33 30 26 22 18 15 15 15 15 14 15 15 13 13 12 11 11 12 14 16 16 15
30 28 28 26 27 34 34 34 32 30 33 34 34 34 35 37 38 38 38 37 35 33 30 26 22 18 16 15 15 14 13 13 14 14 13 12 11 10 11 13 15 15 15 14
32 25 24 26 29 29 30 29 30 33 33 33 33 30 33 36 35 32 31 31 28 26 23 20 16 16 15 14 13 12 12 12 12 12 11 10 9 11 13 15 15 16 13 13
30 31 30 32 31 31 27 27 31 33 33 33 31 33 35 34 32 30 29 26 24 22 19 16 16 15 14 12 11 12 12 12 11 10 9 9 11 13 13 13 13 13 12 12
33 29 26 34 30 25 29 34 34 34 34 35 35 35 34 32 31 30 29 25 22 19 16 17 16 14 11 10 11 12 12 11 10 9 8 11 12 13 13 13 13 13 13 13
34 32 34 35 35 37 33 34 34 34 35 35 34 33 32 31 30 28 25 21 19 17 18 15 14 12 10 10 11 10 9 9 8 8 12 12 13 13 13 14 15 15 15 16
34 34 34 35 36 36 35 34 34 34 35 34 33 31 31 30 29 27 22 19 18 17 14 13 11 11 10 10 10 8 7 7 9 11 15 13 14 14 14 15 15 16 16 16
32 32 32 34 34 34 34 34 34 34 33 32 31 31 30 29 28 27 24 21 20 17 13 10 10 10 10 9 9 7 6 8 9 13 13 13 14 14 16 16 18 17 17 17
33 32 32 32 34 34 33 33 34 33 33 33 32 32 31 30 29 27 26 24 22 18 14 10 10 10 10 10 8 7 7 9 12 15 14 14 14 14 19 20 21 21 21 20
33 34 33 34 33 34 34 34 34 33 34 33 33 33 33 31 31 30 27 26 23 17 15 10 11 11 11 11 9 8 8 10 14 15 13 13 14 15 14 16 19 20 20 21
34 33 33 33 33 33 33 33 33 31 32 32 31 31 31 31 30 28 27 25 20 15 12 11 10 10 10 10 9 10 10 17 15 14 15 15 15 15 14 14 13 13 17 18
34 34 34 33 32 30 30 30 29 28 28 28 29 28 27 26 26 25 22 17 14 12 11 10 9 9 10 10 10 11 13 15 16 16 15 16 15 15 15 15 13 13 12 14
33 32 32 31 29 28 27 27 27 27 27 27 27 26 26 24 21 18 15 14 12 11 11 9 10 10 12 12 13 14 14 17 18 16 15 15 16 15 15 13 11 11 11 11
31 28 29 28 28 26 26 26 27 27 28 27 26 25 22 19 17 15 15 15 13 12 12 12 12 13 14 14 14 14 14 15 19 16 16 17 16 14 13 10 10 11 11 13
33 32 31 28 25 25 26 27 28 29 28 28 27 24 21 19 17 16 13 13 12 12 13 12 13 14 16 15 15 15 15 16 16 17 17 15 13 11 10 10 11 12 12 13
32 29 27 25 25 26 26 27 28 29 29 28 26 25 25 22 18 15 13 11 10 10 11 15 18 16 14 15 16 16 16 16 16 16 14 13 11 10 11 11 12 13 13 14
25 25 26 27 27 27 27 29 29 29 28 27 25 23 20 18 16 13 11 11 11 11 12 15 15 13 13 15 20 16 15 15 14 11 10 11 10 11 11 13 13 13 14 13
25 26 26 27 27 28 28 28 28 27 26 26 23 20 16 14 12 12 11 11 13 16 16 17 14 14 16 18 15 14 13 11 10 10 10 10 10 11 12 13 14 13 13 14
26 26 27 27 26 25 24 24 25 24 22 20 16 14 13 13 13 13 13 13 16 19 15 13 13 16 17 18 13 12 11 10 9 10 10 10 11 12 13 13 13 14 15 14
25 25 25 25 24 22 21 20 19 18 15 14 13 13 12 13 13 12 13 16 16 16 11 12 14 16 18 12 12 11 10 10 10 10 11 12 13 13 12 12 14 14 14 14
24 23 22 20 19 18 16 14 14 14 14 13 13 13 13 12 11 13 16 17 16 12 10 13 14 15 15 11 11 10 10 10 10 11 12 14 12 11 11 12 13 13 13 13
22 22 21 20 18 15 15 15 14 13 11 11 11 11 12 12 10 8 8 9 13 7 6 12 13 14 10 10 10 11 11 11 11 9 11 10 9 8 11 11 11 12 13 11
22 20 19 17 15 14 13 13 12 11 9 8 8 9 9 9 10 7 7 7 7 9 6 7 10 11 10 10 11 9 9 8 9 10 12 10 10 9 10 10 11 11 11 11
22 21 17 15 15 14 13 13 12 12 10 7 6 5 6 7 8 7 7 5 6 7 7 7 8 9 8 8 6 6 7 7 10 11 11 10 9 9 10 10 11 11 11 10

GFSNGP_sfc_dewp_003.txt.gz
Dewpoint
34 33 35 35 32 31 29 27 24 25 29 30 31 32 32 35 37 38 40 41 41 39 37 35 32 27 21 19 17 16 15 15 15 15 15 16 16 15 15 15 14 15 16 16
32 35 34 32 34 35 30 31 29 33 31 34 34 32 32 35 37 37 39 41 40 39 37 34 30 24 19 17 16 16 16 16 17 17 17 17 15 14 14 13 14 16 16 16
29 36 34 30 33 35 34 35 34 33 34 35 34 29 33 35 36 37 38 40 39 38 36 33 27 21 18 16 17 16 17 17 17 17 17 15 13 12 12 13 15 16 16 16
32 35 28 33 38 36 35 36 37 37 39 38 35 34 35 36 36 37 38 39 38 37 33 29 23 20 17 16 17 17 17 16 17 17 15 14 12 11 12 13 15 16 16 15
33 30 29 33 40 39 38 36 39 39 39 34 34 35 38 39 37 37 39 38 36 34 30 24 20 17 15 16 16 16 15 15 15 15 13 13 11 11 13 15 15 15 15 14
33 27 22 25 35 35 40 32 39 40 40 33 34 32 38 34 32 32 33 32 30 27 24 20 17 16 15 15 14 13 14 14 13 13 12 11 11 13 14 15 14 14 13 14
31 30 29 32 31 31 31 28 31 37 35 33 32 35 33 30 28 27 27 26 25 24 20 17 16 16 14 14 12 13 13 13 12 11 11 13 14 14 14 13 14 14 14 14
30 27 24 34 32 27 29 33 33 33 33 34 34 32 30 29 28 26 24 22 21 19 17 16 15 14 13 12 12 13 13 12 10 10 13 13 13 13 13 14 14 15 15 16
31 30 34 34 34 35 34 34 34 34 35 35 33 31 31 29 26 24 21 19 18 17 15 14 13 13 11 11 11 11 10 9 10 14 13 14 13 13 14 15 16 16 17 17
35 33 33 34 35 35 34 34 35 35 35 34 32 31 29 28 24 21 20 18 18 16 14 12 12 12 10 11 10 9 8 9 12 13 15 13 14 14 15 16 16 17 17 17
33 32 32 34 34 34 34 34 34 34 33 32 31 30 29 27 24 21 20 19 17 15 14 12 11 10 10 9 8 7 8 9 12 14 14 13 14 14 17 17 18 18 18 18
34 34 33 33 34 34 33 33 33 31 31 31 30 29 28 27 24 22 20 20 17 14 12 10 10 10 9 9 8 7 7 9 14 15 13 14 14 15 18 20 21 21 21 20
36 34 33 34 33 33 33 33 32 32 31 31 31 29 29 27 26 26 22 20 16 13 11 11 10 10 10 10 8 7 8 12 14 14 13 14 15 14 14 15 20 19 19 20
34 33 33 33 32 33 33 33 33 32 32 31 31 31 30 30 28 25 23 21 17 12 10 11 10 10 10 10 9 10 11 18 14 14 14 15 15 15 15 14 14 13 16 18
33 34 33 32 32 31 31 31 30 29 29 29 30 30 29 27 26 25 20 16 13 11 11 10 9 9 10 10 10 12 13 15 16 15 15 17 16 15 15 14 13 11 11 14
32 32 31 31 29 29 29 29 28 27 27 27 27 26 25 24 21 16 14 13 11 10 10 9 9 10 11 12 13 13 13 17 18 16 16 16 16 14 14 12 10 10 11 11
30 27 28 27 28 27 27 27 27 26 26 25 25 22 20 17 15 14 13 13 12 11 11 11 11 13 14 15 14 13 13 15 18 16 16 16 14 13 11 10 10 10 11 13
32 31 31 29 26 25 25 26 26 25 25 25 22 19 17 16 15 14 13 12 12 12 12 12 13 14 16 15 14 14 15 16 16 16 16 12 12 10 10 10 11 12 12 13
31 29 27 26 25 25 26 27 27 27 26 23 21 19 19 17 14 12 11 11 10 9 10 14 19 16 13 17 17 17 15 14 14 13 12 12 10 10 10 11 12 13 13 13
26 26 25 26 26 26 27 28 28 27 26 24 24 22 19 17 13 12 11 10 10 10 13 17 14 13 13 16 20 13 12 12 11 9 9 11 10 10 10 13 13 13 13 12
25 26 26 26 26 27 28 28 27 26 25 24 22 20 18 14 12 12 11 11 14 16 16 17 14 14 16 17 13 11 11 10 9 10 10 10 10 10 11 12 13 12 12 13
27 26 26 26 26 26 26 27 26 25 22 19 16 14 12 12 12 13 13 13 17 18 14 13 13 16 18 15 11 11 10 9 9 10 10 10 11 12 12 12 12 13 14 13
26 26 25 25 25 24 23 23 22 20 17 15 13 12 12 13 13 13 14 17 16 15 11 13 15 18 17 11 11 10 10 10 10 9 10 11 12 12 11 11 12 12 12 12
24 24 23 22 21 21 18 15 15 14 14 13 13 13 13 13 12 15 17 18 17 12 13 14 14 16 13 10 10 10 10 10 9 10 11 13 11 11 10 10 10 11 11 11
23 23 23 21 19 16 15 15 14 13 12 12 12 12 12 11 11 10 10 13 13 8 7 13 14 14 10 10 10 11 9 8 9 8 9 8 8 7 8 9 9 10 12 10
22 21 19 18 16 14 13 13 11 10 10 9 9 9 9 10 9 7 7 9 8 10 7 7 10 10 9 9 9 7 7 7 8 9 11 10 9 8 8 8 9 9 9 9
20 19 15 14 13 13 13 12 11 11 9 7 6 6 6 7 8 7 8 6 7 7 7 7 7 8 8 8 6 6 7 7 10 10 10 7 7 7 8 9 9 9 9 9

GFSNGP_sfc_dewp_006.txt.gz
Dewpoint
33 31 34 34 33 32 30 28 24 21 21 26 29 33 36 39 41 41 42 40 39 37 35 32 28 23 20 17 16 15 14 15 15 15 16 16 16 15 15 15 15 16 16 16
31 35 34 33 35 35 34 30 27 25 25 29 35 34 36 35 38 40 41 41 39 37 35 31 26 22 18 17 16 16 16 16 18 18 18 17 15 14 14 15 16 16 16 15
28 35 35 29 32 32 33 34 29 27 28 29 34 35 33 34 37 39 41 41 39 37 35 30 24 20 18 16 16 16 17 17 18 18 17 15 13 13 14 14 15 15 15 15
29 33 28 34 37 34 32 34 33 30 36 36 38 34 35 36 36 38 40 40 39 36 32 26 21 18 17 16 17 17 17 17 18 17 15 14 12 13 14 14 15 15 14 14
31 31 32 35 38 34 33 33 34 33 34 36 34 34 35 35 36 38 40 39 37 34 29 23 19 17 16 17 17 16 16 16 16 15 14 13 12 13 14 14 14 14 14 14
32 29 21 26 40 42 40 34 38 37 37 38 34 33 36 33 34 35 35 34 32 28 24 19 16 16 16 16 15 15 15 14 14 13 12 12 14 13 14 13 14 14 14 15
31 30 29 32 32 40 34 30 33 39 39 35 34 33 31 29 28 29 29 28 26 25 20 16 16 16 15 14 13 14 14 13 12 12 14 14 13 13 13 13 14 14 15 16
29 27 22 34 33 31 32 33 33 34 34 34 31 30 29 27 27 27 27 24 22 19 17 16 16 15 14 12 13 13 13 11 12 13 13 13 13 13 13 14 15 15 16 17
31 29 32 34 34 35 34 33 33 34 35 33 31 30 29 26 24 23 22 21 19 17 15 15 15 14 11 11 12 11 10 11 14 13 13 13 13 13 14 16 16 16 17 17
33 32 34 33 34 34 34 34 35 35 34 33 31 29 26 24 22 21 20 18 17 16 14 13 13 11 11 11 10 9 9 11 12 17 13 13 14 14 16 16 16 16 17 17
33 34 32 33 34 34 34 34 34 34 34 32 30 28 26 23 21 20 19 18 17 15 14 12 10 10 9 9 8 8 8 10 14 14 13 13 14 14 16 17 18 18 18 18
34 35 33 33 34 34 33 33 33 32 31 32 30 28 25 23 21 20 18 17 15 14 12 10 10 10 9 9 8 7 8 11 17 14 13 14 14 15 19 19 21 21 20 19
36 33 33 34 33 34 33 32 32 31 31 29 28 27 25 23 21 24 18 16 14 13 12 10 10 9 9 9 8 8 10 13 14 14 13 13 14 14 14 14 18 18 18 19
34 33 33 33 33 33 33 33 33 31 30 29 29 28 26 26 23 20 18 16 12 11 11 10 10 9 9 10 9 10 15 20 14 14 14 14 16 15 14 14 13 11 15 18
33 34 34 33 33 32 31 30 29 29 30 30 30 28 27 24 23 22 17 13 11 12 11 10 9 9 10 10 11 12 14 15 16 15 15 17 16 14 14 13 12 11 11 13
32 32 32 32 31 31 30 29 28 29 29 29 28 27 26 23 20 17 14 12 11 11 11 9 10 10 11 13 13 12 12 18 19 17 16 16 15 13 13 11 10 10 10 11
30 29 29 30 31 30 29 28 28 28 28 27 25 23 20 17 15 13 13 12 11 11 11 11 11 13 14 14 13 13 14 15 17 15 15 15 12 12 11 10 10 10 11 13
32 31 31 31 29 27 27 27 26 26 25 24 21 19 17 17 14 13 12 11 11 11 12 12 13 15 15 15 14 15 15 14 14 14 14 10 11 11 9 10 11 11 12 13
31 31 30 29 27 27 26 25 25 24 23 21 20 18 17 15 14 12 11 11 10 9 10 13 20 16 14 19 18 16 12 12 12 11 10 12 11 9 10 11 11 12 13 12
28 28 27 27 27 26 26 26 24 23 22 21 19 17 15 13 12 11 11 10 10 10 14 18 14 13 14 19 18 11 11 10 9 9 9 10 9 10 10 12 12 13 12 11
26 26 27 27 27 27 27 26 24 23 23 21 19 17 15 12 12 11 11 11 14 16 16 17 14 15 17 16 12 10 10 9 9 9 9 9 9 10 11 12 12 12 11 11
27 26 26 27 27 27 27 26 25 23 22 20 17 15 13 12 13 14 14 13 17 19 14 13 14 18 19 14 10 10 10 9 9 10 9 9 10 11 12 11 11 11 12 12
26 26 26 26 26 26 25 24 23 20 18 16 15 13 13 12 14 14 15 18 15 16 12 14 17 20 16 11 10 10 10 10 9 8 9 10 12 11 10 10 11 11 9 10
25 25 25 25 24 23 21 18 17 15 14 14 14 13 13 13 14 16 18 19 17 15 14 14 16 17 13 9 9 10 10 9 8 8 10 13 10 10 9 9 8 9 9 10
24 25 25 25 22 19 18 17 15 14 13 12 12 12 12 12 14 13 13 13 14 9 8 14 14 14 9 9 9 10 8 7 8 8 8 7 7 6 7 8 8 8 11 10
23 23 21 20 18 17 15 14 12 12 11 10 9 9 10 10 11 8 8 10 9 10 7 7 9 9 8 7 9 7 6 7 8 8 11 8 7 6 7 7 8 8 8 8
20 20 16 15 14 14 13 12 12 12 10 8 6 6 6 7 9 8 9 7 7 7 6 5 5 6 8 9 7 6 7 7 10 10 8 5 5 5 7 7 8 8 8 8

GFSNGP_sfc_dewp_009.txt.gz
Dewpoint
32 31 33 33 33 33 31 29 24 21 22 23 24 28 33 35 36 40 41 40 38 37 34 30 27 24 22 19 18 16 16 16 16 16 16 16 16 15 16 17 17 16 15 15
31 34 34 31 34 34 32 31 28 26 26 27 28 30 36 40 38 39 42 40 38 35 31 29 27 23 20 18 16 17 17 17 19 18 18 17 15 16 17 17 17 16 15 14
27 31 34 31 33 33 34 34 31 28 29 31 31 37 39 38 36 39 43 39 37 34 31 26 22 19 17 16 17 17 17 17 18 18 16 15 14 16 16 16 15 15 14 14
29 32 27 37 38 35 33 31 34 33 31 31 34 36 38 36 36 40 42 39 37 34 28 23 21 18 17 17 17 17 17 18 17 16 14 14 14 15 15 15 14 13 13 14
30 31 33 30 34 35 33 32 33 35 34 33 35 35 36 35 35 39 41 39 36 32 26 22 19 17 17 17 17 17 17 16 16 14 13 14 15 14 14 13 13 13 13 14
33 29 27 27 37 37 39 32 34 34 35 34 37 35 37 32 35 37 37 35 31 27 23 19 17 17 17 16 16 16 16 15 14 13 14 14 14 13 13 13 13 14 15 16
32 31 30 33 34 40 31 31 33 37 36 37 37 36 32 30 30 31 32 29 27 24 20 17 17 17 16 16 15 14 14 13 13 14 14 13 13 13 13 14 14 14 16 17
31 29 22 34 37 34 33 33 33 37 38 34 31 30 29 28 28 28 27 24 21 19 17 16 17 16 15 13 14 13 13 14 14 13 13 12 12 13 14 14 14 15 17 17
31 29 32 34 33 34 34 33 34 36 35 32 30 29 27 25 25 24 22 21 19 17 16 16 16 14 12 12 11 11 13 13 13 13 13 13 12 13 14 15 15 16 17 17
34 33 34 35 34 34 34 34 35 35 33 32 29 26 24 23 22 21 20 18 17 16 15 13 12 12 11 11 10 11 13 14 15 13 13 13 13 14 15 16 16 17 17 16
34 34 34 34 34 34 34 34 34 33 32 29 27 25 24 22 21 20 19 18 17 16 14 11 11 10 9 9 10 9 10 12 13 13 13 13 13 15 17 17 18 17 17 16
33 35 34 33 34 34 34 33 33 31 30 29 27 24 23 21 20 19 17 17 16 14 11 10 10 9 9 9 8 8 11 15 14 13 13 13 14 14 18 18 20 19 19 18
36 34 33 34 34 34 32 32 32 31 30 27 26 24 22 20 19 22 17 16 14 13 11 10 9 9 9 9 8 9 12 13 16 13 13 13 15 14 13 13 16 16 18 19
34 33 33 33 33 33 32 32 32 29 28 27 25 24 24 22 20 17 16 14 13 11 10 9 9 8 9 10 13 17 18 19 14 14 14 15 16 15 12 12 10 9 14 17
33 34 34 33 33 32 31 30 29 28 28 27 26 24 22 20 18 16 13 12 12 11 10 10 9 9 10 12 13 14 14 16 16 16 15 17 15 13 12 11 9 9 10 13
32 33 33 32 31 31 30 29 28 28 28 27 26 24 23 20 17 14 13 12 12 11 10 10 9 10 13 14 13 12 15 20 19 16 15 14 13 10 11 9 8 9 9 10
31 29 30 30 31 30 29 28 28 28 28 26 24 22 19 17 15 13 13 13 12 11 11 11 12 14 15 14 13 13 15 14 16 13 13 13 9 11 10 8 9 9 10 12
33 32 33 32 31 29 28 28 28 28 26 24 21 19 18 17 14 13 11 11 11 11 12 13 14 15 15 15 15 16 14 12 12 12 10 9 11 10 8 9 10 11 11 13
32 32 32 31 29 28 27 27 26 25 23 21 20 18 16 14 13 11 11 10 10 10 11 17 20 17 18 20 17 13 11 10 10 9 9 12 10 8 9 10 11 11 12 12
29 29 29 28 28 27 26 25 23 22 21 19 17 16 14 12 12 11 11 10 10 11 16 16 14 14 17 21 16 10 10 9 8 8 9 10 8 10 10 12 11 11 11 10
27 28 28 27 27 26 25 24 22 21 20 18 16 15 14 12 11 11 10 12 15 18 17 17 15 16 19 15 11 10 9 8 8 9 9 8 8 10 10 11 11 10 10 10
27 27 27 27 25 25 24 24 22 21 19 17 15 13 12 12 14 15 14 13 17 21 16 14 15 20 18 14 10 9 9 9 9 8 8 8 9 10 11 10 10 11 11 11
26 27 27 26 25 24 24 23 22 20 18 16 14 13 13 13 14 14 15 18 16 17 14 15 20 21 16 10 9 9 10 10 8 7 8 9 11 10 10 11 11 11 10 10
26 26 26 26 24 22 20 19 18 17 16 15 14 14 13 14 16 18 18 19 19 17 15 16 18 17 12 9 9 9 10 8 7 8 9 13 9 10 10 9 9 9 9 10
25 26 25 25 24 20 19 18 16 15 14 13 13 13 13 14 16 14 14 15 19 12 11 15 15 14 8 8 7 9 8 7 8 11 10 9 9 9 8 8 8 9 12 11
25 25 24 22 20 19 17 16 14 13 12 10 10 11 12 14 14 10 10 12 10 10 6 6 8 8 7 7 10 8 6 7 8 8 11 11 9 8 7 8 8 8 9 9
21 21 19 18 17 16 15 14 13 13 11 10 8 8 8 8 10 9 10 7 6 5 3 3 2 7 8 9 8 7 7 8 10 11 11 8 7 6 7 7 8 8 9 9

GFSNGP_sfc_dewp_012.txt.gz
Dewpoint
31 30 32 33 32 34 32 30 26 24 22 23 24 24 25 28 31 36 37 39 41 41 42 43 40 34 29 27 25 25 25 23 21 19 18 17 17 16 16 17 17 16 15 15
31 32 33 33 34 35 35 34 29 28 27 29 30 33 34 36 39 38 38 39 40 40 40 38 31 28 26 23 25 22 22 21 19 19 18 19 17 17 18 18 17 16 15 15
28 30 32 32 35 35 36 36 32 29 30 30 35 37 38 40 39 39 38 41 39 38 36 32 28 26 26 26 24 21 19 19 19 18 18 17 17 17 18 17 16 15 14 14
30 33 29 36 39 38 36 36 35 32 31 32 34 38 39 39 38 37 42 41 39 35 32 28 28 26 24 20 19 19 18 18 18 17 16 16 16 16 15 14 14 14 14 13
31 31 31 33 35 38 34 32 33 34 33 33 35 37 36 35 36 39 42 40 38 33 27 24 21 20 19 19 19 18 18 17 16 15 15 16 16 15 14 13 13 13 14 13
34 29 28 33 33 37 36 30 33 34 34 34 36 32 37 34 39 41 39 36 30 26 23 21 19 19 19 18 18 17 17 16 14 14 15 16 15 13 14 14 14 13 14 13
32 31 30 33 33 40 29 29 34 36 35 35 35 35 33 34 34 36 36 32 28 25 22 19 19 19 17 18 16 16 15 14 14 15 14 13 13 12 13 13 13 12 12 13
32 28 29 34 36 32 34 35 34 37 39 37 35 32 32 32 32 31 29 26 24 21 19 18 18 18 17 15 15 14 14 14 14 13 11 11 12 13 13 13 11 11 11 11
32 31 33 35 36 36 35 35 35 36 37 36 33 31 30 29 27 26 25 24 22 20 19 18 18 16 14 13 13 14 14 13 13 12 12 12 12 13 13 12 11 11 12 12
35 34 35 36 36 35 35 35 35 37 35 33 31 29 27 26 25 23 22 20 20 18 17 16 16 14 13 13 13 13 13 12 11 11 12 12 13 13 12 11 12 12 12 12
36 36 36 35 35 34 35 34 34 34 33 31 29 28 27 25 23 22 20 20 19 17 16 14 13 12 11 12 13 13 13 12 12 13 12 12 12 14 13 13 16 14 13 13
32 36 35 34 34 35 34 33 32 31 30 29 28 27 25 23 22 21 19 18 17 16 14 12 11 10 11 11 11 11 10 11 13 13 13 12 12 11 17 17 18 18 18 18
36 35 34 35 34 34 33 33 32 31 29 27 26 25 24 22 21 23 18 17 16 15 13 11 10 10 10 10 10 11 13 14 15 13 11 11 12 11 8 7 13 13 16 18
36 34 34 34 34 33 33 32 31 28 27 26 25 24 23 22 20 18 17 16 14 12 11 10 9 8 9 11 12 14 16 18 13 12 11 13 12 10 7 7 6 4 9 13
35 34 34 34 33 32 32 30 29 27 26 25 25 23 21 20 18 16 15 13 12 12 10 9 8 8 10 13 13 13 15 15 14 13 13 13 11 8 7 8 5 4 6 9
34 34 34 33 32 31 31 30 29 27 26 24 23 22 20 18 16 15 14 14 13 12 10 9 9 10 13 13 13 15 18 20 16 10 9 9 7 6 8 6 4 5 6 8
34 34 35 35 34 31 31 30 29 27 25 24 22 20 17 16 15 14 14 14 13 12 11 11 11 13 14 13 13 14 13 12 14 8 7 7 6 8 7 5 5 7 8 10
34 34 34 33 32 31 29 28 28 26 24 23 20 18 16 16 15 14 13 12 11 11 12 12 13 14 14 15 15 14 11 8 8 7 6 6 8 7 5 7 8 9 10 11
32 33 33 33 31 29 29 28 27 25 23 21 20 19 18 16 15 13 12 11 11 10 11 14 20 17 16 19 15 12 8 6 6 5 6 9 6 6 8 8 9 10 10 10
32 32 32 31 31 29 28 26 25 23 22 21 19 17 15 14 13 12 12 11 11 11 16 17 15 18 21 19 15 9 7 6 5 5 6 8 6 8 8 11 10 10 9 9
30 30 31 30 29 29 28 26 23 21 20 20 19 17 15 13 12 12 11 10 15 18 15 17 15 17 18 16 10 7 7 6 6 6 7 6 7 8 9 10 10 9 9 8
30 29 29 28 26 26 27 26 22 20 19 18 16 14 13 13 14 15 13 13 17 21 16 16 17 20 18 12 8 7 7 7 7 6 7 7 8 10 10 10 11 13 13 13
28 28 27 26 25 24 23 21 20 19 17 16 14 14 13 14 14 14 15 19 18 17 14 18 23 20 15 8 7 7 7 7 6 6 7 9 11 10 11 13 13 14 14 13
27 27 26 24 23 22 21 20 19 17 16 15 15 14 14 15 16 17 18 19 20 18 17 19 20 17 10 7 6 6 8 7 7 8 10 13 10 12 13 13 13 13 13 13
27 27 27 25 24 22 21 21 19 18 15 14 14 15 16 16 16 16 17 18 20 16 15 17 16 12 6 5 6 8 8 7 8 13 12 13 13 14 13 13 12 13 14 14
26 25 25 23 21 20 19 18 16 15 14 12 13 14 15 15 16 13 12 12 9 10 5 5 6 6 5 6 9 8 7 8 9 10 13 13 13 13 12 12 12 12 12 13
25 24 21 20 19 19 18 17 15 15 13 12 12 13 13 11 11 10 11 6 4 2 1 1 1 6 7 9 8 8 8 9 12 12 13 13 12 12 12 12 12 12 12 12

GFSNGP_sfc_dewp_015.txt.gz
Dewpoint
30 29 32 32 31 31 33 33 30 27 26 25 27 28 33 32 30 28 31 38 38 41 42 44 47 45 40 40 35 32 30 30 28 25 22 21 20 19 19 20 18 18 17 16
31 31 31 32 31 33 37 36 34 35 33 34 32 35 34 36 37 39 38 39 39 41 42 45 40 36 34 32 29 30 29 28 25 22 22 22 20 20 21 19 18 17 16 15
28 28 30 31 36 37 37 37 36 33 35 34 34 37 38 38 39 40 40 39 40 41 41 36 32 29 27 28 29 30 28 25 25 21 21 21 20 20 20 18 17 16 14 13
32 32 29 33 37 38 37 36 34 33 35 36 34 38 41 42 40 39 39 41 40 39 33 28 28 29 28 30 27 27 25 24 21 21 20 20 19 19 17 16 15 13 13 13
31 28 28 34 35 37 37 35 33 34 38 34 34 38 38 37 38 38 42 39 36 30 29 30 32 33 34 36 35 27 22 21 20 19 19 19 18 16 15 13 13 12 13 14
33 29 26 33 34 37 37 31 34 34 37 35 36 35 35 38 43 40 38 32 27 26 27 29 29 27 27 28 27 24 24 18 17 18 18 18 17 14 14 14 14 14 14 13
32 30 30 33 34 37 31 30 35 35 37 35 35 34 34 36 37 37 36 35 35 34 34 31 27 27 22 20 18 17 17 16 17 17 16 14 13 12 12 13 15 12 13 11
31 31 28 34 34 33 35 36 35 35 42 37 34 33 34 34 32 32 29 26 23 22 21 21 20 20 19 17 16 16 16 16 15 13 12 12 13 13 13 13 12 10 9 10
31 31 34 36 36 37 37 35 35 36 39 37 34 32 31 32 30 27 24 22 22 21 21 20 18 17 15 15 15 16 15 15 13 12 12 13 13 14 14 12 10 11 12 12
34 34 35 36 36 36 35 35 36 37 37 36 32 31 29 28 27 25 24 22 21 20 18 17 15 14 14 15 15 15 14 13 12 11 12 13 15 14 12 11 11 11 11 11
35 36 36 36 35 35 35 35 36 37 34 33 32 30 29 27 26 24 23 22 20 18 16 14 14 14 15 16 15 15 14 13 14 14 12 13 13 13 13 12 14 14 13 13
31 36 36 35 35 35 34 33 33 32 31 31 31 29 27 26 24 23 21 19 18 17 15 13 13 14 15 15 15 13 12 13 14 15 14 13 12 11 19 16 17 18 18 17
35 36 35 35 35 35 34 33 32 31 30 29 28 27 26 24 23 24 20 19 18 17 16 13 13 12 13 14 15 14 13 13 15 15 12 11 11 9 7 13 18 16 12 14
37 36 35 35 34 34 33 32 32 29 28 28 27 25 24 23 22 20 19 17 16 14 13 12 11 10 11 12 14 14 15 18 14 13 11 12 11 9 6 5 5 4 8 11
37 36 35 35 34 33 32 30 28 28 27 26 25 24 22 21 19 18 16 15 15 14 13 11 10 11 14 15 16 15 15 16 14 12 13 11 9 7 5 6 5 3 5 8
37 35 34 34 33 32 31 30 28 27 26 25 24 23 21 19 18 17 16 16 15 13 13 10 11 12 14 15 16 18 19 19 14 8 8 7 6 4 6 5 3 4 6 7
36 36 37 37 35 32 32 30 29 28 26 24 22 20 19 18 17 16 16 16 15 14 13 14 14 15 16 15 15 15 13 13 12 7 6 5 5 6 6 4 5 7 8 10
37 36 35 34 33 32 32 31 29 27 25 22 20 18 17 17 16 16 15 15 13 13 14 14 15 15 16 17 17 14 10 8 7 6 5 4 6 7 5 6 7 8 9 10
35 34 35 34 33 32 31 29 27 25 23 21 19 18 18 17 16 15 15 14 12 11 11 15 20 18 17 18 14 11 6 5 4 4 5 7 6 5 7 8 9 10 10 9
33 34 34 34 34 31 29 27 25 23 21 20 20 18 17 16 16 15 15 13 14 12 14 18 19 20 19 17 13 8 5 5 4 4 5 7 6 7 8 10 10 9 9 9
32 32 33 32 32 31 29 27 23 22 22 20 19 18 17 15 15 14 13 13 15 17 16 17 16 18 18 15 9 6 5 4 4 5 6 6 6 7 9 9 9 9 10 10
32 32 31 31 28 28 28 26 23 22 21 20 19 16 15 15 16 16 15 16 18 20 16 16 17 18 17 11 7 6 5 5 5 5 6 7 8 9 10 10 11 15 15 16
30 29 29 28 27 26 25 23 22 21 19 17 16 15 15 15 15 15 15 18 19 18 15 18 22 20 13 7 6 5 5 6 6 6 7 8 10 11 12 15 15 15 16 15
28 28 27 26 25 23 21 21 19 18 17 16 16 16 15 15 16 18 20 20 20 19 19 23 21 16 8 5 4 5 6 7 7 8 9 14 12 14 15 15 15 15 15 15
29 29 27 27 25 23 22 22 21 19 16 16 16 16 17 18 17 17 18 19 21 18 18 20 18 10 4 4 5 7 8 8 8 14 13 15 15 16 15 15 15 14 15 15
28 26 26 26 23 22 20 18 17 16 15 15 15 16 16 17 18 17 17 17 13 13 7 6 5 5 4 5 8 9 8 8 9 11 14 15 15 15 15 14 14 14 14 14
29 25 21 21 20 20 19 18 16 16 15 14 14 15 15 14 13 11 12 7 4 2 1 0 1 4 6 9 9 8 9 9 13 14 15 15 15 15 14 14 14 14 14 14

GFSNGP_sfc_dewp_018.txt.gz
Dewpoint
31 29 30 29 30 30 32 33 30 29 30 31 33 36 37 36 36 35 38 38 39 40 41 45 46 46 44 37 35 31 30 28 26 25 24 22 20 20 20 20 19 19 18 17
30 31 31 30 30 31 33 37 36 36 35 37 38 36 35 36 37 37 39 40 40 40 43 42 39 37 38 35 33 33 30 26 24 23 24 22 21 21 21 20 19 19 17 17
26 29 30 29 32 36 36 36 37 35 37 39 36 37 37 39 39 39 40 40 40 41 38 33 31 31 32 32 31 29 28 27 27 30 31 28 23 21 20 19 18 16 15 14
29 30 22 34 37 37 37 38 38 34 38 40 39 40 39 38 38 37 40 40 40 34 30 29 28 29 30 30 30 32 31 32 33 34 31 25 20 19 18 17 16 15 14 15
30 27 27 32 38 35 36 35 35 33 36 36 40 42 39 40 39 39 38 33 30 29 29 30 31 30 30 32 33 32 33 35 33 30 28 23 20 17 15 14 14 14 16 15
33 28 23 32 35 39 37 35 35 36 38 35 36 34 35 41 37 30 27 27 30 31 34 34 35 36 35 33 34 33 32 31 29 26 19 17 15 14 15 15 15 16 15 13
32 31 30 31 34 37 33 31 36 35 41 36 33 33 35 39 40 37 35 35 34 34 34 35 38 37 35 35 35 35 34 24 19 18 15 14 14 13 14 15 14 13 11 12
32 30 25 34 34 33 35 37 36 36 39 34 35 35 34 34 33 37 38 38 37 37 38 38 37 32 22 16 17 17 17 16 14 13 12 12 13 13 13 13 11 10 10 12
31 31 33 36 36 37 36 36 36 36 37 35 33 33 33 30 25 24 23 22 22 21 20 20 19 17 15 16 16 15 14 13 13 13 13 15 15 14 14 12 12 12 12 12
33 34 35 36 36 36 35 35 36 38 37 34 32 31 29 27 25 22 21 21 19 17 16 15 15 15 16 16 15 14 13 13 13 13 14 14 15 14 13 12 13 12 12 13
35 36 37 35 35 35 34 35 36 34 34 33 31 30 28 26 24 23 22 20 18 16 15 15 15 15 16 15 14 13 13 15 15 15 14 13 14 15 14 17 16 16 16 16
34 36 36 35 35 35 34 34 33 32 32 32 31 29 27 24 23 21 19 18 17 16 15 15 16 16 16 16 14 13 13 15 17 16 15 14 13 12 17 16 15 17 17 17
35 36 35 35 35 34 33 33 32 31 30 29 28 27 26 23 21 23 18 19 17 16 16 14 14 14 15 16 15 15 15 15 17 15 13 12 12 10 8 12 17 18 14 12
38 36 35 35 34 34 33 32 32 29 28 28 27 25 24 23 21 19 17 16 15 14 13 12 12 13 14 16 16 17 17 21 15 14 13 12 11 9 7 6 7 6 10 11
38 37 36 35 34 33 31 30 29 27 26 25 25 23 22 20 18 17 16 15 14 13 13 13 14 15 17 17 17 16 16 16 14 13 14 11 9 7 6 7 6 4 6 10
37 35 34 34 33 32 30 29 27 27 25 24 23 22 19 18 17 16 16 15 14 13 13 13 14 15 16 18 19 20 20 19 13 9 8 7 6 6 7 5 4 5 7 8
35 32 32 31 32 32 31 30 28 27 25 24 22 19 18 17 16 17 16 15 14 14 15 16 16 17 16 16 16 16 16 14 11 8 7 6 6 7 7 5 6 8 9 10
37 37 36 35 33 32 32 30 28 26 25 21 20 18 17 17 16 15 14 14 14 14 15 16 16 16 18 18 16 12 10 9 8 7 6 6 9 9 6 7 8 9 10 11
37 35 35 35 34 33 32 29 27 25 21 20 18 18 18 17 15 14 14 13 12 12 14 17 22 19 19 17 14 10 7 6 5 5 6 8 7 6 7 8 9 10 10 9
34 34 35 35 35 32 29 27 24 21 20 19 19 18 16 15 16 15 15 13 13 13 17 19 19 20 18 16 13 8 6 5 4 4 6 8 7 7 8 10 10 9 10 9
32 33 34 35 33 31 30 28 23 20 21 20 18 17 16 16 16 14 13 13 15 19 19 21 20 19 18 14 9 7 6 5 5 6 6 7 7 8 9 10 10 10 11 12
32 32 32 31 30 29 28 25 22 21 20 19 18 16 16 15 16 16 16 16 18 22 17 17 18 20 17 11 7 6 6 5 6 6 7 7 8 9 11 11 12 14 14 14
30 30 30 28 27 26 24 22 21 21 19 18 17 16 15 16 16 16 16 19 18 19 17 20 22 20 13 8 7 5 5 6 6 6 8 9 10 12 11 10 11 12 11 12
28 28 28 27 26 23 22 22 20 19 18 17 17 17 16 16 18 19 20 22 21 21 22 22 20 14 9 5 4 5 6 7 8 8 9 14 13 11 9 11 11 12 12 13
28 27 27 26 25 23 22 21 20 19 16 16 16 17 18 18 18 19 19 19 23 21 21 23 18 10 4 5 5 7 9 8 9 9 10 8 8 8 10 11 11 11 12 12
27 26 26 25 23 22 20 18 17 16 16 16 17 17 18 18 19 19 19 19 17 19 13 11 7 6 5 6 8 9 8 8 9 10 12 9 9 10 11 11 11 11 11 10
25 25 22 21 21 20 20 18 17 16 17 17 17 18 18 17 17 16 16 10 6 4 3 3 2 6 7 9 10 8 9 9 12 12 10 8 8 8 11 11 11 11 12 12

GFSNGP_sfc_dewp_021.txt.gz
Dewpoint
30 30 31 29 29 30 29 30 29 27 28 31 34 37 39 38 37 38 40 41 42 40 41 43 44 43 41 41 43 43 38 36 33 29 29 27 28 26 26 26 22 19 18 18
25 30 30 29 30 30 31 30 31 32 32 36 39 40 38 37 37 38 38 39 40 41 42 39 42 41 41 40 39 40 33 31 27 27 28 29 29 28 27 20 19 18 17 17
21 29 30 28 30 30 36 37 36 34 36 38 39 40 39 39 39 40 40 40 41 40 33 34 38 41 41 39 34 27 26 26 27 29 31 33 29 26 24 21 18 17 16 16
27 27 20 34 37 37 36 36 38 38 36 34 37 41 39 40 33 40 38 39 34 30 29 30 32 35 35 35 33 32 32 32 33 33 33 33 33 32 30 26 24 22 15 16
30 28 26 30 37 36 36 33 36 34 35 38 37 41 39 39 31 31 30 30 30 30 31 31 32 34 34 34 34 35 35 36 36 36 35 34 32 31 30 28 19 15 17 16
33 27 22 29 36 39 37 33 35 36 38 38 35 34 36 39 32 31 32 33 32 33 34 33 33 35 35 36 36 35 35 35 35 34 33 30 27 20 15 16 16 17 15 14
32 30 30 32 33 39 31 29 36 35 38 34 33 34 36 38 36 35 35 33 35 36 37 37 37 36 35 35 34 35 35 34 33 29 23 20 16 16 15 15 14 12 11 12
33 30 25 32 35 34 34 37 36 37 35 35 34 34 34 36 37 37 36 36 37 37 37 37 37 35 34 34 35 34 32 26 19 15 13 13 14 14 13 12 11 11 11 12
31 29 30 35 35 37 36 35 35 37 35 35 34 33 30 25 28 35 36 36 37 35 34 32 30 25 21 17 16 15 14 14 14 14 15 15 14 13 13 12 13 12 13 13
33 33 35 36 36 35 35 34 35 38 36 34 32 30 27 23 22 21 20 19 20 19 17 16 16 16 16 15 14 13 13 13 14 15 14 14 15 14 13 13 13 13 13 13
34 36 36 35 35 36 34 36 33 35 34 32 31 29 26 24 23 22 20 18 18 17 17 16 16 15 15 15 13 13 14 15 16 15 13 13 15 14 15 16 13 14 16 16
34 36 36 35 36 35 34 34 32 32 32 31 30 28 25 23 21 19 18 17 17 17 17 17 16 16 15 15 14 14 14 15 16 15 14 13 12 12 18 17 17 17 17 15
34 36 36 36 34 34 33 32 32 31 30 29 28 25 24 21 19 22 20 21 23 20 18 16 16 15 15 15 16 16 16 16 17 15 13 12 11 9 7 10 16 16 14 14
38 36 35 35 34 33 32 32 32 29 28 27 26 23 23 22 21 19 18 18 17 15 14 14 14 15 16 17 16 16 17 20 14 13 13 12 10 8 6 6 6 5 10 13
38 38 37 35 33 32 31 29 28 27 25 25 24 23 21 19 18 17 16 15 14 14 14 14 15 16 17 17 17 16 15 14 13 13 12 11 8 6 7 7 5 4 7 11
36 35 34 34 32 31 30 29 27 26 25 23 22 20 19 18 17 16 15 14 13 13 15 14 15 16 19 19 19 18 17 18 13 9 8 7 6 7 8 5 5 6 8 9
36 32 30 29 32 31 30 29 28 26 25 26 20 18 17 16 16 16 15 14 14 14 15 16 17 17 18 18 18 16 13 12 14 8 6 6 6 8 7 6 7 8 9 11
36 37 37 35 33 32 31 29 28 28 26 21 19 17 16 16 15 15 14 14 14 15 16 16 16 18 18 16 13 11 10 8 8 7 6 6 9 9 6 7 8 9 10 11
35 37 36 36 34 33 31 29 27 25 22 20 18 17 18 16 15 14 14 13 13 13 14 18 23 19 17 17 12 9 6 6 5 5 6 9 8 7 8 9 10 10 10 9
33 34 35 35 35 33 30 27 24 24 24 19 19 18 16 15 14 14 14 13 13 14 17 20 19 17 16 15 13 7 6 5 5 5 6 8 7 8 8 10 11 10 10 10
32 33 35 35 34 32 29 26 25 26 23 20 18 17 16 15 15 15 14 13 14 19 19 23 19 18 17 13 9 7 6 5 5 6 6 6 7 8 9 11 11 11 12 13
32 31 32 34 33 32 32 30 28 21 20 19 19 17 16 16 15 16 16 15 18 24 19 19 19 20 16 13 7 6 6 5 6 6 7 7 8 9 11 12 12 13 13 12
29 30 29 29 29 27 24 22 21 20 19 18 17 17 16 16 16 15 15 19 20 20 18 18 22 20 15 8 7 5 5 6 6 7 8 9 11 12 11 8 10 11 10 11
29 28 28 28 24 23 22 22 21 20 19 18 18 17 17 16 17 18 20 22 22 22 21 23 20 15 11 5 4 5 7 8 8 8 9 14 12 10 8 9 10 10 11 12
27 26 26 25 25 23 22 22 21 19 17 17 17 18 18 19 18 20 20 20 24 24 22 23 17 13 5 5 5 7 9 8 8 7 8 6 6 5 8 9 9 10 12 10
27 27 26 25 23 22 20 19 17 17 16 16 18 19 21 20 20 19 20 23 23 24 19 15 8 5 5 6 8 9 8 8 9 9 11 9 8 8 9 10 9 10 11 10
23 26 23 22 22 20 20 18 17 17 17 17 18 21 22 21 19 19 20 17 13 9 6 6 5 7 6 8 9 8 8 9 12 11 9 6 7 7 9 10 10 11 11 11

GFSNGP_sfc_dewp_024.txt.gz
Dewpoint
29 29 30 29 29 29 26 27 26 25 27 28 31 33 37 39 39 38 39 39 41 41 41 43 41 40 40 42 43 42 42 42 38 35 33 30 30 30 30 30 28 27 29 27
28 29 30 28 30 29 29 29 29 28 28 31 35 38 40 39 39 38 40 40 39 40 41 40 39 39 39 39 40 38 36 35 33 30 31 32 32 30 29 30 30 29 26 23
23 28 29 26 29 30 31 32 31 32 34 37 38 37 39 40 34 33 37 39 40 36 35 38 41 40 38 37 37 35 34 32 32 32 31 30 30 30 29 30 30 27 25 21
26 26 18 30 34 33 31 35 37 37 37 38 36 39 39 35 31 32 30 30 29 30 32 35 37 37 37 37 36 35 34 35 35 33 33 34 34 33 32 31 30 30 29 29
27 25 26 30 35 35 35 33 35 37 36 35 38 39 39 34 30 32 33 32 32 32 33 35 35 37 36 36 36 36 36 35 35 36 35 35 34 33 33 33 32 31 29 25
33 26 22 26 37 38 37 32 37 36 35 37 35 35 36 35 33 32 33 34 34 33 33 34 35 35 36 36 35 35 36 36 36 35 35 34 34 33 33 31 26 20 16 15
32 29 29 31 32 39 29 28 36 36 36 35 34 35 36 36 36 35 35 36 37 37 37 37 36 36 35 34 33 36 35 35 34 34 32 31 29 26 21 17 15 13 12 12
33 30 25 32 36 34 33 36 37 36 37 34 34 34 36 37 37 36 36 37 36 35 34 36 37 36 35 33 34 33 33 32 29 24 17 15 15 14 13 12 11 11 12 13
31 30 31 32 35 36 36 35 35 35 36 35 33 32 31 35 36 36 36 36 35 33 30 27 28 31 32 30 26 21 16 15 14 14 14 14 13 12 13 13 13 12 13 12
33 34 33 34 36 35 35 35 35 37 36 35 33 30 24 24 23 21 24 27 25 23 22 17 16 16 15 15 15 14 14 15 15 14 14 14 15 13 14 14 13 12 13 13
34 35 36 35 35 35 35 36 34 36 35 33 31 26 23 23 21 20 21 19 19 18 18 16 16 15 15 14 13 14 15 17 17 15 14 14 14 14 14 12 11 12 15 15
31 35 36 36 36 36 34 34 33 33 32 32 29 27 24 22 21 20 19 19 19 19 17 16 16 15 15 15 14 15 14 15 15 14 13 14 14 15 20 18 19 18 20 17
34 35 36 36 35 35 33 33 32 32 31 30 28 25 23 21 19 21 19 22 23 21 20 17 16 15 15 16 16 16 16 16 17 14 12 11 10 8 6 10 16 15 14 14
40 38 36 35 35 34 32 32 33 29 29 27 25 23 22 21 22 21 22 23 18 16 16 16 15 15 16 17 16 16 17 20 14 13 12 11 9 7 6 7 5 4 11 15
35 37 37 35 33 32 31 29 28 27 26 24 24 23 22 20 19 19 20 16 15 15 15 15 15 16 17 17 17 16 14 14 13 12 11 10 7 6 7 5 4 5 8 11
34 36 34 34 32 31 29 28 27 26 25 24 22 21 20 19 18 18 20 17 15 14 15 15 16 17 18 17 16 15 14 17 13 9 8 6 6 8 7 5 5 7 8 9
33 32 34 28 31 31 29 29 27 27 25 23 22 22 18 17 16 15 15 15 15 15 16 17 17 20 20 19 16 15 14 14 14 7 6 6 7 8 7 6 7 8 9 11
34 35 36 36 35 33 30 29 28 27 27 27 23 18 16 16 15 15 14 15 15 15 16 17 17 18 17 16 14 11 9 8 7 6 5 7 9 7 6 8 9 9 10 10
33 34 35 37 36 34 31 29 28 28 28 23 18 17 17 16 15 14 14 14 14 13 14 16 22 18 14 15 12 8 6 5 5 5 6 9 7 7 8 9 10 10 10 9
34 34 35 35 35 33 31 29 27 23 21 21 19 18 16 15 15 14 14 13 14 13 16 21 18 17 16 16 13 7 6 5 5 5 7 7 7 8 8 10 11 10 10 11
34 33 34 36 34 32 29 26 25 24 23 24 19 18 17 15 15 14 14 13 14 19 20 22 17 15 15 14 9 6 5 5 5 6 6 6 7 8 9 11 11 11 12 13
30 33 31 34 33 33 33 32 30 29 28 24 20 18 16 16 16 16 16 15 18 24 22 20 18 18 15 14 7 6 6 5 5 6 7 7 8 9 11 12 12 12 13 11
29 29 30 30 32 33 33 32 30 27 23 20 19 18 17 16 16 15 15 18 21 24 19 19 21 21 18 8 6 5 5 6 6 7 8 8 11 12 10 7 9 10 9 10
28 27 27 28 25 24 23 24 26 26 24 20 19 18 17 16 17 18 20 23 24 23 19 22 22 20 12 5 4 5 6 7 8 8 9 13 11 8 5 7 8 9 10 11
27 27 25 24 24 24 23 23 22 21 19 19 18 18 19 18 18 20 21 21 24 22 23 25 20 17 5 4 5 7 8 8 8 7 7 5 4 4 6 7 8 9 11 10
26 27 27 26 25 23 21 20 19 18 17 17 18 21 22 24 23 20 20 23 23 24 21 16 10 6 5 5 7 9 8 8 9 9 10 7 6 6 7 8 8 9 9 9
24 28 24 23 22 21 20 19 18 17 19 18 18 22 23 25 23 21 24 23 23 19 13 9 10 7 5 7 9 8 8 9 11 10 8 5 6 6 8 9 9 10 10 10

GFSNGP_sfc_dewp_027.txt.gz
Dewpoint
28 28 29 28 28 28 25 26 24 23 24 25 27 29 31 38 39 39 36 35 40 40 41 42 41 39 39 40 41 41 41 40 40 41 40 40 36 35 35 35 33 31 32 32
24 28 30 28 29 29 29 28 28 27 27 29 30 35 38 39 38 34 33 33 37 40 40 40 39 38 38 37 35 35 35 34 35 34 34 33 31 31 32 31 32 33 33 32
24 27 28 26 28 29 30 30 29 27 29 34 37 38 38 39 34 32 32 31 30 32 36 39 39 38 37 36 36 34 33 32 33 33 32 32 32 33 33 33 33 32 32 33
26 26 19 26 31 31 30 31 32 32 34 36 38 38 39 34 30 32 33 32 31 32 34 36 37 37 38 37 35 35 35 34 34 34 34 35 35 34 33 33 32 32 32 33
26 26 25 29 33 35 33 33 35 35 36 37 37 38 36 34 32 32 33 33 33 33 35 36 36 37 36 35 36 36 36 36 37 37 36 35 34 33 33 33 33 33 33 33
32 26 21 25 36 38 36 30 35 37 36 35 36 33 35 36 34 33 34 35 35 35 36 36 36 37 36 35 35 34 35 36 36 36 35 34 34 34 34 33 32 33 31 31
32 29 28 30 31 38 28 28 36 36 36 35 35 35 36 36 36 35 36 37 37 37 37 36 36 36 35 34 32 35 35 35 35 35 34 34 33 33 32 30 27 20 15 15
31 31 24 34 38 33 33 36 36 36 35 36 34 36 36 37 36 36 36 36 35 33 34 36 37 35 34 33 35 34 33 32 30 31 31 27 23 18 15 12 12 12 12 13
31 29 31 34 34 36 36 35 35 35 36 35 34 33 35 35 35 36 36 35 34 30 27 30 33 34 32 31 29 25 20 17 16 14 14 13 12 12 13 13 13 13 13 12
33 35 34 34 35 36 35 34 35 36 37 35 34 32 30 34 31 29 31 29 28 23 19 17 17 18 18 16 15 15 14 14 14 14 13 13 14 14 14 14 13 12 12 12
33 34 35 36 35 36 35 35 35 36 35 35 33 29 25 25 23 24 22 21 21 19 18 16 16 15 15 14 15 15 16 16 14 14 13 13 14 12 11 9 10 11 14 13
31 33 35 36 37 36 35 35 33 34 33 33 32 26 24 22 22 23 20 20 20 20 18 16 15 15 14 15 16 15 14 14 15 14 15 15 17 17 22 21 21 20 21 17
35 38 39 37 37 35 34 33 33 33 32 32 29 25 23 21 20 22 20 22 21 22 19 16 15 15 15 16 16 15 15 15 17 13 11 10 9 7 5 10 18 17 17 16
38 36 37 37 36 35 33 32 33 31 30 30 27 24 22 21 22 20 23 23 20 18 16 15 15 15 16 16 16 16 17 20 13 12 11 9 7 6 6 6 4 4 11 15
32 34 34 36 34 33 32 30 29 28 27 25 24 23 22 22 21 22 22 18 17 17 16 15 15 16 17 17 17 16 14 13 12 11 10 9 6 7 7 5 4 5 8 11
33 34 34 35 34 32 30 29 28 27 26 24 23 23 22 21 21 21 20 21 19 16 16 15 16 17 17 16 14 13 15 18 14 10 7 5 6 7 6 5 6 7 8 9
31 30 29 28 29 32 30 29 28 27 26 26 25 23 21 21 19 20 18 18 17 16 16 17 17 18 18 17 16 16 15 14 13 6 5 5 8 8 6 6 7 8 9 11
32 33 34 34 34 35 33 30 29 27 26 25 23 22 19 17 17 16 16 16 15 16 17 18 19 19 18 16 14 12 11 9 7 5 5 7 9 7 6 8 8 9 10 10
33 34 34 34 36 36 35 31 29 27 28 26 25 24 19 17 16 15 15 15 15 14 15 17 23 18 15 15 12 9 6 5 5 5 6 10 7 7 8 8 10 10 10 10
33 35 34 36 34 34 33 30 28 29 28 25 22 18 17 16 15 15 15 14 15 14 15 19 18 15 14 17 14 7 5 5 4 5 8 6 6 8 8 10 11 11 10 11
30 33 33 35 35 32 29 28 25 23 23 24 23 19 17 16 15 15 14 14 14 18 18 23 17 16 15 16 10 6 5 4 4 5 6 6 7 7 8 10 11 11 12 12
29 29 30 32 34 34 33 32 29 26 27 28 26 20 16 16 16 16 16 15 16 23 22 18 17 17 16 17 7 6 5 4 5 6 7 7 7 9 11 12 12 12 12 11
28 28 27 28 28 32 34 33 32 31 30 29 25 19 17 17 16 15 15 17 19 24 20 18 20 22 20 8 6 5 5 5 6 6 7 8 10 12 10 7 8 10 8 9
27 28 27 26 26 25 28 28 31 31 29 26 25 23 19 17 17 18 20 22 24 25 19 20 23 24 20 5 4 4 5 7 7 8 8 13 11 8 5 7 7 9 9 11
26 26 26 26 26 25 24 24 24 25 26 25 25 24 21 19 18 19 20 22 26 23 20 24 26 23 7 4 4 6 7 8 8 7 7 5 5 4 6 7 7 8 9 10
25 26 26 25 24 24 23 21 20 20 19 19 19 20 22 24 25 23 22 23 23 22 22 23 18 11 4 4 6 8 8 8 10 9 10 8 7 6 7 8 8 9 9 8
25 28 26 25 25 23 22 21 19 18 20 18 19 22 23 25 26 25 23 23 23 21 18 13 13 9 4 6 9 9 8 8 11 11 9 7 6 5 8 9 9 10 10 11

GFSNGP_sfc_dewp_030.txt.gz
Dewpoint
27 27 28 27 27 28 24 25 21 22 24 25 27 28 29 32 40 38 34 33 32 33 38 39 39 38 38 36 36 40 40 40 41 42 43 40 38 36 35 34 32 32 33 33
22 28 29 27 29 28 28 28 27 27 27 29 29 31 37 39 38 34 33 33 31 31 35 37 38 38 37 36 35 34 34 35 35 35 35 36 35 34 34 33 34 35 35 35
18 26 28 25 28 28 28 29 28 26 27 28 32 37 38 38 34 32 32 32 32 32 34 37 37 37 37 37 36 34 33 33 32 32 32 33 34 34 35 34 35 35 36 35
18 25 17 25 31 30 29 29 30 30 30 32 34 38 38 34 31 31 32 32 33 33 35 36 36 36 37 37 35 35 35 34 35 35 35 35 35 34 34 34 34 34 34 34
20 26 25 28 32 31 31 32 32 31 31 34 37 37 35 35 33 32 33 34 34 34 35 36 36 37 36 36 36 35 36 37 36 36 35 34 34 33 33 33 33 33 33 33
29 25 21 24 36 38 36 29 35 36 35 35 35 32 35 35 34 34 35 36 36 36 36 36 36 36 35 35 35 35 35 35 35 35 34 33 33 32 33 33 32 32 32 32
29 26 27 29 31 38 28 28 35 35 36 34 34 35 35 36 35 35 36 36 35 35 36 36 37 36 35 35 32 35 36 36 35 35 34 33 33 33 32 31 30 30 28 23
29 27 24 34 37 33 33 35 35 35 34 35 35 35 35 36 35 36 35 35 33 33 33 36 36 35 34 34 35 35 33 33 33 33 34 33 30 29 27 19 14 13 13 13
29 28 30 33 35 36 36 35 34 33 34 36 34 34 35 35 35 36 34 34 31 30 30 31 33 33 31 29 25 22 19 17 17 15 14 13 12 12 13 13 13 13 13 12
32 33 34 34 35 35 36 34 35 35 36 36 34 34 34 35 34 34 32 31 27 24 21 19 17 16 16 16 17 15 14 14 14 13 13 13 14 14 13 13 13 12 11 10
33 34 34 36 36 36 35 35 35 35 35 36 35 32 33 32 29 29 27 24 22 21 20 17 16 15 15 15 15 16 15 14 13 13 13 13 12 9 9 9 10 11 12 11
30 33 34 35 36 37 36 35 35 34 33 33 34 30 27 25 25 24 23 22 21 20 18 16 15 15 15 16 16 14 13 13 14 15 16 17 18 19 23 23 22 21 20 17
37 37 38 38 39 37 35 35 34 33 34 33 31 26 25 22 23 25 22 22 21 21 19 16 15 15 15 16 15 15 15 15 16 12 11 10 10 9 8 12 18 18 18 18
35 35 37 37 36 36 35 33 34 32 32 32 29 25 23 21 24 21 22 22 21 18 17 15 15 15 16 16 16 16 17 18 12 11 9 8 6 6 6 4 2 3 12 16
32 33 33 34 34 35 33 31 30 30 29 27 26 24 22 21 21 22 24 21 20 18 17 15 15 15 16 16 17 16 14 13 11 10 9 8 6 7 6 4 4 6 8 11
32 32 33 33 33 35 32 30 30 29 27 26 25 24 23 22 22 23 20 21 19 17 16 15 16 16 17 16 14 13 14 17 14 9 6 5 7 6 5 5 5 7 8 8
29 30 28 30 30 32 33 32 30 29 27 25 25 24 24 24 23 20 20 23 24 20 17 17 17 18 17 15 14 16 16 14 14 6 5 5 7 7 6 6 6 8 8 10
31 31 32 32 33 33 34 34 31 29 27 26 25 23 22 21 20 20 19 19 17 16 17 17 18 18 17 16 15 14 13 10 6 5 5 8 9 7 6 7 8 9 10 10
31 34 35 34 35 35 35 36 34 30 27 25 24 22 22 24 20 18 17 16 15 15 16 18 23 19 16 16 13 9 7 5 5 5 5 10 6 7 8 8 9 11 10 10
30 32 34 34 36 33 32 32 31 28 27 25 25 24 23 18 17 17 16 15 16 16 16 19 20 16 15 19 14 6 5 4 3 4 7 7 6 8 7 10 11 11 11 11
29 31 32 34 35 35 32 29 28 28 28 26 24 24 22 18 16 16 15 15 15 19 17 24 16 15 16 17 10 6 5 4 3 4 5 5 6 7 8 9 11 11 11 12
28 28 28 29 29 33 34 32 26 25 25 26 27 25 21 18 17 17 16 16 16 24 22 19 17 18 17 19 7 5 4 3 4 5 6 6 7 8 10 11 12 11 11 10
27 27 28 27 26 26 33 33 32 30 30 30 29 27 24 20 18 16 15 17 17 23 21 18 20 23 22 9 7 5 4 4 4 6 7 8 8 11 10 7 8 9 8 9
27 27 27 27 26 25 24 25 31 32 32 32 31 30 27 18 17 18 20 22 23 25 19 19 22 24 22 7 5 4 4 5 6 7 8 13 12 9 5 7 7 9 8 10
25 25 25 25 25 25 24 24 24 26 28 28 28 29 29 28 20 18 21 22 25 25 20 24 25 25 10 5 4 4 5 7 8 7 7 5 5 4 7 7 7 8 9 10
24 26 26 25 24 24 23 22 21 21 21 22 23 25 26 23 24 24 23 24 25 24 19 23 23 17 7 4 4 5 7 8 11 10 10 8 6 7 8 8 8 9 9 9
19 23 23 22 23 23 25 25 23 20 20 19 19 21 23 26 25 25 27 25 24 21 20 21 20 14 4 4 6 7 8 8 11 9 9 7 7 6 8 9 9 10 10 11

GFSNGP_sfc_dewp_033.txt.gz
Dewpoint
27 26 29 28 28 28 25 25 23 21 23 24 26 28 29 31 39 36 34 34 33 31 34 37 37 38 38 37 35 35 36 36 38 41 41 39 38 38 37 37 35 35 34 34
23 28 29 28 29 28 28 27 26 26 26 28 29 30 35 38 37 34 33 33 33 32 35 36 37 37 37 37 36 35 34 33 34 34 35 36 35 36 36 35 35 35 35 36
19 26 27 25 28 28 29 29 28 26 28 29 29 34 37 38 35 32 32 33 33 33 35 36 36 36 37 36 36 35 34 34 34 34 35 35 35 35 35 36 37 37 37 38
21 24 18 24 30 30 29 29 30 29 29 30 31 35 38 34 33 32 33 33 33 34 35 36 37 37 37 37 36 36 36 36 35 35 35 35 35 35 35 35 35 35 36 36
21 22 23 26 30 30 29 31 30 30 30 31 35 36 37 35 33 33 34 35 35 35 35 36 36 36 37 36 36 35 35 35 35 35 34 34 34 34 34 34 33 33 33 33
27 23 20 24 36 36 35 31 35 32 33 35 36 33 35 35 34 35 35 36 36 35 35 36 36 34 35 35 36 35 35 36 35 35 34 33 33 32 33 33 32 33 32 32
28 26 26 28 35 38 32 30 34 36 36 36 35 35 36 35 35 36 35 35 35 36 37 36 36 36 35 35 33 35 36 35 35 35 34 33 32 32 32 32 31 30 30 30
28 27 23 32 35 34 35 35 36 36 35 35 35 35 35 36 35 36 35 34 33 34 35 36 35 35 34 34 34 34 34 34 34 34 35 33 31 30 28 25 19 16 15 16
28 26 29 34 36 37 36 35 35 35 35 35 35 35 36 36 35 36 35 33 31 31 32 33 33 32 29 25 22 22 20 17 15 14 13 13 13 13 13 13 14 13 12 12
32 32 33 34 35 36 36 35 35 35 36 36 35 35 36 35 35 35 34 31 26 26 24 21 19 19 19 19 17 14 13 14 13 13 13 13 13 13 13 14 13 11 10 9
32 34 34 35 36 36 36 35 35 35 35 36 36 34 35 36 36 34 32 28 25 24 23 19 17 16 17 16 16 15 14 12 12 12 11 11 10 8 9 9 10 9 10 10
32 33 34 35 37 38 37 37 37 35 34 34 36 34 33 33 32 30 28 25 24 22 20 18 16 15 15 16 15 13 12 13 15 16 17 19 19 20 24 23 23 22 20 16
36 37 38 39 38 38 35 35 35 34 34 33 33 32 30 27 27 29 26 24 22 21 20 16 15 15 16 16 15 14 14 14 16 13 13 14 14 14 14 14 19 20 19 18
34 35 35 36 35 34 34 35 35 33 33 33 33 28 26 24 26 25 24 24 22 19 17 16 15 15 16 16 16 15 16 18 11 10 8 7 6 5 5 3 1 3 11 16
32 33 33 33 34 34 35 33 31 31 30 29 29 27 24 23 24 23 24 22 20 18 17 16 15 15 16 16 17 17 15 13 10 9 8 7 6 6 5 4 4 6 8 10
31 31 32 32 32 32 33 32 30 31 30 28 27 25 23 23 23 24 23 21 19 18 18 15 16 16 17 18 15 14 14 16 14 10 7 5 6 5 5 5 5 7 7 8
29 28 27 29 31 31 32 33 33 32 30 28 27 26 24 23 23 21 21 22 22 20 18 17 17 18 18 16 14 16 17 16 13 5 4 5 7 7 6 6 6 7 8 10
30 31 31 32 33 33 33 34 34 33 30 29 26 24 23 23 22 21 21 23 22 20 19 18 18 18 16 15 16 15 14 10 6 5 5 8 8 6 6 7 8 8 9 10
30 31 34 34 34 35 33 34 36 35 31 28 26 25 24 23 22 21 21 21 20 19 17 18 23 20 17 17 16 12 9 6 5 4 5 11 6 6 7 7 8 10 11 10
29 31 33 33 35 36 34 32 31 30 28 26 25 24 23 24 22 20 19 20 19 17 17 19 22 17 16 19 17 8 6 5 4 4 6 7 5 6 8 9 10 10 11 11
28 29 30 30 31 33 35 32 28 29 28 27 25 25 24 23 21 19 18 18 17 20 18 24 18 16 18 19 12 6 5 4 3 4 4 5 5 6 7 8 10 11 11 11
28 28 28 28 27 27 32 34 30 25 26 26 27 25 24 22 21 20 20 20 17 24 22 21 17 18 19 20 7 6 4 3 3 4 5 6 6 7 8 11 11 12 12 12
27 27 27 26 26 26 28 30 33 31 29 29 29 27 27 25 24 24 19 17 18 24 22 18 20 23 24 9 7 5 4 3 3 4 6 7 8 8 12 12 11 12 12 12
26 27 27 26 26 25 24 24 25 30 32 32 31 31 29 26 26 26 19 22 23 25 20 20 23 25 24 8 6 5 4 3 4 6 7 11 11 12 11 10 10 11 11 12
24 25 24 23 24 24 24 24 23 23 26 29 29 30 29 29 29 25 26 26 25 25 20 24 26 26 13 7 5 4 4 5 6 9 9 10 11 10 10 10 10 11 12 13
22 24 24 23 22 22 23 25 22 22 21 21 23 27 28 29 28 27 27 27 28 27 21 23 23 20 12 6 4 4 4 6 11 12 12 11 10 10 10 11 11 11 12 13
16 20 20 18 19 20 21 25 24 22 22 20 19 20 26 27 27 25 27 28 28 24 20 23 24 18 10 7 5 5 7 8 12 11 11 10 10 10 10 11 11 12 12 13

GFSNGP_sfc_dewp_036.txt.gz
Dewpoint
26 27 30 29 28 28 29 26 26 20 21 21 24 28 30 34 38 38 36 35 35 34 35 37 37 38 38 38 37 36 36 36 38 39 40 40 39 39 38 37 37 36 36 35
30 28 29 29 28 28 28 27 26 25 25 26 27 29 30 35 37 37 34 34 34 34 35 35 35 36 37 37 36 36 35 35 36 37 37 37 37 37 37 37 37 37 37 37
26 26 27 26 28 28 28 29 27 26 26 28 29 30 32 37 37 35 34 34 34 34 34 36 36 37 37 37 36 36 36 35 36 36 36 36 36 36 37 37 38 38 38 38
29 27 22 26 30 30 28 28 29 28 29 30 30 31 36 37 36 34 34 34 34 34 35 36 36 37 37 37 36 36 36 35 35 36 35 35 35 35 35 35 36 36 36 37
28 24 23 23 28 29 30 32 30 29 29 30 32 37 38 37 35 35 35 35 35 35 35 34 33 37 36 37 36 36 36 35 35 35 35 35 34 34 34 34 33 33 34 34
27 23 20 25 35 33 33 31 35 32 32 33 36 34 37 37 35 36 36 36 36 35 36 34 35 35 36 36 36 35 35 35 36 36 35 33 33 33 34 33 33 33 32 32
27 23 24 28 36 37 32 32 35 36 36 37 36 36 38 37 36 37 36 36 36 37 36 36 37 36 35 35 34 36 36 36 36 35 35 34 34 34 34 34 33 32 32 32
28 26 22 31 35 32 35 36 36 37 36 36 36 36 37 37 36 37 36 36 36 37 36 37 37 36 35 34 34 34 35 34 34 34 34 34 33 33 32 28 24 20 19 19
27 25 28 34 36 37 36 35 36 36 36 36 36 36 37 37 37 36 36 35 35 36 35 35 35 35 32 29 29 27 27 24 22 19 17 15 14 15 14 14 14 13 13 13
31 31 32 33 35 36 36 36 36 36 36 36 36 36 37 38 37 36 36 34 34 33 34 32 30 30 30 27 26 19 15 14 14 13 12 12 13 13 13 13 12 10 9 8
32 34 35 35 36 36 36 37 37 38 36 36 36 37 37 38 37 37 36 33 31 32 31 29 26 26 25 22 16 15 14 13 13 12 9 8 10 10 8 9 10 7 9 9
31 34 33 34 37 39 39 37 35 36 37 36 36 37 37 37 38 37 35 32 29 31 28 25 25 24 19 16 16 13 12 13 14 15 17 19 20 20 24 23 23 21 19 17
34 36 38 39 38 38 35 34 34 35 36 36 35 36 36 36 37 36 33 30 29 27 26 22 20 18 16 16 15 14 14 14 15 15 15 15 16 14 14 18 21 20 19 18
36 35 34 36 36 34 34 34 36 35 34 34 35 34 33 33 33 33 32 29 27 24 21 19 17 16 16 16 15 15 15 17 12 11 9 7 5 4 4 2 -0 1 10 16
33 33 32 32 33 33 34 35 34 33 33 32 32 32 30 29 30 30 30 28 24 21 18 17 16 16 17 16 16 16 16 14 11 9 7 6 5 5 3 2 2 4 6 9
32 31 31 32 33 34 33 33 33 33 32 31 30 30 29 28 28 28 27 25 22 19 18 16 17 17 17 17 17 16 14 15 12 9 9 5 5 4 3 3 3 4 5 6
30 32 33 34 35 34 34 34 34 34 34 32 30 30 28 26 25 25 24 23 22 21 19 19 19 18 18 18 16 14 15 16 13 5 4 3 4 4 4 4 4 5 6 8
30 31 31 32 33 34 35 35 34 35 35 34 31 28 27 25 24 23 23 22 22 20 20 19 19 19 18 17 16 16 16 14 10 5 4 5 6 5 4 5 6 6 7 9
30 31 33 33 34 35 36 34 32 32 35 33 28 26 26 25 24 22 22 23 22 20 20 20 25 21 17 17 18 16 13 8 5 4 4 9 10 5 5 6 6 8 9 9
29 30 30 32 34 34 35 34 32 32 29 29 27 26 25 24 23 22 22 22 23 24 24 23 26 19 17 19 21 13 9 6 4 3 4 5 4 4 6 8 8 8 9 9
29 29 30 30 29 29 33 35 30 26 29 27 26 26 25 25 22 21 21 21 20 21 21 24 22 18 17 21 18 9 6 4 3 3 3 7 4 5 6 7 8 9 10 10
28 28 28 28 27 26 29 32 33 29 27 27 27 26 25 24 24 23 23 25 23 25 21 23 20 20 19 23 10 7 5 3 2 2 3 3 4 6 7 9 11 14 15 17
27 27 27 26 26 26 25 25 25 31 32 30 29 28 26 26 26 26 25 28 28 25 23 22 21 24 25 18 9 7 4 3 1 2 3 5 6 8 10 15 16 17 18 17
26 27 26 26 26 26 25 25 24 25 30 32 32 32 31 28 28 29 30 30 29 29 26 23 24 25 26 12 8 6 4 3 2 3 5 10 9 12 16 15 16 16 16 17
24 26 26 24 21 18 21 26 26 25 22 24 29 30 31 31 30 29 28 27 27 31 27 25 26 26 21 11 8 6 4 4 3 11 10 15 15 16 16 15 16 16 17 19
21 21 22 21 20 18 18 24 26 25 23 21 21 25 29 29 30 28 28 29 30 30 25 27 27 24 18 11 8 5 4 3 8 12 14 14 16 16 15 15 16 16 17 19
19 19 18 15 16 17 21 23 24 25 25 22 21 20 23 28 28 28 28 29 29 29 26 25 24 24 18 12 8 4 3 5 11 14 15 16 16 16 16 15 16 17 18 18

GFSNGP_sfc_dewp_039.txt.gz
Dewpoint
26 26 30 30 28 28 30 28 27 21 17 21 22 26 31 32 36 38 37 36 35 35 36 36 36 37 37 37 37 37 37 37 38 39 39 39 39 39 39 39 38 38 37 36
32 28 28 28 27 27 28 27 26 23 23 24 24 26 29 32 37 37 36 35 35 35 35 35 35 36 37 37 36 37 36 36 37 37 38 38 38 38 38 38 38 38 37 37
27 26 26 25 27 27 27 27 26 24 25 27 29 29 32 34 38 36 35 35 35 34 35 35 35 36 36 37 36 36 35 36 36 36 36 37 37 37 37 38 38 38 39 39
30 27 23 28 29 29 27 27 28 27 27 27 29 30 33 38 38 36 35 35 35 34 34 34 34 36 37 37 36 35 35 35 35 35 35 36 36 36 36 35 35 35 34 35
27 25 23 22 27 29 29 30 29 28 28 29 30 35 38 37 37 36 36 36 35 35 34 34 34 36 37 37 37 36 35 35 35 35 35 35 35 35 35 34 33 33 33 33
25 23 19 27 33 31 32 31 34 31 31 33 35 34 38 38 36 36 36 37 35 35 35 34 35 36 37 36 36 35 36 36 36 34 35 34 34 33 35 34 33 33 32 32
26 24 23 25 36 36 31 32 36 35 36 36 36 37 39 38 37 37 37 37 37 36 36 36 36 37 36 36 34 36 37 36 36 35 35 35 34 34 34 33 32 32 32 32
26 25 22 30 37 33 35 36 37 37 36 36 36 37 38 37 37 38 37 37 38 37 37 37 37 36 36 35 35 35 35 35 35 35 35 35 34 34 34 29 22 19 19 20
26 25 29 32 33 37 36 35 37 38 37 37 36 37 37 38 37 37 38 37 37 38 37 37 37 36 34 33 32 32 30 29 26 21 19 17 16 15 16 15 15 14 15 14
28 28 30 31 34 36 37 37 37 37 37 37 37 37 37 38 38 37 37 37 37 37 36 36 35 34 33 32 31 25 18 15 14 13 13 13 16 16 15 14 13 11 10 10
30 31 35 33 34 36 37 37 38 38 38 37 37 37 37 37 38 38 37 36 36 36 36 35 33 32 31 28 19 17 15 15 14 13 9 11 16 15 13 14 15 10 13 12
28 31 31 31 36 38 38 38 36 35 37 38 38 37 37 37 39 39 37 36 34 35 34 32 30 30 28 21 18 15 13 15 16 17 18 20 20 20 25 24 23 22 21 20
32 35 36 37 39 38 37 37 35 34 35 36 37 36 37 37 38 40 38 36 32 33 32 29 29 28 23 18 18 15 15 16 18 18 17 17 18 16 16 20 21 20 19 19
38 37 36 36 36 36 34 34 35 35 34 35 36 35 36 36 38 38 37 35 32 31 29 25 23 22 18 18 18 16 17 21 17 17 14 13 10 7 6 4 2 3 13 14
35 34 33 33 32 33 34 34 34 34 34 34 34 35 34 34 35 36 36 34 31 29 26 22 19 18 18 18 18 17 17 17 16 14 12 9 8 6 5 4 2 3 6 9
34 32 32 32 32 35 35 35 34 34 34 34 33 32 33 33 33 33 34 33 28 26 23 19 19 18 19 18 18 18 17 17 15 11 11 7 7 6 4 3 3 3 5 6
31 34 37 37 35 34 35 35 35 35 35 35 35 32 32 31 30 30 30 30 28 26 22 21 20 20 21 20 19 18 17 17 15 10 7 6 6 5 5 4 3 4 6 7
31 32 32 33 33 34 34 36 36 34 34 36 36 33 30 29 28 28 28 27 25 22 21 21 20 20 20 20 19 17 17 17 15 8 7 6 6 6 5 4 5 6 7 8
31 31 33 33 34 34 35 35 34 33 33 33 35 31 29 28 27 26 25 23 22 21 20 21 26 23 21 20 19 18 16 14 9 7 6 7 11 6 4 5 6 7 8 8
31 31 30 32 33 33 33 35 35 32 33 30 30 29 27 26 25 24 23 23 23 23 21 22 26 28 24 19 23 17 15 11 7 5 6 8 6 4 5 9 9 7 8 8
30 30 30 30 29 29 30 34 34 30 28 28 28 28 27 26 24 24 23 23 24 27 22 28 29 30 25 20 22 15 12 9 6 5 5 8 6 6 6 6 7 8 9 10
28 28 28 28 27 27 28 27 27 32 32 29 29 27 27 26 25 24 25 25 22 30 30 31 31 30 22 24 20 13 10 6 4 4 5 3 3 5 6 8 10 16 17 18
26 27 27 26 26 26 26 26 25 25 30 33 32 31 28 28 26 24 24 29 28 31 29 30 31 31 25 23 14 11 8 6 3 3 4 6 5 7 12 17 19 19 20 20
27 27 26 26 23 20 20 26 27 26 26 29 32 33 32 30 30 30 31 32 31 32 29 30 31 28 26 19 12 10 8 5 4 4 5 9 10 15 18 19 19 19 19 19
23 26 25 23 20 17 19 21 27 27 25 23 24 29 31 31 30 30 29 29 32 32 30 32 32 30 25 17 11 9 7 6 5 13 11 18 19 19 19 19 19 19 19 19
20 19 19 19 17 17 18 21 23 25 26 24 23 23 25 29 30 30 30 29 29 32 29 30 31 30 26 19 11 9 7 6 9 12 16 18 19 19 19 18 18 18 19 19
21 19 16 15 15 16 20 22 22 21 24 24 24 24 22 25 28 28 29 30 30 31 29 29 31 31 27 18 12 8 6 6 12 16 19 20 20 20 18 18 19 18 19 19

GFSNGP_sfc_dewp_042.txt.gz
Dewpoint
27 28 31 31 29 29 28 29 25 24 22 21 24 26 32 33 37 38 37 36 36 35 35 35 36 36 37 37 37 37 37 38 38 39 38 38 38 39 39 39 38 38 37 37
26 28 28 27 28 28 29 29 28 27 24 25 24 25 29 32 37 37 36 35 35 35 35 35 35 35 35 37 36 37 36 37 37 37 37 38 38 38 38 38 39 39 38 38
23 27 27 24 27 27 28 28 28 26 26 28 30 31 32 33 38 37 35 35 34 34 35 34 35 36 36 37 36 36 35 36 36 36 35 36 36 36 36 36 36 36 37 38
23 25 17 27 30 29 27 27 28 27 28 28 30 31 33 38 38 36 35 35 35 34 34 34 35 36 37 37 36 36 35 35 35 35 35 35 36 35 35 35 34 34 34 35
25 23 24 25 30 29 28 28 28 28 28 29 30 36 37 38 37 36 36 35 34 35 34 34 33 36 36 37 37 36 35 34 34 34 35 35 35 34 34 33 33 33 33 33
28 21 19 31 30 30 31 31 34 30 30 30 34 34 37 37 37 36 36 35 35 35 34 34 35 37 36 36 36 35 35 35 35 36 35 34 34 33 34 32 32 32 32 32
28 25 23 30 32 35 31 32 35 33 34 36 36 38 39 38 37 37 38 36 36 36 35 35 37 37 36 36 34 36 36 36 35 35 35 34 34 33 33 31 29 23 28 31
27 26 21 36 37 34 35 38 37 37 37 36 38 38 38 37 38 38 38 37 37 37 36 36 38 37 36 35 36 35 35 35 35 35 35 34 33 32 27 27 21 19 19 19
26 27 30 32 35 36 36 36 38 37 37 37 37 37 38 38 38 37 37 37 38 38 37 36 37 36 35 34 34 32 31 30 29 27 27 27 21 17 16 15 15 14 14 14
27 28 30 31 36 36 37 37 37 38 37 38 38 38 38 38 38 38 38 37 37 38 37 36 36 35 34 32 31 31 19 15 14 14 14 14 15 14 14 13 12 10 9 10
29 31 35 34 33 37 37 37 38 38 38 37 37 37 38 38 38 38 38 37 37 37 36 36 35 34 32 32 27 17 15 15 15 14 11 17 23 24 16 18 19 11 15 13
28 31 31 32 34 37 37 38 36 35 36 37 38 38 38 38 39 38 37 37 37 37 37 36 33 33 31 25 18 16 14 15 15 16 18 20 21 21 24 24 22 22 21 19
32 37 37 38 39 38 37 36 35 35 35 35 36 37 37 37 38 40 38 37 35 36 35 33 31 30 28 20 19 15 15 16 17 18 18 18 17 17 18 21 21 20 19 18
37 38 37 36 37 35 34 34 35 34 35 35 35 36 36 37 38 39 38 37 34 34 33 30 30 28 22 20 18 16 17 24 17 17 15 14 11 7 6 4 3 4 15 13
35 34 33 33 32 33 34 35 34 34 34 34 35 35 35 35 36 38 39 37 33 32 31 28 25 23 20 20 18 17 17 17 16 14 11 10 8 6 5 4 3 4 6 9
34 33 32 32 34 35 35 35 34 35 35 35 34 33 33 34 34 35 36 35 31 31 29 24 23 20 20 19 19 18 18 21 18 12 12 7 7 6 5 4 4 4 5 6
32 32 30 30 33 33 34 35 35 36 35 34 35 35 32 32 32 32 33 33 31 29 26 23 22 21 21 21 20 19 18 18 19 11 10 7 7 6 6 4 4 5 6 7
32 33 33 33 33 33 34 36 36 35 34 33 33 36 32 30 29 30 31 30 28 26 24 23 22 21 21 22 22 19 18 18 16 10 8 7 7 7 6 5 5 6 7 8
32 33 33 33 34 34 34 35 35 34 33 33 30 33 32 30 29 28 28 27 25 23 22 22 27 24 21 23 22 19 18 17 14 9 8 9 10 8 6 5 6 7 8 8
31 31 32 32 32 30 30 33 35 34 33 31 30 29 28 28 26 25 25 24 24 24 22 22 25 22 22 26 28 19 17 15 11 7 8 7 10 8 5 8 9 9 8 8
30 30 30 30 29 29 29 29 29 33 32 29 28 28 27 27 26 25 24 24 24 25 22 27 24 27 28 30 30 18 16 12 8 7 7 9 6 7 6 7 7 7 8 10
29 28 28 27 27 27 27 27 26 26 30 32 32 30 28 27 26 25 24 25 25 29 26 27 28 31 30 32 28 16 14 10 7 6 7 6 7 5 6 8 9 15 16 16
27 27 26 26 26 26 26 27 27 26 26 28 30 32 31 30 28 26 25 28 27 31 30 30 32 34 34 31 25 14 11 8 5 5 6 7 4 6 9 12 15 18 15 15
27 28 29 25 21 17 16 19 24 27 26 25 27 28 30 30 30 30 31 32 33 32 30 31 33 35 34 28 25 12 10 8 6 5 6 10 9 12 14 15 16 17 15 17
25 27 26 23 20 18 19 21 23 24 26 25 24 24 27 27 29 30 30 29 31 32 29 33 34 34 31 27 24 12 10 8 7 13 11 16 17 17 17 18 17 15 14 15
21 20 19 19 17 17 18 21 22 23 24 24 24 24 22 25 26 27 29 30 30 31 26 28 31 31 29 26 21 11 9 8 12 13 17 19 20 19 19 18 16 15 13 13
22 20 17 16 16 16 18 22 22 21 22 23 24 25 24 22 24 27 28 29 29 29 28 28 29 31 28 27 23 13 9 9 15 17 19 19 18 17 18 17 16 15 15 15

GFSNGP_sfc_dewp_045.txt.gz
Dewpoint
27 30 31 30 29 30 31 28 27 25 19 21 23 25 28 35 38 38 36 36 36 35 35 35 35 36 37 37 37 37 37 37 38 38 38 38 38 38 38 39 38 38 38 38
22 27 29 27 29 29 30 28 27 28 27 25 24 27 31 35 37 37 36 35 35 35 35 35 35 35 36 37 36 37 36 37 37 37 36 37 37 37 38 38 38 38 38 38
19 27 27 22 27 27 28 30 29 27 27 28 29 28 33 36 37 37 36 35 34 34 34 34 35 36 37 37 37 37 36 36 35 36 36 36 36 36 36 36 36 35 36 37
21 24 16 22 29 29 27 28 29 29 29 28 29 32 33 35 38 36 35 35 34 34 34 34 36 37 37 37 36 35 35 35 35 36 36 36 36 36 35 35 34 34 34 35
21 23 22 26 30 29 27 27 29 28 28 28 32 34 35 38 37 36 36 35 34 34 33 34 35 37 37 36 36 36 35 35 35 36 35 35 35 34 34 33 32 32 33 33
28 21 20 29 29 30 32 29 33 29 29 29 33 28 32 37 37 36 35 35 34 34 34 34 36 37 36 36 35 35 35 35 36 36 35 34 34 33 33 33 32 32 31 26
27 25 24 26 32 33 30 29 35 32 30 30 33 34 38 37 37 37 36 35 35 34 34 35 36 36 36 36 34 36 36 35 35 35 34 34 33 33 32 26 23 27 29 30
27 25 20 34 36 32 35 37 37 37 37 37 39 38 37 37 37 37 36 36 36 35 36 37 37 36 35 35 36 36 36 36 35 34 34 33 32 30 26 24 20 20 20 19
26 25 28 36 35 36 37 37 37 36 37 37 38 38 38 38 37 37 37 36 37 36 36 36 37 36 35 35 35 34 33 32 32 32 32 31 29 27 20 17 15 14 15 13
27 28 29 31 36 36 38 38 38 38 37 37 37 38 38 39 38 37 37 37 38 37 36 35 36 36 35 34 34 32 30 24 15 14 14 14 14 15 14 13 12 10 9 10
28 30 33 33 34 36 37 37 37 37 37 37 38 38 39 39 39 38 38 38 38 37 37 36 36 35 34 33 32 30 17 14 15 15 13 21 23 15 16 18 16 11 15 13
28 30 30 31 34 37 37 38 38 36 36 37 38 38 38 38 39 39 39 38 37 38 37 37 36 35 33 33 29 18 15 16 15 14 14 20 22 21 24 24 22 22 23 19
31 35 35 38 37 38 38 36 35 35 35 35 35 36 38 38 38 40 38 38 37 38 37 37 36 34 33 31 21 17 16 15 17 18 19 19 20 20 18 21 22 21 19 17
38 37 36 37 36 34 34 34 35 34 35 35 35 35 36 37 37 39 38 38 37 37 36 36 34 32 31 24 20 17 16 23 18 18 18 18 16 11 7 5 3 3 14 15
34 34 36 34 33 34 35 35 35 34 34 35 34 34 35 35 36 37 39 37 35 35 34 32 31 30 26 22 20 18 17 22 18 17 16 15 9 7 6 4 4 4 6 8
36 33 33 33 34 35 34 34 33 34 35 34 34 34 34 33 34 35 37 36 34 33 32 30 30 28 24 21 20 19 18 22 20 14 12 9 7 6 5 4 4 4 5 5
33 31 31 30 33 32 32 34 34 35 34 33 33 34 35 33 32 32 33 36 35 33 32 29 28 25 25 24 20 19 20 22 23 13 12 9 7 7 6 5 4 4 5 7
33 33 33 34 33 33 34 35 35 35 33 33 32 32 33 32 31 30 30 33 32 30 29 27 25 23 22 22 21 22 20 19 20 13 12 9 8 7 7 6 5 5 7 7
33 34 34 34 34 34 34 34 35 35 33 33 31 30 30 30 29 29 28 29 29 28 27 25 28 26 22 23 23 21 19 18 18 12 10 12 11 8 7 6 5 6 7 8
33 32 32 31 30 30 30 31 31 33 31 29 29 28 28 28 28 26 25 26 27 26 24 23 27 24 23 25 26 20 19 18 17 12 10 9 9 10 9 9 6 7 8 8
33 31 30 30 29 29 28 27 26 26 31 32 31 30 28 27 26 25 24 24 25 25 25 26 25 23 22 25 27 28 26 21 14 11 9 11 8 10 6 5 6 7 7 8
30 31 28 27 26 26 27 27 26 25 26 27 29 32 31 30 28 26 25 25 26 28 25 26 25 27 27 31 31 28 27 26 16 10 9 8 9 7 7 7 8 13 13 15
27 27 26 25 23 22 22 21 25 27 25 24 26 28 29 31 31 28 28 29 27 28 27 28 28 30 32 32 29 27 26 24 11 8 8 8 6 7 9 14 15 16 16 17
29 29 28 28 23 16 15 18 22 26 26 26 25 25 27 28 28 29 30 31 32 33 31 30 32 34 35 30 28 26 25 23 10 8 8 12 9 12 16 15 17 17 18 19
29 29 29 25 22 19 18 20 21 22 24 25 25 24 23 24 27 28 29 30 30 31 31 32 34 35 33 28 27 26 25 23 10 14 12 17 18 17 17 17 17 18 18 17
24 21 19 18 16 16 17 21 21 21 22 22 23 25 25 24 24 27 27 29 29 30 29 28 31 32 28 27 26 25 24 19 14 16 17 18 19 19 19 18 18 18 17 16
24 22 18 15 15 15 16 21 21 20 22 21 21 24 24 22 22 24 27 26 25 26 28 28 29 31 27 26 25 24 23 14 16 17 19 19 19 19 18 18 17 17 16 16

GFSNGP_sfc_dewp_048.txt.gz
Dewpoint
26 29 29 29 30 33 33 31 28 27 24 22 24 25 27 31 37 38 37 36 36 36 36 35 35 36 36 37 37 38 37 38 38 38 38 38 38 38 38 38 38 38 37 37
20 26 29 27 28 32 33 33 31 27 27 27 24 25 28 34 38 37 36 36 36 35 35 35 35 35 37 37 36 37 36 37 37 37 37 37 37 37 37 37 37 37 37 36
17 26 25 21 26 27 30 31 32 27 28 28 26 26 32 36 38 37 36 35 35 35 35 35 35 36 37 37 37 36 36 36 36 36 36 37 37 37 36 36 36 36 36 37
19 22 14 22 28 28 26 28 30 29 29 29 29 30 33 36 37 37 36 35 35 34 34 35 36 37 37 37 36 35 35 35 36 36 36 36 36 35 35 34 34 34 34 35
20 19 22 24 29 28 26 26 27 29 30 29 29 33 33 35 38 37 36 35 35 34 34 35 36 37 37 36 36 35 35 35 35 36 36 35 34 34 33 32 32 33 33 33
27 21 19 24 31 31 31 28 33 29 30 29 33 29 31 38 37 36 35 35 34 33 34 34 36 37 36 36 35 35 35 35 36 36 35 34 33 33 33 32 32 29 24 21
25 24 24 26 28 33 26 26 35 31 30 30 31 30 34 37 36 36 35 34 34 34 33 35 36 36 35 36 35 36 35 36 36 35 34 33 33 32 29 28 29 29 29 30
27 25 19 29 34 30 32 36 37 36 33 33 37 38 37 37 36 36 35 35 34 34 35 36 36 35 35 34 36 36 36 35 35 33 33 32 31 30 26 22 21 22 22 19
26 26 26 29 33 36 37 37 37 37 38 39 38 37 37 37 37 36 35 35 35 35 35 36 36 35 34 35 35 35 34 34 32 31 32 30 27 26 26 23 17 16 16 13
27 27 28 30 34 37 37 38 38 37 37 38 37 38 38 39 38 37 36 36 36 36 35 36 36 36 34 34 34 33 31 30 29 28 26 24 20 17 16 15 13 11 9 10
28 29 31 31 32 36 37 38 38 37 37 38 38 38 39 39 39 39 38 38 37 36 36 36 36 36 34 34 34 31 29 25 16 15 16 14 15 12 13 15 12 10 12 12
28 30 29 29 32 36 37 37 37 38 37 37 37 37 38 39 40 40 39 39 38 37 37 37 36 36 35 34 33 31 24 16 16 16 14 20 23 23 24 24 23 22 23 18
34 35 35 35 37 37 37 37 36 35 35 34 35 36 36 37 38 40 39 39 38 38 38 37 37 36 35 34 32 29 22 16 17 17 14 19 20 19 19 21 24 23 22 20
36 37 37 37 36 36 35 35 36 34 34 34 34 34 35 36 36 37 39 39 38 38 38 37 37 36 35 34 31 25 19 23 17 19 18 19 20 19 17 10 7 4 14 21
30 37 36 35 34 34 35 35 34 34 34 35 35 34 34 34 34 35 37 38 37 37 37 37 36 35 34 32 27 23 18 20 20 19 19 19 17 13 8 6 4 3 5 9
35 36 36 35 35 35 34 34 33 33 34 33 33 33 34 34 33 34 35 36 34 35 34 34 34 34 31 28 25 22 18 23 23 18 17 17 11 8 6 5 4 4 4 5
33 34 34 33 34 33 33 34 34 34 34 33 32 32 31 33 33 32 32 34 35 35 35 34 33 30 29 28 26 25 22 24 26 17 14 12 9 8 7 6 4 4 4 6
37 35 34 34 34 34 35 35 35 35 34 34 33 31 30 31 31 31 31 30 32 32 32 33 31 28 27 27 27 26 24 22 24 17 14 12 9 8 7 6 6 5 5 7
34 34 34 34 35 35 34 34 34 34 32 31 30 29 29 29 28 28 27 28 29 29 30 29 30 29 26 26 26 23 21 20 21 15 13 14 13 8 7 7 6 5 6 6
35 35 33 30 30 30 30 27 30 31 31 31 30 30 29 28 27 27 26 25 27 29 27 27 29 27 25 26 29 22 21 20 22 25 17 11 11 10 8 10 7 5 6 7
33 33 33 29 28 28 27 26 25 25 28 30 31 32 32 31 28 26 25 24 26 26 26 27 27 26 24 26 28 22 27 28 28 26 24 18 10 10 10 9 6 6 7 7
33 32 31 29 26 27 27 27 26 25 24 24 26 27 29 30 31 30 28 25 26 28 27 25 26 26 24 27 27 29 29 28 27 26 25 21 11 9 9 8 7 13 12 14
31 31 30 27 24 19 19 19 25 26 25 24 23 25 26 26 28 29 29 30 31 31 30 28 27 28 30 30 30 29 28 28 27 26 25 18 9 9 11 15 16 16 16 17
31 31 30 29 28 16 13 18 22 25 25 25 24 22 23 25 23 27 27 30 31 31 32 31 31 32 31 31 29 28 28 27 26 25 25 24 11 13 17 17 17 18 18 17
30 29 28 28 25 23 20 20 20 20 23 22 24 25 24 23 26 24 27 28 30 30 30 32 33 33 32 30 29 28 27 26 25 24 23 18 19 18 18 17 16 16 17 17
28 25 23 23 19 16 16 19 21 20 22 20 21 24 24 23 22 23 24 27 27 29 29 27 29 31 29 28 27 26 25 25 26 26 22 18 19 19 17 17 17 17 18 18
28 29 23 17 16 16 16 18 21 19 21 20 20 22 22 22 21 22 25 23 26 26 28 27 26 30 28 27 25 24 24 24 24 19 20 19 19 19 18 18 17 17 16 15

GFSNGP_sfc_dewp_051.txt.gz
Dewpoint
26 27 29 29 31 33 34 34 29 28 26 26 23 23 24 29 34 38 38 37 36 37 37 37 36 37 36 37 37 38 38 37 37 38 38 38 37 38 38 37 37 36 36 36
21 25 29 28 29 32 32 33 33 32 30 29 27 25 26 29 35 38 38 37 36 36 36 35 35 35 36 37 36 37 37 37 37 37 37 37 37 37 37 36 37 37 37 35
16 25 24 21 25 26 30 33 33 31 32 28 29 27 28 30 36 37 38 37 36 35 35 35 35 35 36 37 37 37 36 36 36 36 37 37 37 36 35 35 36 36 36 37
16 21 12 21 25 27 27 27 33 33 31 30 29 29 29 32 35 37 38 36 35 35 35 35 36 37 37 37 36 36 36 36 36 36 36 37 36 35 34 34 34 34 34 34
18 17 20 20 28 28 26 26 28 29 31 30 30 32 31 34 37 38 37 36 35 35 35 35 36 36 36 36 36 36 35 35 36 36 36 36 34 33 33 33 33 33 32 29
24 19 17 21 32 31 30 26 32 30 28 30 31 28 29 36 37 36 36 35 35 34 34 35 36 36 36 36 36 35 35 36 36 37 36 34 33 33 33 32 31 27 23 20
27 25 25 25 26 32 24 23 35 35 31 30 30 30 32 37 36 36 35 34 34 34 34 35 36 36 36 36 35 36 36 36 36 35 34 33 33 32 31 29 29 27 25 22
27 27 20 27 33 28 30 35 36 36 32 31 33 37 36 36 35 35 35 35 34 34 34 35 36 36 35 35 36 35 36 35 35 34 33 32 31 29 25 23 23 23 22 20
27 26 27 27 33 35 37 37 36 36 37 35 37 37 37 36 35 35 35 35 34 34 35 35 36 35 35 34 35 35 35 34 32 32 32 31 28 26 24 22 18 18 17 15
27 27 28 28 30 36 37 37 38 37 39 38 37 37 37 37 37 36 35 35 35 35 35 35 35 35 34 35 35 35 34 32 31 30 30 28 28 26 23 19 15 13 11 10
27 28 29 30 32 32 36 38 38 37 37 37 38 38 39 39 39 38 38 38 36 35 35 35 36 35 34 34 34 32 31 30 29 28 29 20 17 16 15 13 13 11 11 10
28 33 32 32 32 34 35 37 37 37 36 36 37 38 38 39 39 39 39 39 38 38 38 37 36 36 35 34 34 31 30 29 23 17 18 16 19 21 22 22 27 25 20 17
31 35 31 32 36 36 36 37 37 37 37 35 34 36 35 36 37 40 39 39 39 38 38 38 37 36 36 35 34 32 31 24 19 19 15 18 21 21 20 22 26 25 24 24
19 25 25 35 36 37 37 36 37 34 34 34 34 34 34 34 34 36 37 38 38 38 38 38 37 37 37 35 34 33 31 30 18 20 15 17 19 19 19 17 16 14 20 24
23 30 34 36 36 35 35 34 34 34 34 34 34 34 34 33 33 34 35 36 37 37 37 37 37 37 38 36 34 33 30 27 23 19 18 18 19 19 18 14 8 4 4 8
33 33 34 36 36 37 35 34 33 33 34 33 32 32 32 32 34 34 33 34 34 34 35 36 36 37 37 35 34 32 29 28 25 19 19 20 19 16 12 8 5 4 4 4
32 33 34 33 35 35 35 35 34 34 33 32 32 32 30 31 32 32 33 32 34 34 34 33 35 34 33 33 32 31 28 27 28 20 18 19 17 13 10 7 5 5 4 5
37 36 34 35 35 35 35 35 35 34 33 33 32 31 29 29 29 29 29 29 30 31 32 32 32 32 31 30 30 29 28 28 29 24 22 17 14 12 9 7 6 5 5 5
36 34 34 33 33 35 34 34 34 33 31 30 30 29 29 28 27 27 27 26 27 28 30 30 32 32 29 29 29 28 28 28 29 29 26 25 21 11 9 7 7 6 6 4
35 35 34 33 31 29 27 26 28 28 31 31 31 31 31 31 28 26 26 25 25 26 27 26 29 29 27 27 31 26 25 26 30 29 22 23 26 17 10 11 7 6 5 5
32 32 33 31 29 28 28 27 25 25 25 27 29 29 30 31 31 29 27 26 25 27 29 29 26 27 26 27 30 25 27 29 29 28 28 29 25 22 14 10 8 9 6 6
32 31 31 30 28 26 24 23 27 25 24 24 25 26 26 25 27 29 29 28 29 32 30 27 26 27 26 28 28 24 27 29 29 29 28 27 26 25 23 12 9 13 12 14
32 32 31 30 28 27 21 19 24 26 25 24 23 24 24 25 26 27 27 28 29 31 31 31 31 30 29 29 28 30 29 29 28 27 27 27 27 26 25 21 17 17 18 18
30 31 30 30 29 28 20 16 21 24 24 25 25 23 22 22 21 25 25 28 29 29 30 31 32 32 32 31 29 28 29 29 28 28 27 28 26 25 23 18 18 20 19 17
30 30 28 27 27 25 25 22 21 21 21 21 22 24 23 22 22 23 24 26 27 28 28 30 31 32 32 31 30 28 27 27 27 27 26 26 25 24 19 19 18 17 17 16
29 29 29 24 25 21 16 20 21 20 21 19 19 22 22 22 22 22 22 26 25 26 26 28 25 29 30 29 28 28 26 25 27 27 26 25 24 21 19 18 17 16 17 17
29 31 28 27 21 16 16 17 21 21 20 20 19 21 20 21 21 22 23 21 23 24 25 27 25 26 28 25 27 26 24 24 25 24 24 22 20 19 18 17 17 17 16 16

GFSNGP_sfc_dewp_054.txt.gz
Dewpoint
26 26 30 31 31 34 34 32 29 27 27 28 28 27 23 26 32 37 38 38 37 37 38 37 36 37 37 37 37 37 38 37 37 37 37 37 38 38 37 37 36 36 36 37
24 26 29 28 29 31 32 33 34 33 33 34 30 27 24 26 32 36 37 38 37 37 37 36 35 36 36 36 37 38 38 38 38 37 38 37 37 37 37 36 37 37 37 36
16 25 24 22 25 28 30 33 31 29 30 33 33 32 30 27 29 35 37 38 37 37 37 36 35 35 36 36 37 37 37 37 37 37 37 37 36 36 35 36 36 36 37 36
15 20 9 17 24 26 27 27 32 33 33 33 33 33 31 29 30 34 37 38 37 36 36 35 35 36 36 36 36 36 36 36 37 37 37 37 36 35 34 35 35 34 33 30
17 16 19 18 28 27 26 25 28 28 30 32 32 31 30 31 33 34 37 38 37 36 35 35 35 36 36 36 36 36 35 36 36 37 36 36 34 34 34 33 33 32 30 25
24 16 15 18 30 30 29 25 31 32 31 30 30 29 30 33 36 37 37 36 35 35 35 35 35 36 35 35 36 35 35 36 37 37 36 34 34 33 33 33 32 28 24 22
25 25 25 26 27 30 23 21 33 35 35 32 30 30 31 36 36 36 35 35 34 35 35 35 36 36 35 35 35 36 36 36 37 36 35 33 33 33 32 29 24 20 21 20
25 25 19 27 31 28 28 34 36 36 36 31 32 34 35 36 35 35 34 35 34 34 35 36 36 36 35 35 36 36 36 36 35 34 34 32 32 30 29 27 26 26 23 21
26 25 27 28 33 33 36 36 36 36 37 33 36 36 36 36 35 35 34 34 34 34 34 35 36 36 35 35 35 35 35 34 34 33 32 31 29 27 25 23 22 21 19 16
26 27 28 29 30 31 34 35 37 37 38 37 36 37 37 36 36 35 35 34 34 34 34 35 35 35 35 35 35 34 34 33 32 32 31 30 27 25 25 23 19 15 14 13
28 28 32 30 32 32 29 35 36 37 37 37 38 37 37 37 37 36 36 36 35 35 35 35 35 35 34 35 35 33 33 32 31 32 32 28 27 25 24 19 17 13 12 10
26 33 30 29 26 22 35 36 36 37 36 36 37 38 39 39 39 39 38 38 37 37 38 37 36 36 35 34 34 33 31 30 30 29 27 25 20 16 23 23 23 24 22 15
21 22 23 23 25 27 35 34 37 37 37 36 35 37 37 37 37 39 38 38 38 38 38 38 38 38 37 35 34 33 32 31 30 28 20 18 18 19 18 22 28 27 26 26
30 23 23 23 25 33 35 35 37 34 34 34 34 34 34 34 34 35 36 38 38 38 38 38 38 38 38 36 35 33 33 34 29 26 18 17 18 20 20 18 17 20 25 27
29 27 29 32 33 33 36 35 34 34 33 33 34 33 33 33 33 33 34 34 35 36 36 37 37 37 37 36 35 34 33 32 29 23 20 17 17 18 18 18 16 13 5 9
35 36 35 34 35 35 35 36 36 34 34 33 32 32 31 31 31 32 33 33 33 33 34 35 35 37 37 37 35 35 34 34 32 24 21 20 18 17 18 17 15 10 6 4
32 32 34 32 33 34 35 36 36 35 34 33 32 31 30 30 31 31 31 31 31 32 33 33 33 33 34 36 35 35 34 33 34 28 24 21 19 18 17 15 13 9 6 5
36 35 34 34 32 34 35 35 35 35 33 32 31 30 29 29 28 28 28 27 28 28 29 31 32 32 33 33 33 34 32 30 32 29 26 22 21 18 15 13 11 8 6 5
34 35 34 34 33 33 33 32 33 34 32 32 31 30 30 29 27 26 26 26 26 27 28 26 31 32 30 31 32 31 30 29 30 30 26 27 29 27 26 19 11 8 7 4
32 33 34 34 32 30 28 26 26 26 28 30 31 32 32 32 31 29 28 26 25 26 28 27 27 28 28 29 32 29 29 29 29 30 29 30 30 28 26 26 15 8 7 5
31 31 31 31 30 29 26 27 27 26 25 26 26 26 27 29 29 30 29 27 27 30 31 29 27 27 27 27 29 27 26 27 29 30 28 29 28 28 27 25 22 17 8 6
30 31 29 29 29 27 26 25 28 27 26 24 24 25 25 25 25 27 29 29 29 30 31 29 28 29 29 29 28 27 26 29 30 29 28 29 28 28 27 26 25 24 19 15
28 31 31 30 29 28 27 22 24 24 25 25 25 24 24 24 24 27 24 25 27 28 29 30 32 32 32 29 28 27 28 28 28 29 29 28 29 28 27 26 25 25 24 20
27 30 31 31 30 28 27 26 25 24 24 25 25 25 24 23 22 25 23 27 27 28 28 29 30 33 33 28 25 28 29 28 27 27 28 29 28 27 27 26 26 25 21 19
28 29 30 29 28 27 28 25 22 24 22 21 21 23 24 24 23 22 22 24 26 27 28 28 30 31 30 31 30 29 28 27 25 26 26 27 27 26 26 25 24 21 20 19
28 29 30 30 29 27 26 23 21 22 20 20 19 21 22 22 22 22 22 24 24 25 26 27 28 28 29 29 29 29 28 27 26 26 25 25 25 26 25 23 19 18 19 17
26 30 30 29 29 27 20 18 20 21 23 21 19 19 20 20 21 21 23 21 21 23 23 25 26 26 27 27 27 27 26 24 25 22 23 22 22 21 22 19 18 18 17 16

GFSNGP_sfc_dewp_057.txt.gz
Dewpoint
26 27 32 31 31 33 32 30 29 27 27 28 30 30 30 26 28 34 37 38 39 39 39 38 38 38 38 37 37 38 38 38 37 38 38 38 38 38 37 37 37 36 36 37
22 26 29 28 29 31 31 31 31 31 30 33 34 34 33 29 26 33 36 38 38 39 38 38 38 37 37 37 37 38 38 38 38 38 38 38 38 37 37 37 37 37 36 36
19 24 23 20 25 28 30 32 32 30 31 32 32 33 35 35 33 28 34 37 38 38 38 38 37 37 37 37 37 38 38 38 37 37 37 38 37 36 36 37 37 37 36 35
17 20 13 20 24 27 28 28 31 32 32 32 33 34 34 34 31 29 31 37 38 38 38 37 36 36 37 37 37 37 37 37 37 37 37 37 36 36 36 36 35 34 33 33
19 18 19 20 28 26 25 26 27 27 29 30 31 32 32 33 32 30 31 36 38 38 37 36 36 36 37 36 37 36 36 36 37 37 37 36 35 35 35 35 34 32 30 30
24 18 15 16 29 30 29 25 30 30 32 34 32 29 31 33 33 33 35 38 37 36 36 35 36 36 36 36 36 36 36 37 37 37 36 35 34 34 34 33 33 30 29 27
24 22 23 25 27 29 23 22 31 35 36 35 31 31 32 35 36 36 36 36 35 36 36 36 36 36 36 35 36 36 36 37 37 37 36 34 34 33 33 32 29 28 28 25
26 24 19 27 30 28 29 34 35 36 36 36 34 33 35 36 35 35 35 35 35 35 35 36 36 36 36 35 36 36 36 36 36 35 35 33 33 32 31 29 27 26 25 23
26 25 26 28 29 31 33 31 34 35 36 37 35 35 36 36 35 35 35 34 34 35 35 36 36 36 36 36 36 35 35 35 34 34 33 32 30 29 28 26 25 24 22 18
27 28 29 31 31 31 25 23 30 36 36 38 36 36 36 36 36 35 35 34 34 34 34 35 36 36 35 35 35 35 35 34 33 32 31 30 29 28 26 24 21 18 17 16
27 29 28 30 23 22 22 23 33 35 34 36 37 37 37 37 37 36 36 35 35 34 34 34 35 35 35 35 35 34 34 33 32 32 32 30 29 26 25 24 21 17 16 13
24 25 28 24 25 25 24 24 34 32 31 36 37 38 38 38 38 37 37 37 37 37 37 37 36 36 36 36 35 34 33 33 32 32 32 31 28 26 30 29 27 27 23 16
24 26 29 29 27 24 24 31 32 34 33 36 36 37 38 38 39 40 38 38 38 37 38 38 38 37 37 36 36 34 33 32 32 32 31 30 26 23 21 20 27 27 28 28
31 31 29 27 31 33 33 34 35 35 35 35 35 34 34 34 34 36 37 38 38 38 38 38 38 38 38 37 36 35 34 34 32 32 29 27 23 20 18 17 18 24 28 27
31 33 33 36 35 34 34 33 33 34 34 34 34 34 34 33 33 34 34 34 34 36 37 37 38 38 39 38 36 35 34 33 33 31 29 26 21 19 18 18 17 16 13 16
33 34 33 33 34 33 34 34 34 36 35 35 34 33 33 32 32 32 33 33 33 33 34 35 36 37 37 37 36 35 34 34 34 30 28 26 20 18 17 18 17 17 15 11
30 30 31 32 31 30 32 35 36 36 36 35 34 33 31 31 31 30 29 29 29 30 31 33 33 34 35 36 36 35 35 35 36 31 28 26 23 19 17 17 17 16 15 12
33 33 33 34 32 31 33 34 34 33 33 33 33 33 29 28 27 27 27 27 27 28 28 27 29 32 33 34 35 35 35 34 35 34 30 28 26 25 23 22 17 15 13 10
31 32 32 32 33 31 31 30 30 32 32 33 33 33 33 30 29 29 27 26 26 26 27 27 30 31 31 32 34 33 33 32 32 33 31 30 29 26 24 25 23 26 24 11
31 30 31 31 32 31 29 25 27 27 26 27 29 30 30 30 31 31 29 25 28 29 31 29 28 28 28 29 33 31 31 30 30 31 29 29 30 30 29 29 28 27 26 24
29 29 30 30 29 30 29 26 26 27 26 25 25 25 25 26 26 28 29 28 29 29 31 31 30 28 28 29 29 29 28 29 29 30 30 32 30 31 29 28 28 27 25 25
26 27 27 29 30 29 29 27 25 27 27 26 25 24 24 24 24 27 29 27 27 29 29 30 30 32 31 31 28 28 28 28 29 30 30 29 29 29 28 28 27 27 26 26
27 27 30 29 30 29 29 28 25 25 25 26 27 26 25 24 24 26 23 25 27 28 29 29 30 31 31 29 27 25 26 27 28 29 29 29 29 29 29 28 28 27 26 26
26 29 29 31 29 29 28 28 27 27 26 26 26 26 25 24 24 26 24 25 27 27 27 29 29 31 32 31 29 28 25 27 29 28 28 29 28 28 28 28 28 27 27 28
23 24 27 29 28 28 28 28 26 25 25 25 25 23 25 25 24 23 24 24 26 26 26 28 29 29 29 30 30 30 29 29 28 27 26 26 26 26 26 26 26 27 26 25
21 23 25 27 29 29 29 27 25 25 24 24 23 21 22 21 22 23 22 24 24 25 25 26 27 27 27 28 28 28 28 27 27 27 26 25 25 25 25 25 25 26 25 22
19 25 24 27 27 28 27 27 25 23 24 24 24 24 22 19 20 21 22 21 21 22 23 23 24 26 26 27 27 26 25 24 25 24 23 24 24 24 23 24 24 21 19 18

GFSNGP_sfc_dewp_060.txt.gz
Dewpoint
26 30 32 31 30 30 33 30 28 26 26 26 28 30 32 32 32 31 31 37 40 41 41 41 41 41 40 40 39 39 39 39 39 39 39 39 39 39 38 38 38 38 37 38
28 27 28 28 29 30 31 30 29 29 28 31 31 32 31 31 31 32 32 33 37 40 41 41 40 41 40 40 39 39 38 38 39 39 39 39 39 38 38 38 37 37 37 37
27 25 24 23 24 26 28 31 30 28 29 30 31 31 33 33 33 32 33 34 34 37 40 41 40 40 40 40 39 38 38 38 38 38 38 39 38 37 37 38 38 37 37 37
28 24 19 20 23 26 26 26 28 30 30 30 32 34 34 34 33 34 33 34 34 36 39 40 40 40 40 40 38 38 38 38 38 38 38 38 37 37 37 37 37 36 36 37
26 22 21 25 28 27 26 28 29 30 33 35 36 36 33 33 33 33 34 34 33 35 38 40 39 40 39 39 38 38 37 38 38 38 38 37 36 36 36 36 35 35 34 34
25 21 16 22 29 30 29 25 32 33 33 35 36 32 31 34 34 35 35 34 36 38 38 39 38 38 38 38 38 37 37 38 38 38 37 37 36 35 36 35 34 33 34 34
25 23 21 25 28 30 25 27 31 33 34 35 35 36 37 34 36 37 37 37 37 38 38 39 38 38 38 38 38 38 37 38 38 38 37 36 35 35 35 34 33 33 33 32
25 24 21 29 31 27 30 27 27 26 30 33 35 37 37 36 36 37 37 37 37 38 38 38 38 38 38 37 37 37 37 37 37 37 36 35 34 34 33 32 30 28 26 25
27 25 29 29 30 31 24 23 23 23 26 32 31 35 38 37 37 36 36 36 36 37 37 37 37 37 36 36 36 36 36 36 36 36 34 34 32 31 30 30 30 26 24 22
29 29 26 24 31 25 27 27 27 25 29 31 28 29 37 38 38 37 36 35 35 36 36 36 36 36 36 36 36 36 35 35 35 34 33 32 31 30 31 28 26 22 22 19
24 25 24 29 26 26 29 29 26 27 31 31 30 27 33 38 38 37 37 36 36 36 35 35 36 36 36 36 36 36 35 35 34 33 33 31 31 31 30 25 23 20 18 16
22 25 26 26 29 31 30 29 30 32 33 33 33 31 33 38 39 38 37 37 36 37 37 37 37 36 36 36 35 35 34 34 34 33 33 31 31 31 31 28 28 28 25 20
28 29 30 32 32 31 30 32 33 33 34 34 34 35 35 38 39 41 39 38 38 38 39 38 38 37 37 36 36 35 34 34 34 34 32 32 31 29 23 27 32 31 30 29
32 31 31 31 31 33 35 34 34 34 33 33 35 35 36 36 37 38 39 39 39 39 39 39 39 38 38 37 36 35 35 36 34 34 33 33 33 30 25 22 20 22 28 29
31 32 32 33 33 33 32 32 33 34 35 34 35 35 35 34 34 34 35 35 35 35 37 39 39 39 39 38 36 36 35 35 35 35 33 32 31 28 26 22 18 17 21 26
31 32 32 32 33 32 31 32 34 35 35 36 36 35 34 33 33 33 34 34 34 35 34 35 36 38 39 39 38 37 36 36 35 33 32 31 28 26 24 22 19 17 17 16
29 29 30 30 32 31 30 31 33 33 34 34 34 35 34 33 32 31 30 30 30 30 31 32 34 35 36 39 39 38 38 37 36 34 31 31 29 26 24 21 19 18 17 18
28 29 30 30 31 30 30 30 30 30 32 33 34 34 33 33 32 29 27 27 28 29 28 28 29 32 34 36 38 37 36 36 36 35 32 30 29 27 25 23 24 20 17 17
29 28 29 29 30 30 30 30 28 30 31 31 31 33 33 33 32 32 30 26 27 27 30 29 30 30 31 33 35 36 36 35 35 35 33 32 31 30 27 25 27 27 26 25
27 27 28 30 30 30 29 29 22 24 26 26 27 28 29 29 28 29 30 28 30 30 31 31 31 29 28 29 32 34 34 34 33 33 33 31 31 31 30 30 29 29 28 28
27 28 29 31 30 30 30 29 26 24 25 26 25 24 24 26 25 26 29 29 28 29 29 30 31 31 32 31 29 31 31 31 31 31 31 32 31 32 31 31 31 30 29 28
26 27 28 30 30 29 31 32 29 23 24 25 26 25 24 24 24 27 28 26 27 29 29 29 29 31 32 32 29 29 29 29 29 30 30 31 31 30 30 30 30 30 29 29
26 27 28 30 30 31 31 31 30 25 25 26 26 26 27 27 25 25 23 26 27 28 28 29 30 32 33 30 29 29 29 28 28 29 29 29 29 29 29 30 30 30 29 29
24 24 26 29 31 31 30 30 30 29 28 28 26 27 27 25 26 27 25 25 27 27 27 29 30 30 31 31 31 30 29 29 29 29 29 30 29 29 29 29 29 29 29 29
23 24 25 26 27 27 30 31 29 28 27 27 27 26 27 27 25 26 26 24 26 26 26 27 28 28 28 29 29 30 30 29 29 29 29 29 29 29 29 28 28 28 28 28
20 20 21 24 26 27 29 30 28 29 27 26 23 25 23 23 22 23 24 25 24 25 24 24 25 26 26 27 28 28 27 27 27 27 28 28 28 28 28 27 27 27 28 29
21 21 20 21 22 26 28 29 28 28 29 26 23 24 25 23 20 21 21 20 22 23 23 23 23 24 25 25 25 26 25 25 26 26 27 27 27 27 27 26 26 27 26 22

GFSNGP_sfc_dewp_063.txt.gz
Dewpoint
26 30 32 31 28 29 32 31 28 24 23 25 27 29 30 30 30 30 31 32 33 40 40 41 41 42 41 41 40 40 40 40 40 39 40 40 40 40 39 39 39 39 38 38
32 27 28 28 28 29 29 29 29 28 27 28 29 29 29 29 31 31 31 31 33 35 40 41 41 42 42 41 40 40 39 40 40 39 39 40 39 39 39 38 38 38 38 37
28 24 24 22 23 25 27 28 28 26 26 28 30 32 34 35 35 33 33 34 32 34 37 41 41 42 42 42 41 40 39 39 39 39 39 39 39 39 38 38 38 38 37 37
29 24 20 21 23 24 23 25 26 26 29 32 34 36 36 35 32 32 33 34 35 33 35 37 40 42 43 43 40 39 39 39 39 39 38 38 39 38 38 38 38 38 38 38
27 22 20 26 27 26 26 29 31 31 30 32 34 35 33 36 37 33 34 35 35 34 34 37 39 42 42 42 41 40 39 39 39 38 38 38 38 38 37 37 36 36 37 37
24 21 15 25 27 29 29 26 30 31 31 33 34 30 32 38 38 35 36 37 37 37 36 36 39 41 41 40 40 39 39 39 38 38 38 38 38 36 36 36 35 35 34 35
25 23 21 27 29 29 23 27 28 28 27 28 30 31 32 37 38 37 37 38 38 38 38 38 40 40 40 40 41 40 39 38 38 38 38 38 37 36 36 34 34 34 34 33
24 24 20 29 31 27 28 27 26 25 25 25 25 30 30 30 38 38 37 37 37 38 39 40 40 40 40 39 39 39 38 38 38 38 37 37 36 35 34 33 32 31 29 27
25 26 30 27 29 29 27 27 28 28 27 25 26 28 27 28 32 38 37 37 37 38 38 38 39 39 39 38 37 37 37 37 37 36 36 35 34 33 32 32 31 31 27 24
29 29 30 24 28 27 27 28 30 29 27 27 29 29 29 28 28 38 38 37 36 37 37 37 37 37 37 37 37 36 36 36 36 36 35 34 33 32 31 31 31 30 25 23
23 23 23 25 27 27 30 31 31 30 31 33 33 32 30 29 28 35 39 38 37 37 37 36 36 36 36 36 36 36 36 36 35 35 35 33 32 31 31 32 32 28 24 23
18 25 26 26 28 31 31 31 31 32 32 33 33 34 34 33 32 35 39 39 38 38 38 38 36 37 37 37 37 37 36 35 35 34 35 32 31 31 34 34 31 30 27 22
26 29 31 31 31 31 31 32 33 32 32 32 32 32 33 34 34 37 39 39 38 38 39 39 39 38 38 38 37 37 35 35 35 34 34 32 32 31 32 32 33 29 30 31
30 31 30 30 30 32 33 33 34 32 32 34 35 33 33 35 36 36 37 40 40 39 39 39 39 39 38 37 36 36 36 36 35 35 34 34 33 32 32 24 25 28 32 32
29 30 30 31 31 30 32 32 31 32 33 33 34 36 35 35 35 35 35 35 35 35 37 39 39 39 40 38 37 36 35 35 35 35 35 34 34 33 32 26 24 22 27 29
25 26 26 28 29 30 30 30 29 30 32 33 34 34 35 35 35 34 34 34 34 35 36 35 36 37 39 39 38 37 36 36 36 35 35 34 34 33 30 28 27 25 20 20
29 27 27 28 27 27 30 30 29 30 30 31 30 31 32 34 34 34 34 33 32 31 32 33 33 33 35 38 40 38 37 37 37 35 34 34 32 30 29 27 25 22 20 19
26 27 28 27 29 28 30 31 30 31 30 30 31 32 31 33 33 33 33 33 32 34 31 30 30 30 33 35 37 39 38 37 37 36 34 32 32 31 29 29 28 29 29 22
23 24 26 25 26 27 29 31 30 31 28 30 30 30 31 32 32 32 33 33 32 32 33 31 32 31 31 33 34 37 36 36 35 35 34 34 33 31 29 28 27 27 29 28
24 25 25 25 26 28 29 29 29 29 28 25 25 25 25 26 30 29 28 31 31 30 31 31 31 32 30 30 31 35 35 35 34 34 33 33 33 32 31 31 30 30 31 30
27 28 28 28 27 29 31 30 30 29 28 26 25 24 25 23 23 26 29 30 29 29 30 30 31 31 33 33 32 30 32 33 32 32 33 33 33 33 32 32 31 31 30 30
27 27 27 28 27 27 30 31 32 32 30 23 25 25 26 26 25 25 28 27 27 28 29 29 29 31 33 32 31 30 31 31 31 31 31 31 32 32 31 31 31 31 31 31
25 26 27 27 27 28 30 30 30 32 31 27 26 26 27 29 29 26 25 27 27 28 28 29 30 31 32 31 30 30 30 30 30 30 30 29 29 29 30 31 31 31 31 31
24 24 25 26 27 27 27 28 29 32 31 30 30 29 27 27 29 30 29 27 27 28 27 28 30 30 30 31 32 31 30 30 30 29 29 29 30 30 30 30 29 30 29 29
26 25 24 25 25 24 27 28 29 32 30 29 29 29 29 29 28 29 28 27 26 27 26 26 27 28 28 29 30 29 30 30 30 30 30 30 29 29 28 27 27 28 28 28
23 20 19 22 22 24 26 27 27 30 31 28 28 27 28 28 27 25 26 27 26 25 24 24 25 26 26 27 28 28 27 27 27 28 28 29 27 27 27 27 27 27 27 28
24 23 22 22 20 19 20 23 25 27 30 30 28 29 28 27 25 24 22 23 24 24 23 23 23 23 24 25 25 25 25 25 26 26 26 26 26 27 26 26 26 26 26 26

GFSNGP_sfc_dewp_066.txt.gz
Dewpoint
27 30 32 31 30 29 29 30 26 27 26 25 27 28 29 29 30 31 32 31 31 35 40 41 42 42 42 41 41 40 40 40 40 40 40 40 40 40 40 39 39 39 38 39
25 28 28 27 28 29 29 30 29 29 28 29 30 31 32 33 35 35 34 34 34 33 39 41 41 42 42 41 41 41 40 40 40 40 39 39 39 39 38 38 38 38 38 38
26 25 24 22 25 27 29 29 28 27 28 30 33 35 36 36 35 32 32 33 34 34 35 40 41 42 42 42 41 40 40 40 40 39 39 39 39 39 37 37 38 38 38 38
23 23 16 22 23 25 24 27 27 25 30 32 34 35 35 36 37 35 33 34 35 35 35 36 41 43 43 43 41 40 40 39 39 39 39 39 39 38 37 39 38 38 38 37
24 22 21 26 27 27 27 30 31 30 32 33 33 34 35 34 35 38 35 36 37 37 36 35 38 43 43 42 41 40 40 39 39 39 38 38 38 37 37 38 37 37 37 37
23 20 17 26 27 29 29 28 29 28 28 29 29 30 31 32 32 36 37 37 38 38 38 37 37 42 42 41 40 39 40 39 39 39 38 38 37 36 37 37 35 35 34 34
24 22 24 28 30 30 23 25 27 26 26 26 25 27 28 30 30 32 39 37 38 38 38 39 40 41 41 40 39 40 40 39 39 38 38 38 35 36 36 35 34 33 33 33
25 23 17 28 31 27 26 27 28 28 28 27 27 26 26 29 28 29 31 38 37 38 39 39 40 40 40 39 40 40 39 39 38 37 38 37 36 35 35 33 32 32 31 29
26 27 28 26 29 27 27 27 29 30 30 28 27 27 30 31 30 29 28 37 37 37 38 38 38 39 39 39 39 38 37 37 37 37 37 36 35 34 33 33 32 31 30 26
29 29 29 27 29 28 30 30 31 31 31 31 31 32 33 33 33 31 31 31 37 36 37 37 38 38 38 38 37 37 36 36 37 36 36 35 34 34 33 32 31 31 28 25
24 24 24 27 28 30 31 31 31 31 31 32 31 31 31 32 33 34 34 33 38 37 37 37 37 37 37 37 36 36 36 35 36 36 36 34 33 32 32 32 32 31 28 25
23 27 27 27 31 31 31 31 31 32 32 32 32 31 31 31 32 33 34 34 37 39 38 38 37 37 36 36 36 36 36 36 35 35 35 33 32 32 34 34 35 35 33 27
25 29 30 31 31 31 31 31 32 32 31 31 32 33 35 35 33 34 35 36 38 38 39 38 39 39 38 38 37 37 36 36 35 34 34 33 32 31 31 33 36 33 32 30
29 30 29 30 29 30 30 31 32 32 32 31 32 33 33 34 36 35 35 35 35 36 38 40 41 40 39 38 38 37 37 37 35 35 34 33 32 32 32 31 30 31 33 31
25 27 27 27 27 28 29 30 29 29 30 30 31 31 32 32 32 34 35 35 34 35 36 36 38 40 40 38 37 36 36 36 36 35 35 34 33 33 32 32 27 25 27 30
25 26 27 25 25 26 26 27 27 27 28 29 29 29 29 30 31 33 35 35 34 34 34 34 35 36 38 39 37 37 36 36 36 35 35 35 34 33 33 32 30 27 23 26
23 23 26 25 27 26 26 26 27 28 29 28 28 28 27 29 31 31 32 34 33 32 34 33 32 32 32 34 38 38 37 36 37 35 35 34 34 33 33 32 31 30 28 23
24 25 26 26 26 27 27 27 28 29 28 29 30 28 27 27 28 29 30 32 32 33 33 32 33 33 32 33 34 38 38 37 37 36 35 34 34 33 32 32 32 30 27 25
22 23 25 25 25 25 26 27 28 30 29 29 29 26 27 27 29 30 30 30 30 32 33 34 34 33 32 32 32 36 37 36 36 36 35 35 34 33 32 32 31 31 31 30
24 25 26 26 27 26 25 26 29 29 29 29 29 28 26 25 25 26 27 28 29 31 33 33 32 32 32 32 33 33 35 34 34 34 34 34 33 33 32 32 31 31 30 30
23 23 25 26 26 26 26 26 28 29 30 31 31 28 27 26 26 24 24 26 29 29 29 32 31 31 32 34 33 30 31 32 33 33 33 33 33 32 32 31 31 31 31 31
23 22 22 23 25 25 25 26 27 29 29 28 30 28 28 27 27 28 27 27 28 29 29 29 30 31 33 34 31 30 31 31 31 31 31 32 32 32 32 31 31 31 30 30
22 23 22 21 22 23 24 25 27 27 27 30 31 29 28 28 28 28 26 28 27 27 29 29 30 32 33 32 31 30 30 30 30 30 30 30 30 30 30 29 27 25 26 30
21 23 22 22 20 20 21 24 25 27 28 31 31 31 29 27 27 30 30 31 30 27 28 28 30 30 31 30 30 30 30 30 30 30 29 29 28 28 25 27 29 29 28 29
22 21 18 19 19 21 22 23 24 24 26 29 30 30 29 29 27 28 28 28 29 28 27 28 28 29 28 29 29 29 29 29 29 29 29 29 29 28 28 27 27 27 27 27
23 24 22 20 20 21 22 22 22 22 24 27 29 29 29 29 28 28 27 27 27 27 25 25 26 26 27 27 28 27 27 27 27 27 27 27 27 27 27 26 26 27 27 27
22 25 23 22 22 22 22 22 21 21 24 26 27 28 28 28 27 27 26 25 25 25 25 24 23 23 24 24 24 24 24 25 26 26 26 26 26 27 26 26 26 26 26 26

GFSNGP_sfc_dewp_069.txt.gz
Dewpoint
28 29 31 30 31 32 29 29 25 26 26 27 28 29 30 33 35 35 33 33 34 34 36 40 41 42 42 41 41 41 41 41 40 40 40 40 40 40 40 39 39 39 39 39
25 28 27 27 28 29 30 30 30 29 28 29 31 35 35 35 34 32 33 33 33 34 34 37 41 42 42 41 41 40 40 40 40 40 40 39 39 39 39 38 38 38 38 38
21 24 23 20 24 27 29 29 29 28 28 33 34 35 35 36 37 36 35 34 34 35 35 35 37 42 42 42 41 40 40 40 40 39 39 39 39 38 37 36 36 36 37 38
20 22 12 21 24 26 28 30 29 30 32 33 33 33 36 34 33 35 37 35 36 36 37 37 37 42 43 42 41 40 40 40 40 39 39 39 38 37 38 35 35 35 37 38
22 20 22 26 26 26 28 29 30 30 29 29 28 33 34 31 30 33 34 36 37 37 38 38 38 38 43 42 41 40 40 40 40 39 38 38 37 37 37 35 35 37 38 37
23 18 17 25 27 29 28 27 28 28 25 25 26 27 30 27 28 30 29 30 34 38 38 38 39 40 42 42 41 40 40 39 39 39 38 37 36 37 36 36 36 36 34 35
23 20 23 28 29 29 19 21 27 27 27 27 26 26 26 26 29 30 31 30 32 38 37 39 40 41 40 40 39 40 40 40 39 38 37 36 36 37 35 35 35 34 34 34
24 22 19 27 30 27 26 27 29 29 29 29 28 28 28 31 33 33 32 31 30 36 37 39 39 40 39 39 39 40 39 39 38 37 38 37 37 35 35 35 34 33 33 31
25 24 27 28 27 29 29 29 30 30 31 31 31 31 32 32 32 33 34 34 33 33 37 38 38 38 38 38 39 39 38 37 37 37 37 37 36 35 34 34 33 32 31 29
27 29 28 29 30 31 31 30 31 31 31 31 31 31 31 31 31 31 32 33 34 34 36 36 37 38 38 38 38 37 36 35 36 36 36 36 35 35 34 33 32 32 31 29
25 25 27 30 31 31 31 31 31 32 32 32 32 32 31 32 32 32 32 33 34 35 36 38 37 37 38 38 37 36 35 35 35 36 36 35 35 34 34 34 33 32 32 29
23 27 26 27 31 31 31 31 31 32 32 32 31 31 31 31 32 35 35 34 35 36 39 39 39 38 37 37 37 36 36 36 36 36 36 34 34 33 36 35 36 36 35 30
27 29 30 30 31 31 30 30 32 32 32 32 30 31 32 32 31 34 34 35 35 35 35 36 39 39 38 38 38 37 36 36 36 36 35 33 33 32 32 34 36 36 37 35
30 28 28 29 27 28 29 30 31 30 29 29 29 30 30 31 31 30 31 33 34 35 35 35 35 38 41 40 38 37 37 37 35 35 35 34 33 32 33 32 32 34 36 34
24 26 26 26 25 26 26 26 27 27 27 27 28 28 28 28 27 28 30 31 33 34 35 35 35 36 38 40 38 38 37 36 36 36 35 34 33 33 33 33 32 30 29 33
25 26 27 26 26 27 27 26 25 26 26 28 28 27 28 28 27 27 28 29 31 31 32 33 33 34 34 35 38 37 37 37 37 35 35 34 34 33 32 32 32 30 27 27
20 21 24 23 24 25 26 26 27 27 27 27 26 27 29 29 27 26 26 27 30 29 31 32 33 34 34 33 33 36 37 37 38 36 35 34 34 33 33 33 33 32 31 28
23 23 24 24 23 24 24 25 25 26 26 28 29 28 28 28 27 27 27 27 28 28 30 32 32 34 34 34 35 35 35 37 37 36 35 34 34 34 34 33 33 33 32 29
23 22 23 24 25 25 25 24 24 25 27 28 29 29 29 29 27 27 26 27 27 26 29 32 33 32 32 32 34 34 33 35 36 36 35 36 35 34 33 33 33 32 32 31
24 24 25 25 25 25 25 25 25 25 26 29 29 27 27 28 27 27 27 24 25 26 32 31 31 30 30 31 34 34 32 33 34 34 34 34 34 34 33 33 32 32 32 32
22 21 22 24 23 24 25 24 24 23 24 28 28 26 27 30 28 28 27 25 26 28 29 30 28 29 30 32 34 32 32 32 32 32 33 34 33 33 32 32 32 31 31 31
20 19 20 20 21 22 22 22 23 23 24 26 26 27 29 29 28 28 28 29 29 30 27 28 27 29 32 34 31 31 31 32 32 32 31 32 32 32 32 32 31 31 31 30
22 22 22 20 21 21 22 22 22 23 24 25 25 28 29 30 29 27 25 28 29 29 28 28 29 31 31 29 29 30 30 30 31 31 31 31 31 31 30 30 30 30 30 30
20 21 21 22 18 17 17 19 21 22 23 25 26 28 30 29 27 29 30 31 30 30 29 28 29 30 30 29 29 29 29 29 29 30 30 31 29 29 28 29 29 29 28 29
20 18 17 18 19 20 19 20 21 22 22 23 25 28 29 29 28 26 27 28 29 29 28 28 28 28 27 28 28 28 28 28 29 28 28 29 28 28 28 27 27 27 27 27
20 21 22 23 23 22 21 21 21 21 22 22 23 26 27 28 28 28 26 28 27 28 26 25 25 25 25 26 27 27 27 27 26 27 27 27 27 27 27 27 27 27 26 27
19 25 22 22 21 22 22 22 21 22 21 22 23 26 27 27 27 28 28 26 25 25 25 24 24 24 23 23 24 24 24 24 26 25 25 25 25 26 26 26 26 26 26 26

GFSNGP_sfc_dewp_072.txt.gz
Dewpoint
28 29 31 30 30 31 27 27 23 24 23 28 28 29 32 35 34 33 33 33 33 34 34 35 38 41 42 42 42 41 41 42 42 42 41 41 41 40 40 40 40 39 39 38
23 27 26 27 28 30 31 30 29 29 28 30 32 35 35 35 36 36 36 35 35 35 36 36 36 38 41 42 41 41 41 41 41 40 40 40 39 39 38 38 38 38 37 38
20 24 22 21 23 27 29 30 30 28 30 33 34 35 35 33 32 33 33 33 35 36 36 37 37 37 39 42 42 41 40 40 40 40 39 39 39 38 37 36 36 36 36 37
18 21 12 21 24 27 29 30 30 32 32 31 30 32 32 30 29 29 31 30 31 32 35 38 38 38 39 42 42 41 40 40 40 39 39 38 38 37 35 35 35 34 35 36
20 18 20 24 26 26 28 28 28 28 26 26 26 33 31 27 27 29 29 29 30 30 34 38 38 38 39 41 41 40 40 40 40 39 38 38 37 36 35 35 34 34 35 35
23 18 17 23 26 29 28 25 26 26 26 27 27 24 28 28 28 31 32 32 32 31 33 37 38 39 40 40 40 40 40 40 40 39 38 37 36 35 35 37 35 36 34 35
23 19 22 28 29 29 19 20 28 28 28 28 26 26 27 28 32 34 34 33 34 33 32 35 38 39 39 39 39 41 40 40 39 39 38 37 35 35 34 37 36 35 34 34
24 23 20 27 30 25 26 29 29 29 30 30 30 30 31 32 32 33 33 33 34 34 34 34 37 38 38 38 39 39 40 39 38 37 38 37 35 34 36 36 35 34 34 33
25 25 26 28 28 30 29 29 30 29 30 31 31 31 32 32 31 31 31 32 33 34 34 34 36 37 37 37 38 38 37 37 36 36 37 36 35 35 35 35 34 33 33 32
27 27 28 30 30 30 31 30 31 31 31 31 31 31 31 31 31 31 33 33 33 33 33 34 36 37 37 38 38 37 36 35 35 35 35 34 36 36 35 34 34 33 32 31
24 26 28 29 30 30 30 31 31 31 31 32 32 31 31 31 30 31 32 34 36 35 35 36 38 39 38 38 38 36 35 34 34 35 36 35 35 35 35 35 35 33 33 32
24 26 25 27 30 31 29 29 31 31 31 32 32 30 30 31 32 31 31 32 33 35 35 35 36 38 39 38 38 37 37 36 36 36 37 35 35 34 37 37 37 38 36 34
27 27 29 29 31 29 28 29 30 30 30 29 30 28 28 28 30 32 30 30 30 31 33 35 35 36 37 39 38 38 38 37 37 36 36 35 34 33 33 35 38 38 38 37
28 28 27 28 25 26 26 28 29 29 29 28 29 29 28 26 27 27 28 28 29 30 31 32 34 35 37 39 40 38 38 39 37 36 36 35 34 33 33 33 32 33 37 38
24 25 25 26 25 25 26 26 26 25 26 26 27 28 28 26 26 27 28 27 27 29 30 31 32 32 35 35 37 39 38 38 37 37 36 36 34 33 33 33 33 33 32 36
25 25 25 24 24 24 24 24 24 25 25 26 27 27 27 28 28 29 28 27 26 26 28 29 30 31 33 33 34 35 38 38 38 36 35 35 34 33 33 33 32 32 32 32
19 18 22 21 22 22 23 24 24 25 25 25 25 26 27 27 28 28 28 27 27 26 27 27 29 31 34 34 34 34 34 37 39 37 35 34 34 33 33 33 33 33 32 32
22 22 22 22 22 22 23 24 25 24 23 24 25 26 27 27 27 28 27 28 27 27 27 27 30 33 33 33 33 33 33 35 37 37 35 34 34 34 34 33 33 33 33 33
22 22 23 24 24 24 23 22 22 23 23 24 24 25 27 28 28 29 29 28 26 26 26 27 32 32 30 31 33 33 32 32 33 35 35 36 35 34 34 33 33 33 33 32
23 23 24 23 24 24 23 23 24 23 23 24 24 25 26 26 26 28 29 27 26 26 26 29 31 30 29 29 32 32 32 31 32 33 34 34 35 34 34 34 33 33 32 32
20 20 21 22 22 22 23 23 22 21 21 22 24 24 25 26 26 28 28 26 26 27 28 31 29 27 27 29 31 32 31 31 31 31 32 33 34 34 33 33 33 32 32 32
17 17 16 18 20 21 22 22 21 21 21 21 23 24 24 25 26 28 29 28 29 31 31 29 27 28 29 32 31 29 30 30 31 31 31 32 32 32 32 32 32 32 31 31
19 19 20 18 19 20 21 21 21 20 21 22 22 23 23 26 27 27 26 28 30 30 30 29 29 32 32 30 28 28 29 30 30 31 31 31 31 31 31 31 31 30 29 29
18 19 19 19 16 15 16 19 19 20 21 22 23 24 24 27 26 28 29 31 30 30 30 29 30 31 31 25 26 28 28 29 29 29 29 31 29 29 29 29 29 29 29 30
18 17 14 16 18 20 20 21 20 20 20 22 23 22 23 25 27 28 28 28 29 29 27 27 30 29 26 27 27 27 27 27 28 27 28 28 27 28 28 28 28 27 27 27
18 19 20 21 22 22 22 22 21 21 21 21 22 21 23 25 26 28 26 27 28 27 26 26 26 27 25 25 26 26 26 25 26 26 26 26 26 26 26 26 26 27 26 27
18 23 22 21 21 21 21 21 22 22 23 24 22 22 23 25 25 27 28 26 26 25 25 25 24 24 24 24 23 23 24 24 26 25 24 24 24 24 25 25 25 25 26 25

GFSNGP_sfc_dewp_075.txt.gz
Dewpoint
27 28 30 29 29 30 26 26 22 24 22 29 28 31 34 34 34 35 35 35 35 35 36 36 36 37 38 41 42 42 42 42 42 42 41 41 41 41 40 40 40 39 38 38
23 25 25 27 28 30 31 29 29 27 28 29 34 35 35 36 35 32 32 32 32 33 34 36 37 37 37 38 41 42 41 42 42 41 41 40 40 39 39 38 38 38 37 37
20 23 22 20 22 27 29 31 30 28 30 34 34 35 32 28 28 28 29 29 29 30 31 33 36 38 38 39 40 41 41 41 41 40 40 39 39 38 37 36 36 36 36 36
17 20 13 21 24 26 29 29 31 32 31 31 31 33 28 27 26 27 29 29 30 30 30 31 35 38 39 40 40 41 40 40 40 40 39 38 37 37 35 35 35 34 34 35
18 17 20 23 25 28 27 27 28 29 26 26 27 31 29 27 27 29 30 31 32 32 32 32 34 37 39 39 40 40 40 40 40 39 38 37 37 36 35 34 34 34 34 34
23 18 17 22 27 29 29 23 26 26 26 26 27 28 29 28 30 32 33 33 33 34 34 33 34 36 38 38 38 39 40 40 40 39 38 37 36 35 34 34 34 33 34 34
23 19 22 25 29 28 20 20 27 27 27 28 25 26 27 30 32 33 33 33 34 34 34 34 35 35 36 37 37 39 40 40 39 39 38 37 35 34 34 34 34 35 35 35
24 24 19 27 29 23 25 28 29 29 29 29 30 31 31 32 32 32 32 32 33 33 33 34 35 35 35 36 38 38 38 38 38 37 38 36 35 35 33 34 35 35 35 35
25 24 27 29 28 29 28 29 29 28 30 30 30 30 31 32 31 31 32 32 33 34 33 33 34 35 36 37 37 37 37 37 36 35 36 35 34 34 33 34 35 34 34 33
26 26 27 28 29 30 30 29 30 30 31 31 30 31 31 31 31 31 31 31 32 34 33 34 36 36 36 38 37 37 36 35 34 34 34 34 33 34 35 35 34 34 33 33
24 25 26 29 28 29 30 30 30 31 31 31 31 30 31 29 29 30 31 31 32 31 32 33 34 35 35 36 38 38 36 34 34 34 35 34 34 35 36 36 36 34 34 34
25 26 26 26 29 30 27 27 29 29 29 29 29 30 29 27 27 28 28 29 29 30 30 30 31 33 35 36 37 38 37 37 36 36 37 36 35 35 38 37 38 38 37 35
25 27 28 28 30 28 26 26 28 28 28 28 28 29 28 28 27 28 27 27 28 28 28 29 31 33 33 36 37 38 38 38 37 37 36 35 35 34 34 35 39 38 39 39
26 27 26 26 24 26 24 26 27 26 27 27 27 27 28 28 28 26 26 27 27 27 27 27 29 31 32 33 34 34 36 39 38 37 37 36 35 34 34 33 33 34 38 38
24 24 22 24 24 24 24 25 24 23 24 24 25 26 27 27 27 26 26 27 27 27 27 26 26 27 30 32 32 32 33 36 39 38 37 37 35 34 34 33 33 33 33 36
25 23 23 21 22 21 22 22 21 22 23 23 24 24 25 26 27 27 27 28 28 27 28 27 26 27 28 31 33 33 33 34 37 37 36 35 35 34 33 33 33 33 33 33
18 16 20 19 21 21 21 22 23 23 23 23 23 23 24 25 26 27 27 28 28 28 28 28 27 28 28 31 33 33 33 34 35 36 35 35 35 34 34 33 33 33 33 34
21 21 22 21 21 21 22 23 24 24 22 22 23 23 22 22 23 25 26 27 28 28 28 28 28 28 29 33 32 32 32 32 33 34 35 35 34 34 34 33 33 33 33 34
21 22 22 23 23 22 22 21 21 22 22 21 21 21 21 22 24 25 26 26 27 26 26 27 28 28 31 31 30 29 31 30 31 32 32 35 35 35 34 34 33 33 33 33
21 22 22 21 22 22 21 22 22 22 22 22 21 21 21 22 24 24 25 25 26 27 28 28 27 29 30 29 30 28 28 30 30 31 32 32 34 34 34 34 34 33 33 33
20 19 20 21 20 21 21 21 21 21 21 20 21 21 22 22 23 24 25 25 26 28 29 31 31 29 28 29 28 29 30 30 29 29 30 30 32 34 34 34 33 33 33 33
16 15 14 15 18 19 20 21 21 21 21 21 21 22 22 22 23 24 26 27 27 30 30 30 29 29 29 30 31 31 28 28 28 29 30 31 31 32 33 33 32 32 32 32
18 17 18 17 18 18 18 19 19 20 20 20 20 21 22 22 22 23 24 26 28 30 30 30 30 31 32 31 28 27 26 27 28 29 29 29 29 31 32 32 32 32 31 29
16 18 18 18 12 14 15 19 19 21 21 21 21 21 22 21 21 24 25 28 29 29 29 29 29 31 31 27 26 26 25 27 27 28 28 31 28 29 29 29 29 29 29 29
17 16 12 15 17 19 19 20 19 19 20 21 22 22 22 22 22 23 24 27 29 28 27 28 28 29 27 26 26 26 26 26 27 25 26 26 27 28 28 28 28 28 28 28
17 18 19 19 20 21 21 21 20 21 22 22 23 23 24 22 22 24 24 26 27 27 26 26 26 27 26 25 26 25 25 25 25 25 25 26 26 26 26 26 26 27 27 27
16 21 20 19 20 21 21 22 23 22 23 23 22 23 24 23 22 23 24 25 25 26 25 26 25 25 26 25 23 23 24 23 25 24 24 24 24 24 24 24 24 25 24 25

GFSNGP_sfc_dewp_078.txt.gz
Dewpoint
26 28 29 29 29 29 25 25 20 24 24 27 27 31 33 33 35 33 31 30 30 30 31 33 35 37 38 38 39 41 41 41 42 41 41 41 41 41 41 40 40 39 38 38
22 24 24 27 28 29 29 28 27 25 25 30 31 34 35 33 30 29 28 28 29 30 30 30 32 35 37 38 39 39 40 41 41 41 41 40 40 39 39 38 38 37 37 37
19 23 22 19 23 27 29 29 29 26 28 33 33 35 32 27 26 27 28 29 30 30 31 31 31 33 36 38 39 39 40 40 41 41 40 39 39 38 37 37 36 36 36 36
17 20 12 20 25 26 28 29 30 31 30 29 32 30 27 26 27 28 29 31 31 32 32 33 33 34 36 38 39 39 40 40 40 40 39 39 38 37 36 35 35 35 35 35
18 16 19 22 26 27 26 26 29 28 25 26 29 28 27 27 28 30 31 32 33 33 33 34 33 34 35 36 38 38 39 39 40 40 39 37 37 36 35 34 34 34 34 34
23 18 16 21 27 30 29 22 27 26 26 26 31 27 29 28 30 32 32 33 33 33 34 34 34 35 35 36 37 37 38 39 40 39 39 38 37 35 34 34 34 33 34 34
25 18 21 25 29 28 20 20 26 27 27 27 25 26 28 31 31 32 32 32 33 33 33 33 34 35 35 36 36 38 38 39 39 39 39 38 36 34 34 34 33 33 34 35
24 22 17 28 28 22 24 27 29 28 28 28 29 30 30 31 31 32 32 32 32 33 33 34 35 34 35 35 37 38 37 37 37 37 38 37 35 34 33 34 35 35 36 35
24 23 26 27 27 28 28 28 27 27 29 29 29 29 30 31 31 31 31 31 31 31 33 32 33 35 34 34 35 38 37 36 36 35 35 35 34 36 34 34 35 35 34 34
26 25 26 27 28 28 28 28 29 29 29 30 29 30 29 30 30 30 30 30 31 31 30 30 31 32 33 35 35 36 37 37 35 34 34 34 36 36 36 35 35 35 34 34
25 25 25 28 29 28 29 28 28 29 29 29 28 27 28 28 27 27 28 28 29 29 29 29 29 30 31 32 35 35 37 38 36 35 35 33 32 35 36 37 37 35 35 35
25 26 26 25 28 30 26 25 27 27 27 27 27 27 28 27 28 27 27 27 27 27 27 28 28 29 30 32 33 34 34 36 38 37 37 36 35 35 38 38 39 39 38 36
25 26 26 28 29 28 25 25 26 27 26 25 27 27 27 27 27 29 28 27 27 26 27 27 27 27 28 30 31 31 32 33 36 38 37 36 35 35 34 36 39 39 39 39
26 26 24 26 23 26 24 25 26 25 25 24 25 25 25 26 26 26 27 27 26 26 26 27 27 27 27 28 29 29 30 33 34 37 38 37 35 35 35 34 34 35 38 39
22 23 20 24 22 22 22 23 22 21 22 22 23 23 23 23 23 24 26 27 27 27 28 28 27 27 28 28 28 28 30 31 33 34 37 38 36 35 35 34 34 34 33 36
23 22 22 20 19 20 19 19 19 20 22 22 22 21 21 23 23 24 25 27 26 26 27 27 27 28 29 28 28 28 30 33 34 33 34 36 35 34 34 34 33 33 33 34
17 13 19 18 18 19 19 21 21 22 22 23 22 21 21 22 22 22 23 24 26 27 27 28 27 28 29 28 28 28 31 31 32 33 33 34 35 34 34 33 33 33 34 34
19 20 21 20 19 20 21 22 23 23 22 23 22 22 20 19 19 20 22 24 25 25 26 27 27 28 28 28 28 31 30 30 29 31 32 32 33 34 34 33 33 33 33 34
21 20 21 22 21 21 21 19 20 21 21 21 21 20 19 19 20 21 22 23 23 24 23 26 29 30 28 28 30 31 29 28 26 28 31 32 32 33 34 34 33 33 34 33
20 21 21 20 21 20 19 20 20 20 20 21 21 20 20 20 21 22 23 22 23 25 27 28 28 29 28 29 31 30 28 27 28 29 31 31 31 32 33 34 34 33 33 33
20 19 20 21 20 19 20 20 19 19 20 20 20 20 20 20 22 22 21 22 23 25 27 29 28 29 30 29 30 29 28 28 29 29 27 28 29 30 31 33 34 33 33 33
16 14 14 14 16 17 19 19 20 20 19 20 20 20 20 20 21 22 23 23 24 28 26 27 28 29 29 31 31 30 30 28 27 27 26 28 29 30 30 32 32 33 32 32
18 16 17 16 17 17 16 17 18 19 19 19 20 20 20 21 21 21 21 23 25 27 27 28 29 30 29 30 28 27 26 25 26 27 27 28 29 30 30 32 32 32 32 32
16 16 15 17 11 12 14 17 17 20 20 21 21 21 20 21 22 22 23 26 27 27 26 29 28 30 29 27 26 25 25 25 26 26 27 30 29 28 25 23 25 27 28 30
14 12 10 12 15 18 18 19 19 19 19 20 21 22 23 23 23 24 23 23 26 26 25 28 29 28 25 25 25 25 25 25 26 24 25 26 25 23 23 23 25 26 27 28
16 17 18 19 19 20 20 20 20 21 21 22 22 21 21 23 24 23 22 23 23 25 26 26 26 25 24 24 24 25 25 24 24 23 24 24 24 23 22 24 25 26 26 27
13 20 18 17 17 17 18 18 18 18 20 20 19 20 23 22 21 22 23 21 21 24 25 25 25 25 25 25 24 24 24 23 23 23 23 23 22 22 22 24 24 24 25 25

GFSNGP_sfc_dewp_081.txt.gz
Dewpoint
25 26 30 30 30 29 26 24 21 22 24 26 28 32 33 34 33 30 28 28 29 30 30 31 32 33 34 36 38 39 40 40 42 43 43 43 43 43 42 42 41 41 40 40
23 24 23 27 28 30 29 27 27 24 24 29 32 34 34 31 29 27 28 29 30 31 32 32 32 32 34 35 37 39 39 40 41 42 43 43 42 42 41 41 40 40 39 39
20 22 21 19 22 26 29 30 28 25 28 33 34 35 30 26 27 28 29 31 31 32 32 33 33 33 34 35 37 38 39 39 40 41 42 42 41 41 40 40 39 39 39 39
18 20 14 20 24 26 27 29 31 31 28 30 34 29 26 27 28 29 31 31 32 32 33 33 34 34 35 36 36 37 38 39 40 41 41 41 40 40 39 39 39 39 38 38
19 17 19 22 25 27 26 26 30 28 26 28 29 28 27 28 29 31 32 32 33 33 33 34 34 34 35 36 37 37 38 39 39 40 40 40 40 40 39 38 38 38 37 37
23 18 16 21 26 29 29 20 28 27 26 29 32 27 29 30 31 31 32 32 32 33 33 33 34 34 35 35 36 36 38 39 39 40 40 40 40 39 38 37 37 37 37 37
23 20 22 24 27 28 21 19 27 27 27 27 25 27 28 31 31 32 32 32 33 33 32 33 34 34 35 35 35 36 38 38 38 39 39 40 39 38 37 37 37 36 36 36
23 20 17 27 28 23 25 28 28 29 29 29 29 30 30 31 31 31 32 31 32 31 32 33 32 34 33 33 34 35 36 38 38 38 38 39 38 37 37 36 36 35 36 36
24 23 26 28 28 29 28 28 29 28 30 30 30 30 30 30 30 30 30 30 31 30 31 30 31 31 30 31 32 33 35 36 38 37 36 37 37 37 36 36 36 36 36 36
26 25 27 28 29 29 29 29 30 30 30 30 29 29 28 28 29 29 29 29 29 30 29 28 29 29 29 30 31 31 33 34 36 37 37 36 36 37 36 36 36 36 35 35
26 26 26 28 29 29 29 29 29 30 30 30 29 26 26 27 27 27 28 28 28 29 28 28 28 28 28 29 30 29 31 31 33 35 37 36 35 36 37 37 37 36 36 36
25 26 26 26 28 30 27 25 27 28 26 27 27 26 27 26 26 27 27 28 28 27 27 27 28 28 28 29 29 29 28 28 30 33 35 37 36 36 38 39 39 40 39 37
25 26 26 28 29 28 25 25 26 27 26 25 25 25 25 25 25 26 26 26 27 26 27 26 27 28 28 28 29 28 28 28 29 30 31 35 36 35 35 36 40 40 40 39
27 27 25 27 26 27 24 24 25 24 23 23 23 24 24 23 23 23 23 24 25 26 26 27 27 27 27 28 28 28 28 30 29 30 33 33 36 35 35 35 34 36 40 40
23 23 19 25 23 22 21 21 19 19 19 21 22 22 22 20 20 20 21 23 24 26 26 27 27 27 28 28 29 28 28 28 30 30 31 33 34 36 35 35 35 35 34 38
23 22 22 21 19 18 18 18 19 19 20 21 22 22 21 20 21 21 22 23 24 22 24 26 27 27 27 27 28 28 27 29 30 28 28 31 33 34 34 34 34 33 33 35
18 14 18 17 18 16 18 19 20 20 21 21 21 22 22 21 21 20 19 20 22 24 25 26 26 28 28 28 28 28 28 28 31 28 26 28 32 32 34 34 33 33 33 35
16 17 19 18 19 19 20 21 21 21 21 21 22 21 20 20 19 19 19 21 22 23 24 25 26 27 28 29 29 29 28 29 31 28 27 29 30 32 32 33 33 33 33 34
19 19 20 20 21 21 21 19 19 20 20 19 19 19 19 20 20 20 20 21 21 21 21 24 27 29 28 29 29 28 29 29 28 26 25 28 30 31 32 32 33 33 33 33
20 20 20 20 21 20 19 19 19 19 19 19 20 19 19 19 20 20 20 21 22 22 23 25 27 28 27 27 29 29 29 27 27 27 28 29 30 30 30 32 32 33 33 33
18 17 19 20 19 19 19 19 19 18 18 19 19 19 19 20 20 20 20 20 21 23 25 27 27 25 26 28 28 28 28 28 27 27 28 28 27 27 28 29 31 32 33 33
14 13 11 13 15 16 17 18 19 19 18 19 19 20 20 20 20 21 22 22 22 26 26 27 25 26 28 30 30 29 29 29 27 27 26 26 27 26 28 29 30 32 33 33
15 15 15 13 15 15 15 16 17 18 18 19 19 20 20 21 21 21 20 22 25 26 27 27 27 27 29 30 28 27 26 26 25 25 26 27 27 28 29 29 31 32 32 32
13 14 13 14 9 9 13 17 17 19 19 20 20 21 21 22 21 22 23 25 26 26 26 26 26 29 29 27 25 25 25 25 25 25 26 28 28 29 28 28 29 30 31 32
12 10 8 10 14 17 17 18 18 18 19 20 20 21 22 22 23 24 24 24 25 24 24 26 27 30 27 25 24 24 25 25 25 26 25 25 26 26 26 27 27 28 28 29
15 16 17 16 16 17 16 16 16 16 15 16 15 15 17 21 22 21 22 22 22 23 22 24 26 26 26 25 25 24 24 24 24 23 24 23 24 24 24 25 25 26 27 27
11 17 14 13 13 13 14 15 14 13 14 13 14 17 19 19 19 19 21 19 20 21 23 25 26 26 26 26 24 24 23 22 23 24 23 22 22 22 22 22 23 24 25 25

GFSNGP_sfc_dewp_084.txt.gz
Dewpoint
26 26 30 30 30 29 28 25 24 23 24 28 29 32 33 34 31 28 28 29 30 31 31 31 32 33 33 34 35 35 37 40 40 41 43 45 45 45 45 45 44 44 44 43
30 24 27 27 29 30 29 27 25 24 26 29 30 33 34 32 29 28 29 30 31 31 31 31 32 33 34 35 35 36 35 38 40 40 42 44 45 45 44 44 43 43 42 42
27 23 23 22 22 26 30 30 28 24 28 31 32 34 33 29 28 29 30 31 31 31 31 32 32 33 35 36 37 37 37 38 40 40 41 42 43 44 44 44 43 42 42 41
29 24 21 22 24 26 25 29 31 31 31 33 33 32 28 28 29 30 31 31 31 31 32 33 33 35 36 36 36 37 38 39 40 40 40 42 43 43 44 44 43 43 42 41
27 23 21 23 25 27 26 26 31 30 29 32 30 28 27 29 30 31 31 31 31 32 32 33 34 34 34 36 37 37 36 37 39 40 40 41 42 43 44 43 43 43 42 41
25 22 16 23 27 29 30 21 29 29 29 30 30 30 31 30 31 31 31 31 31 32 31 31 33 31 34 34 34 35 35 36 38 39 40 40 42 43 43 42 43 43 41 43
25 24 23 25 26 29 22 20 29 28 28 29 29 28 29 30 31 31 31 31 31 31 30 32 30 31 31 31 32 33 35 36 36 38 39 40 41 42 42 41 41 41 40 40
24 22 16 28 29 24 26 28 28 29 29 29 29 30 30 29 27 27 28 27 28 27 27 30 28 29 28 28 30 31 32 34 36 38 38 39 40 41 41 40 39 38 38 38
24 22 26 28 29 29 29 28 29 30 30 30 29 28 27 25 24 24 25 25 25 26 26 26 25 27 26 25 27 28 28 30 32 31 34 38 38 38 38 38 38 38 37 37
26 27 28 28 30 30 29 29 30 30 30 30 27 26 23 23 23 23 23 23 24 25 24 24 23 25 25 26 27 27 27 27 28 30 33 34 37 37 38 37 37 37 36 36
27 28 28 28 29 29 30 30 29 29 28 27 27 24 23 22 22 22 23 24 25 26 25 23 24 25 25 26 26 26 26 26 27 27 28 31 34 37 37 37 37 37 37 37
23 27 27 28 28 30 29 26 25 25 25 25 26 24 23 21 20 21 20 22 22 21 22 24 26 26 26 26 26 27 27 27 27 28 28 29 31 33 38 39 40 40 40 38
27 27 27 29 30 30 28 25 25 25 25 23 21 22 21 21 21 22 18 17 17 18 20 20 23 25 25 26 27 27 27 27 28 29 28 28 28 30 34 37 39 40 40 40
27 29 28 30 28 29 27 24 25 23 21 21 20 21 22 21 19 17 16 15 17 18 18 20 21 21 23 25 27 27 27 29 29 29 29 28 30 30 33 34 34 35 40 40
29 27 21 27 25 24 22 20 18 16 16 17 20 20 20 19 19 18 18 19 18 19 19 21 21 21 23 25 27 26 26 27 27 28 29 30 30 28 31 33 34 35 35 37
23 22 23 21 20 18 17 16 16 15 17 17 18 18 18 19 19 19 19 20 19 17 18 20 22 22 24 26 26 26 26 28 28 28 29 29 27 28 28 29 33 34 34 34
25 21 21 22 20 15 15 16 18 18 19 18 17 18 19 19 18 18 17 17 18 19 19 22 23 24 26 28 27 27 27 27 28 29 29 29 26 27 28 29 31 33 34 35
17 15 17 18 22 19 18 20 21 22 22 23 22 22 22 22 21 21 21 21 20 20 21 24 24 25 27 28 28 28 27 25 26 27 29 28 26 26 27 30 31 32 33 34
17 18 20 19 20 21 23 24 24 24 24 23 22 22 22 22 22 22 22 21 21 20 20 22 25 26 27 28 27 27 26 27 28 29 28 27 26 25 27 28 30 31 32 33
20 19 20 20 20 20 20 19 18 17 17 18 18 19 19 20 20 20 20 21 22 21 22 23 26 27 28 28 28 27 27 27 27 27 27 27 28 28 30 28 28 29 31 33
22 20 20 19 18 18 18 18 17 17 18 18 18 19 19 20 20 21 21 20 20 22 24 26 26 27 27 26 27 26 27 28 28 28 28 28 27 27 26 26 26 27 30 32
19 19 18 19 18 18 19 19 19 19 19 19 20 20 20 20 20 22 21 22 22 25 25 26 27 28 29 29 28 30 30 28 27 27 27 26 25 26 25 26 28 29 30 32
19 19 19 19 19 18 18 18 17 17 18 19 20 20 20 20 21 20 19 21 24 25 26 26 27 27 28 27 29 29 26 25 24 25 26 27 27 27 27 29 30 31 32 32
17 18 19 19 18 18 17 17 17 18 19 18 19 21 20 19 19 20 22 24 24 25 25 25 26 26 27 30 28 26 25 24 25 26 26 28 27 28 29 30 30 31 31 32
17 17 18 17 15 14 15 16 16 15 14 14 15 15 17 18 20 22 22 21 23 23 22 24 26 27 28 27 26 25 24 24 25 27 25 26 26 27 28 29 29 30 30 31
16 16 15 14 13 13 13 14 13 12 13 13 13 14 17 18 18 19 19 21 21 22 22 23 25 27 27 26 26 25 25 25 24 25 24 24 24 25 25 26 27 28 29 30
15 16 13 11 11 12 13 14 12 12 13 12 14 16 16 16 17 18 19 18 19 21 22 24 26 26 26 26 24 24 24 23 23 23 23 23 23 23 23 24 25 25 27 28

GFSNGP_sfc_dewp_087.txt.gz
Dewpoint
26 27 30 29 28 27 28 23 22 22 24 28 30 31 33 31 30 29 30 30 31 31 31 31 32 32 33 34 35 35 35 36 38 40 41 42 45 46 46 46 46 47 47 46
33 25 27 26 26 28 28 27 24 24 26 29 30 32 33 31 30 30 30 31 31 31 31 31 31 32 34 35 35 36 36 36 38 39 40 42 42 45 46 45 45 45 45 44
28 24 24 23 22 26 29 29 29 23 28 29 31 33 33 31 30 30 31 31 31 31 31 32 32 33 34 35 36 36 36 37 38 39 40 41 42 42 44 45 46 45 44 43
30 25 23 23 25 27 25 29 30 31 31 32 31 34 31 30 30 30 31 31 30 30 31 31 32 34 33 35 35 36 36 36 37 39 40 40 41 43 43 45 46 45 45 44
28 21 21 23 25 26 26 25 30 30 30 32 31 30 30 30 30 31 30 30 30 31 31 30 32 32 30 33 34 34 35 35 36 37 38 40 41 42 43 44 45 45 45 44
24 23 14 23 27 29 29 22 28 30 30 31 31 31 30 30 31 30 30 30 30 30 29 28 30 29 30 30 30 31 32 34 35 36 37 38 40 40 42 43 43 45 44 44
23 23 22 25 27 29 21 23 29 30 29 31 31 29 30 30 30 30 28 28 27 26 24 25 29 26 27 27 27 29 31 31 32 35 36 37 39 40 41 42 43 42 43 42
21 21 17 28 28 25 26 28 29 29 30 29 29 29 29 29 26 24 24 24 23 23 25 26 27 25 25 24 25 26 27 27 28 30 32 32 36 38 40 41 41 41 41 40
22 22 26 29 30 30 29 28 29 30 30 30 29 29 28 25 21 21 21 21 21 22 22 22 23 22 23 22 23 24 24 24 25 26 27 30 32 34 36 38 38 39 39 39
26 25 28 28 29 30 30 29 31 31 30 30 28 26 23 21 20 19 19 19 20 21 21 20 19 19 20 21 23 23 23 24 24 25 26 26 28 32 33 37 37 37 37 37
26 27 28 29 29 30 30 30 30 30 28 26 25 23 21 20 19 18 19 20 21 20 21 20 19 19 21 22 22 22 23 23 24 25 25 26 27 28 31 32 37 37 37 37
19 27 27 29 29 30 30 29 27 26 25 24 24 22 20 18 18 17 18 17 17 19 17 18 18 20 21 22 23 23 24 25 26 27 28 28 28 29 31 32 34 38 40 40
27 28 27 29 30 30 30 28 26 25 24 22 19 18 18 18 18 21 19 17 15 15 16 14 17 18 19 21 23 24 25 26 28 28 28 28 28 27 27 29 32 33 38 40
28 28 28 29 28 30 28 27 26 24 21 18 17 17 18 19 18 17 16 15 15 15 16 16 15 15 18 21 22 24 26 28 27 27 27 28 29 28 28 28 29 29 33 37
28 29 23 27 28 28 25 21 18 16 14 14 15 17 17 16 15 15 15 16 17 17 18 18 16 17 20 20 22 24 25 27 26 26 27 28 28 29 28 26 27 29 30 33
28 23 22 21 21 20 18 16 14 14 14 15 15 15 14 15 16 17 17 17 17 16 17 17 18 19 21 22 24 25 26 28 27 26 26 28 28 29 27 25 26 28 29 30
27 24 24 26 23 17 17 14 15 16 17 17 17 17 17 17 18 18 18 19 19 19 19 21 21 22 24 25 25 26 27 26 28 27 26 27 28 29 27 25 26 27 28 28
21 19 20 21 25 19 18 20 22 23 24 25 25 23 23 23 23 23 23 23 22 21 22 23 24 24 26 26 27 28 26 26 26 26 26 27 27 28 25 25 25 26 28 27
17 20 20 18 20 20 23 25 25 25 25 25 24 23 24 23 23 23 22 22 22 21 21 22 25 26 26 27 27 28 27 27 27 27 27 27 27 27 25 25 26 27 29 27
19 20 20 19 19 19 18 17 17 17 17 17 18 19 19 20 20 21 22 22 22 21 23 24 27 28 27 28 32 31 30 29 27 27 27 26 26 27 27 27 28 29 26 25
24 23 21 20 18 17 18 19 18 18 18 18 17 17 17 17 17 20 21 20 20 21 25 27 26 28 29 31 30 29 29 28 27 29 29 27 28 27 26 26 25 25 24 25
22 22 20 21 19 18 19 19 17 15 15 16 17 16 17 17 18 19 19 21 22 24 24 26 26 26 29 30 30 29 29 29 30 28 26 26 25 25 25 25 26 25 26 28
21 21 21 20 19 18 18 17 16 16 16 18 18 17 18 18 18 19 18 21 22 24 24 24 24 26 27 27 27 27 29 28 26 25 25 26 26 26 27 28 28 29 30 30
18 19 20 20 19 18 16 17 17 17 17 17 18 19 18 18 18 19 21 22 23 22 22 22 24 26 27 28 30 28 27 26 25 25 26 26 27 27 27 28 29 30 31 31
19 19 20 18 16 13 15 16 16 16 14 15 16 16 19 19 20 19 20 19 21 21 20 23 25 26 26 28 27 26 26 26 26 26 25 25 25 25 26 27 28 29 30 30
17 15 14 13 13 13 13 14 13 13 13 13 13 15 17 17 18 17 18 19 19 20 21 23 25 26 26 26 26 25 25 25 24 23 25 24 24 24 25 25 26 27 28 29
17 16 13 12 12 12 13 14 13 12 13 13 14 17 16 16 16 17 18 18 19 20 21 23 25 26 26 25 24 24 23 22 23 23 22 23 23 23 23 24 25 26 26 27

GFSNGP_sfc_dewp_090.txt.gz
Dewpoint
26 27 30 28 28 28 27 24 23 26 27 29 31 32 31 30 30 30 30 31 31 31 31 31 32 33 34 35 36 36 37 37 38 40 40 41 42 44 46 45 45 46 48 47
26 25 27 25 25 28 29 29 25 26 27 30 32 33 31 30 30 30 31 31 31 31 31 31 32 33 35 35 36 36 36 37 39 40 40 41 41 42 43 45 45 45 45 45
25 26 24 23 22 25 28 30 30 28 29 30 32 33 33 30 30 30 31 31 31 30 31 31 32 33 34 35 36 36 36 36 37 39 40 40 41 41 42 43 45 44 44 44
24 24 17 23 26 28 26 28 31 31 31 33 33 32 30 30 30 31 31 30 30 30 31 30 31 33 32 33 35 35 35 36 37 37 38 39 40 41 41 42 43 43 43 43
22 21 21 23 26 27 27 27 30 30 31 32 31 30 29 30 31 30 30 30 30 30 30 30 29 30 29 32 32 32 33 33 35 36 36 37 38 38 40 41 42 43 44 43
25 21 17 24 28 29 29 24 30 31 31 32 31 30 29 31 31 30 30 30 30 29 29 28 28 27 27 29 29 29 31 32 32 34 35 37 37 38 39 40 41 43 43 43
23 21 23 26 28 29 21 23 30 30 29 30 30 29 30 30 30 29 26 26 25 25 24 24 27 26 26 27 27 29 29 30 30 31 32 34 35 36 38 39 41 41 42 42
21 19 15 28 28 26 27 28 29 30 30 30 30 30 30 29 26 24 24 24 23 23 24 25 26 26 25 25 26 25 26 27 27 27 28 28 30 33 34 36 37 40 40 41
22 24 27 29 30 30 29 29 29 31 31 30 30 29 28 26 22 21 20 20 20 21 22 22 22 22 22 22 22 23 24 24 24 25 26 26 26 28 32 32 32 34 37 38
25 26 27 28 29 30 30 29 31 31 31 30 28 26 24 22 21 20 20 20 21 21 21 20 20 19 19 20 22 22 22 23 24 24 25 25 26 28 30 30 31 31 34 35
26 26 29 28 30 30 30 30 30 30 28 27 25 24 22 21 20 19 19 21 21 20 20 21 19 18 18 20 21 22 22 23 23 25 25 26 27 27 28 29 30 29 29 34
24 27 27 29 29 30 30 29 29 27 26 26 24 24 22 19 19 18 19 20 20 20 19 19 19 19 19 20 21 23 23 24 26 27 27 27 28 28 30 30 31 31 31 32
27 29 29 29 30 31 30 29 26 25 25 24 22 19 18 18 19 22 20 19 18 18 18 16 17 18 18 18 21 23 24 25 27 28 28 27 27 27 27 28 30 29 30 30
28 29 29 29 29 30 28 27 27 25 22 20 19 17 18 18 19 18 17 17 16 16 17 17 17 17 18 18 19 23 24 28 27 26 26 26 26 26 26 26 26 26 27 30
28 27 27 29 29 29 27 24 20 18 16 15 15 16 17 17 17 17 17 17 18 18 18 17 17 17 18 18 21 22 23 25 27 28 26 26 26 27 28 27 24 25 25 26
29 24 24 24 25 23 21 18 16 15 15 16 17 17 17 16 16 17 18 18 18 18 19 19 20 20 21 21 22 24 25 28 28 27 25 26 26 26 26 28 27 25 25 24
23 21 22 22 20 18 18 16 16 18 19 20 21 23 22 21 21 20 20 21 21 22 22 22 22 23 24 24 23 24 25 27 28 27 26 25 24 25 26 27 28 23 24 26
24 25 23 23 22 18 19 20 22 22 22 23 24 22 20 19 20 21 22 22 22 22 22 23 24 27 27 26 26 28 28 30 29 27 28 27 26 27 27 28 26 23 24 26
19 19 20 20 21 21 21 20 19 20 20 20 19 17 18 18 18 19 20 20 20 20 20 26 28 27 26 27 29 30 30 30 29 29 29 29 26 26 25 25 24 24 25 26
21 21 20 20 19 18 17 18 18 18 18 18 17 17 17 17 17 17 18 18 20 20 21 23 24 25 26 27 29 30 31 29 28 27 28 27 27 27 26 27 27 26 27 27
21 21 21 21 18 19 19 19 18 16 15 16 17 16 16 16 16 17 17 17 18 21 22 23 24 24 24 26 29 29 28 28 27 27 27 28 27 25 25 26 25 24 24 24
20 17 16 18 19 18 18 18 17 16 16 17 17 17 17 16 16 17 18 18 19 24 22 24 24 25 27 28 28 27 25 25 26 28 26 25 24 24 24 24 24 26 26 26
20 20 18 18 18 16 17 17 16 16 16 15 15 16 16 16 17 17 16 19 21 22 23 23 24 27 29 28 27 27 28 27 26 26 25 24 24 25 25 25 25 26 26 27
19 19 18 17 14 14 13 15 15 17 16 16 16 16 15 15 17 17 19 21 22 21 21 21 23 26 27 26 26 27 26 26 26 25 25 26 25 24 24 24 25 26 27 28
19 17 15 13 14 15 15 16 14 13 14 15 15 16 16 18 16 17 19 18 21 21 21 23 24 25 26 26 26 25 25 25 25 25 23 23 23 22 23 23 24 24 26 27
18 17 15 14 14 14 15 15 15 14 14 14 13 14 17 17 17 17 17 18 19 20 19 21 22 24 27 25 25 24 24 23 22 22 22 22 22 21 21 21 22 23 24 26
16 18 15 14 13 13 13 15 15 13 14 13 13 16 17 15 15 16 17 16 18 17 18 19 21 23 27 26 24 23 23 23 22 22 20 19 19 19 19 19 21 23 24 24

GFSNGP_sfc_dewp_093.txt.gz
Dewpoint
27 26 28 27 26 29 28 26 23 27 28 30 32 31 30 29 30 30 30 31 31 31 31 31 32 33 35 35 36 36 37 37 39 40 40 41 41 41 42 43 45 45 45 47
25 25 25 23 24 27 29 29 27 27 28 31 32 30 29 29 30 30 31 31 31 31 31 31 32 33 34 35 35 36 36 36 37 38 39 40 40 41 41 42 43 44 44 44
23 28 24 22 22 25 28 30 30 27 30 32 32 32 30 30 30 31 31 31 30 30 30 31 31 33 32 32 34 35 35 36 36 37 37 38 39 40 40 41 41 42 43 43
20 23 15 23 26 27 26 29 31 31 32 33 32 30 30 31 30 31 30 30 30 30 30 30 30 32 30 32 33 31 34 33 34 35 35 36 37 38 38 39 40 41 42 44
19 18 21 23 26 27 26 27 30 30 32 31 31 30 29 30 31 30 31 30 30 30 30 29 28 29 28 29 30 30 32 31 32 33 33 35 35 36 37 39 39 41 42 42
23 19 16 23 27 29 28 23 29 31 32 31 31 29 30 31 30 30 30 29 29 28 27 26 25 26 26 26 28 28 30 30 31 31 31 33 33 34 35 36 38 39 41 42
23 20 22 26 28 29 20 18 30 30 30 31 30 30 31 31 31 30 28 26 26 25 24 24 25 27 27 26 26 27 29 28 29 29 28 30 31 31 33 33 35 35 35 38
21 18 12 27 28 23 25 29 29 30 30 29 30 30 30 29 27 25 24 24 23 23 23 25 26 27 27 25 26 26 26 26 26 26 26 27 27 29 29 31 32 31 31 33
20 20 25 29 30 30 29 29 29 30 30 30 30 29 29 27 24 21 20 20 20 21 21 21 21 22 21 21 21 22 22 23 23 24 24 25 25 26 27 30 30 30 30 30
23 23 26 28 31 30 29 31 30 31 31 30 29 26 24 23 22 20 20 19 21 21 20 20 20 21 20 19 20 21 21 22 23 23 24 25 26 27 27 28 28 29 29 28
25 26 27 29 29 30 30 30 30 29 28 27 25 24 22 21 20 19 19 20 21 20 19 19 19 18 17 18 19 19 20 21 22 24 24 25 26 27 27 28 29 29 27 27
23 26 26 28 29 30 30 30 30 28 26 25 24 23 23 20 19 19 19 20 20 20 20 19 19 19 19 19 19 19 19 21 24 26 27 27 27 27 29 30 31 31 31 28
26 28 28 29 30 30 30 29 27 25 24 23 22 19 17 17 18 22 20 19 18 18 18 17 18 19 20 20 20 20 19 21 24 26 27 27 25 25 24 25 28 28 30 28
28 29 28 29 28 29 28 27 28 24 21 20 19 17 17 17 18 18 18 18 17 17 17 18 18 18 18 19 19 19 20 25 25 26 26 26 25 25 26 25 25 26 27 27
28 27 28 30 29 28 27 24 19 16 15 15 16 17 17 17 17 17 18 18 19 19 19 19 20 21 21 22 22 22 22 23 24 26 27 26 27 26 26 26 26 27 26 25
26 26 27 28 28 25 21 18 15 14 17 18 19 21 22 21 20 21 21 20 21 21 22 22 22 22 23 27 27 25 25 26 26 25 27 30 28 25 25 25 25 26 26 26
22 22 22 21 22 19 17 16 18 20 20 20 21 22 21 21 21 20 21 22 22 21 21 22 22 24 27 27 25 25 25 26 29 28 31 29 29 28 27 26 25 26 26 25
25 24 23 22 22 18 19 21 21 20 20 22 22 20 18 16 16 18 18 19 19 20 21 22 24 25 25 25 25 26 28 28 27 27 29 29 28 28 27 27 27 26 26 25
22 21 21 20 20 20 20 20 20 20 19 19 18 17 16 14 15 16 18 18 18 17 18 21 24 24 23 25 25 25 28 28 27 29 29 28 27 27 27 26 25 25 25 25
20 21 20 19 19 18 17 18 18 18 17 16 16 17 16 16 17 17 17 16 17 18 20 22 22 23 23 23 26 25 26 25 25 25 26 27 27 27 27 28 27 25 26 27
20 21 21 20 19 20 19 18 17 15 16 17 17 16 16 16 16 16 16 16 17 19 21 22 23 22 23 26 29 28 26 25 25 25 26 26 28 26 25 24 24 24 24 24
18 17 18 19 18 18 18 18 16 16 16 17 16 16 16 15 15 16 17 17 18 23 22 23 22 24 25 29 27 26 25 26 26 26 26 25 25 24 23 23 24 24 25 25
19 19 19 19 18 17 17 17 16 16 17 17 15 16 15 15 15 15 16 18 20 21 22 22 23 25 26 26 25 25 25 25 25 25 25 24 24 24 24 23 23 24 24 24
20 20 18 19 17 17 15 16 16 17 17 17 16 16 14 12 15 15 17 20 21 21 20 21 23 24 26 24 25 25 24 23 23 23 24 23 22 23 22 22 22 23 23 24
19 17 17 16 17 16 16 16 15 15 15 15 15 15 14 16 14 16 15 17 20 20 19 20 23 24 22 24 25 24 23 23 23 22 21 21 20 20 20 21 21 21 23 23
17 17 18 17 16 15 15 15 15 15 15 14 14 14 14 17 16 16 16 17 17 19 16 16 18 21 21 23 25 23 23 23 22 21 21 19 19 18 19 19 19 20 21 23
18 19 15 14 14 13 14 14 15 13 14 14 13 14 17 15 14 15 16 15 17 17 15 15 16 19 21 24 23 22 22 22 22 22 20 19 18 17 17 17 18 20 22 22

GFSNGP_sfc_dewp_096.txt.gz
Dewpoint
26 27 27 27 24 27 27 27 22 27 28 30 32 31 31 31 30 30 30 30 31 31 31 31 32 34 34 34 35 36 36 37 37 38 38 39 39 40 41 42 42 43 44 45
23 26 25 24 23 26 29 29 27 28 28 31 32 30 29 29 30 30 31 31 31 30 31 31 31 33 32 32 34 35 35 35 35 35 36 36 37 39 39 40 40 41 41 42
18 26 25 22 22 25 28 30 30 26 29 32 30 30 29 29 30 31 31 30 30 30 30 30 30 33 30 31 33 31 33 33 32 33 34 35 36 37 37 37 38 38 39 41
19 21 12 24 26 27 26 30 31 31 32 32 32 30 30 31 31 31 30 30 30 30 30 30 30 31 29 30 30 30 29 31 31 32 32 32 34 33 34 36 37 38 38 39
18 17 19 22 25 26 26 26 30 31 32 30 30 30 28 30 31 30 31 30 30 30 29 29 27 29 27 27 27 28 27 30 29 30 30 30 30 31 32 34 34 36 38 38
23 18 15 20 27 29 26 19 28 31 32 31 31 28 30 30 30 30 30 29 28 27 26 25 24 27 26 26 26 26 26 28 29 29 29 28 29 30 31 32 32 34 36 35
23 20 22 25 28 28 18 9 30 31 32 32 30 31 31 31 30 30 27 24 26 24 24 24 25 26 26 26 26 27 28 28 28 28 27 27 28 29 28 29 30 30 31 32
21 19 13 28 28 21 20 29 30 30 30 30 31 30 31 30 29 26 24 23 23 22 23 23 24 23 23 23 24 22 22 24 25 25 25 25 25 26 26 26 28 28 29 29
20 19 21 28 26 29 28 28 29 30 30 30 30 29 30 29 26 22 20 20 20 20 21 21 21 21 20 20 20 19 20 21 21 21 22 23 24 24 25 26 27 27 28 29
22 21 25 27 30 30 29 30 31 31 30 30 29 28 25 23 22 21 20 19 20 20 20 19 19 19 20 20 18 18 18 19 19 20 21 23 25 25 26 26 26 27 28 26
24 25 26 27 29 30 30 31 30 30 30 28 26 24 22 21 20 19 19 20 20 20 20 20 19 18 17 17 18 17 17 18 18 20 20 22 24 26 27 27 28 28 29 29
22 25 23 24 29 30 30 30 30 28 26 25 24 23 22 20 19 18 18 20 20 20 19 19 19 19 19 19 20 19 19 19 20 20 21 24 26 26 29 30 29 30 30 29
26 27 28 29 30 30 30 30 29 26 25 24 22 18 17 16 17 21 18 18 18 18 18 17 18 19 20 20 21 20 20 20 21 23 23 24 26 25 24 25 28 28 29 29
29 29 27 29 29 30 29 28 28 24 21 19 18 17 17 17 18 18 18 19 19 19 19 19 20 20 21 22 22 23 23 26 24 23 24 25 26 26 25 25 24 25 27 28
28 28 28 29 29 27 26 24 18 15 15 16 18 19 20 19 19 19 20 21 21 21 21 22 21 21 23 23 25 26 25 24 24 25 26 27 27 28 27 26 25 24 25 27
27 29 29 29 28 26 22 18 15 15 18 19 19 20 21 21 20 21 21 21 20 19 20 20 21 22 24 26 26 24 24 26 27 27 27 28 28 28 29 28 26 25 25 25
24 24 24 25 26 21 18 16 16 19 19 18 20 21 20 19 19 18 17 18 19 19 20 21 21 22 25 23 23 23 23 23 27 26 26 27 28 28 28 27 26 26 26 26
26 26 24 24 23 19 20 21 20 20 21 21 20 19 18 17 16 17 17 18 18 18 19 20 21 23 22 22 23 24 24 25 25 25 24 26 27 28 27 27 26 26 26 27
24 24 23 22 20 20 21 20 21 21 21 20 19 17 17 16 16 17 17 17 17 16 17 19 24 23 22 23 24 24 24 25 24 24 24 25 25 26 26 25 26 26 26 25
21 21 20 20 20 18 18 18 18 18 16 16 17 16 15 16 16 16 16 16 17 17 19 21 22 22 22 22 25 28 27 24 24 24 25 25 26 26 27 27 26 25 24 24
22 22 21 20 18 19 19 18 17 15 16 17 16 15 15 16 15 16 16 15 17 18 20 22 22 21 22 25 29 24 23 23 24 24 24 24 25 24 24 23 24 23 23 23
20 19 19 20 19 18 18 18 17 16 16 17 16 15 16 15 15 15 17 17 18 22 21 23 22 24 26 28 23 23 23 23 23 23 22 23 23 23 23 23 23 22 22 23
19 19 20 19 19 17 18 17 16 16 17 17 16 16 16 16 16 15 15 18 19 20 21 20 22 24 26 24 22 23 22 22 21 21 22 22 22 21 21 22 22 22 21 22
18 19 19 18 16 17 17 17 17 18 17 18 17 18 16 14 15 16 17 19 20 21 20 20 21 23 25 21 21 22 22 21 21 21 21 21 20 19 19 19 19 19 19 20
19 18 18 16 16 17 17 17 16 15 15 16 16 16 16 17 16 16 15 16 19 19 19 19 20 22 20 20 20 23 22 21 22 22 20 19 18 17 17 18 18 18 20 20
18 17 17 16 17 17 16 15 15 15 15 14 14 14 15 17 17 16 15 17 16 18 16 15 15 16 18 19 22 21 21 21 20 20 20 18 17 17 17 17 17 18 18 20
15 19 17 16 16 15 15 15 15 15 15 14 14 15 16 16 15 15 15 14 14 15 14 14 14 15 16 17 19 20 20 19 19 20 19 18 17 17 17 18 18 19 20 21

GFSNGP_sfc_dewp_099.txt.gz
Dewpoint
26 26 27 26 26 24 26 25 21 25 26 29 31 32 32 32 30 30 30 30 31 31 31 31 32 33 31 32 35 34 36 34 34 35 36 36 36 38 38 39 39 40 41 41
23 28 27 25 25 24 28 28 27 27 27 31 31 30 29 29 30 30 30 31 30 30 30 30 30 32 30 30 33 31 33 32 32 32 32 33 34 35 36 36 37 38 38 39
19 23 24 21 23 24 28 29 28 26 28 32 31 30 29 29 30 30 31 31 29 30 30 30 29 31 29 29 29 29 28 31 30 30 30 31 32 33 32 33 35 35 37 38
20 19 8 20 26 26 25 28 31 31 31 32 31 31 31 31 30 31 31 30 30 30 30 29 29 29 28 28 26 27 26 27 29 28 28 29 29 29 30 32 32 34 34 36
18 16 17 22 24 26 26 24 30 30 31 31 30 29 29 31 32 31 29 30 30 30 29 27 25 27 27 26 26 26 25 26 27 28 28 27 27 27 28 31 30 31 33 34
22 18 13 15 27 30 25 18 28 31 32 30 30 27 30 30 31 31 30 29 28 27 25 23 23 25 26 26 26 25 26 26 27 28 27 27 27 27 28 28 29 30 31 31
23 20 23 24 29 28 16 10 29 31 32 31 30 30 30 31 30 31 27 24 25 25 23 23 24 24 22 23 22 25 24 24 25 26 26 26 26 26 26 26 27 27 28 29
21 19 15 28 28 21 21 28 30 30 31 32 31 30 31 30 28 25 22 22 21 21 21 22 22 21 20 20 22 22 20 20 19 20 20 20 23 24 24 24 25 26 26 27
21 20 21 26 25 28 27 28 30 29 30 30 29 29 29 29 25 21 20 20 19 20 21 20 19 19 18 19 20 18 18 18 18 18 19 19 20 22 23 25 25 25 27 27
23 22 23 25 28 30 29 28 30 30 30 30 29 29 28 23 22 20 19 19 20 20 19 19 19 19 18 18 18 18 17 17 18 18 19 20 20 21 23 24 25 26 27 27
24 25 25 26 27 30 30 30 30 30 30 30 28 25 23 21 19 19 18 19 20 20 19 19 19 18 18 18 19 19 19 19 19 19 19 20 21 22 24 26 27 27 28 28
23 24 22 21 27 29 30 30 30 28 26 25 25 23 22 19 18 17 19 19 18 19 19 19 19 19 20 20 21 21 21 21 22 22 22 23 23 23 28 30 31 31 30 29
26 26 25 28 30 29 30 30 30 27 26 23 21 18 16 16 18 20 18 18 18 19 19 19 20 21 21 22 23 22 23 24 24 24 23 23 23 24 25 26 29 29 29 29
28 29 27 28 28 30 30 29 30 24 22 20 18 17 17 17 18 18 19 20 20 21 21 21 21 21 22 23 23 24 25 26 24 24 24 25 25 25 26 25 25 25 27 27
28 28 28 29 30 28 27 23 20 16 15 17 18 19 18 17 18 20 21 20 20 19 19 20 20 21 22 23 25 25 23 23 23 25 26 27 26 26 26 26 25 26 27 27
27 27 27 28 28 26 24 20 16 15 16 18 19 19 20 20 20 20 19 18 18 17 18 19 21 21 22 24 25 22 21 23 23 23 25 25 24 24 24 25 27 27 25 25
23 24 25 25 27 24 22 17 15 17 19 18 18 20 19 19 18 17 16 17 18 18 19 19 20 21 22 24 21 22 23 23 26 24 24 24 23 24 25 25 26 23 24 26
27 27 28 28 27 21 18 19 20 20 19 20 21 19 17 17 17 17 17 18 17 17 18 19 20 23 23 21 22 23 23 24 24 25 24 22 23 25 25 25 25 24 24 25
25 25 24 26 23 20 22 21 21 21 21 20 18 17 18 18 17 17 17 17 17 16 16 18 23 23 21 22 23 23 24 25 23 21 22 23 23 24 24 25 26 27 27 26
21 21 21 21 21 20 19 19 18 18 18 17 17 17 16 16 16 16 16 16 16 17 18 20 22 22 22 22 25 26 23 23 21 20 22 22 21 22 24 23 23 24 23 23
18 20 20 20 18 19 18 18 17 15 15 16 16 15 15 15 15 16 16 15 16 18 20 21 22 22 21 24 27 24 21 21 20 20 20 21 21 21 22 22 24 23 22 22
17 16 16 18 18 17 18 18 16 15 16 17 17 15 15 15 15 16 17 17 18 21 20 21 22 21 23 27 24 21 22 21 21 20 20 20 20 19 19 19 20 21 21 21
18 17 17 18 18 17 17 17 16 16 17 18 16 16 16 16 16 15 15 18 19 20 21 20 21 22 24 25 21 20 20 20 20 20 20 20 20 19 19 18 18 19 18 19
17 18 16 15 13 14 13 16 17 18 18 18 17 18 17 15 16 17 18 19 19 20 20 20 20 21 23 20 19 19 19 18 19 19 20 21 19 18 17 17 17 17 17 18
17 15 14 13 13 14 15 17 16 15 16 17 17 17 17 17 16 16 16 16 18 18 18 19 20 20 17 16 17 19 17 17 19 20 18 19 18 17 17 17 17 17 19 18
17 17 17 16 15 16 16 16 14 15 15 14 15 15 15 16 18 17 16 16 16 17 15 16 14 15 15 15 17 17 18 18 18 17 19 18 18 18 18 18 18 18 18 18
15 20 16 16 16 16 16 15 15 15 16 15 14 15 15 17 15 15 15 14 14 14 14 14 12 13 15 15 15 15 16 17 17 18 17 15 17 17 18 18 18 18 19 19

GFSNGP_sfc_dewp_102.txt.gz
Dewpoint
26 26 26 26 26 26 25 24 21 22 25 28 31 33 33 34 32 30 30 30 31 31 31 30 32 31 30 31 32 31 32 31 30 31 31 31 31 33 33 33 34 36 37 37
22 27 27 26 26 25 24 28 26 27 27 30 30 29 30 31 30 30 30 30 30 30 30 29 29 31 29 28 29 28 27 29 29 29 29 29 29 30 30 31 32 33 32 34
20 23 23 21 23 25 25 28 27 26 27 31 30 30 30 29 30 30 31 31 30 29 30 29 29 30 28 27 26 26 25 26 27 28 28 28 28 28 28 29 31 31 31 33
20 20 8 17 25 26 26 26 30 29 31 32 31 31 30 30 30 30 31 30 30 30 29 29 28 28 27 27 26 25 25 25 25 27 27 27 27 26 26 28 29 29 30 32
17 16 18 18 23 24 24 22 28 30 30 30 30 28 29 31 31 31 31 30 30 30 28 25 23 25 26 25 25 25 24 24 25 26 26 26 26 26 26 28 27 28 29 30
21 17 9 8 26 29 25 17 24 31 31 30 29 27 30 31 31 30 30 29 27 26 24 23 23 24 24 23 24 24 24 24 24 25 25 24 24 24 25 27 27 28 28 29
23 20 22 24 28 28 16 6 28 31 32 30 29 31 30 31 30 30 29 24 25 24 22 22 22 22 21 22 22 23 24 23 22 22 21 22 22 23 23 23 24 24 26 27
21 19 15 27 27 21 20 26 29 30 31 31 30 30 30 30 30 26 23 21 20 20 21 22 21 20 18 18 20 20 19 19 19 19 19 19 20 22 22 22 23 24 24 25
20 20 22 26 27 27 26 27 29 29 30 31 31 30 31 29 25 21 20 19 19 20 19 19 19 18 17 18 18 18 18 18 18 18 18 19 19 19 20 21 23 23 25 26
23 22 23 24 25 28 28 27 28 30 30 30 29 29 29 25 22 20 19 18 19 18 18 17 18 18 18 18 19 19 19 19 19 19 21 20 20 21 21 22 22 24 25 26
23 24 25 25 25 26 28 29 30 30 30 30 29 28 25 22 20 18 18 20 19 18 18 18 18 19 19 20 20 21 21 21 21 22 22 22 22 22 23 24 25 26 28 29
22 24 23 24 25 28 28 29 30 30 28 27 27 24 22 20 18 18 19 18 18 19 19 20 20 21 21 21 22 22 22 23 23 23 23 23 23 23 26 28 29 30 30 29
27 27 26 26 27 29 29 30 30 29 27 25 23 22 19 16 18 21 18 18 19 20 20 20 20 21 21 22 23 23 23 23 23 23 22 23 23 23 22 24 28 28 29 30
29 27 27 28 28 29 30 30 32 26 25 23 18 17 17 17 19 17 18 20 20 20 19 19 20 20 21 22 23 24 24 24 22 23 23 23 23 25 23 22 23 23 26 27
27 28 28 28 28 28 28 26 23 21 18 16 17 17 17 16 16 18 20 19 18 18 18 18 19 20 21 22 23 24 22 21 21 22 22 24 24 24 22 21 22 24 26 28
27 27 27 28 28 27 26 24 22 17 16 17 18 18 18 18 19 20 18 17 17 16 17 18 19 20 21 22 24 21 20 23 24 24 24 22 23 22 21 23 24 24 26 25
22 23 25 24 26 25 25 21 20 16 17 18 18 19 19 18 18 17 16 16 17 17 17 18 19 20 21 24 21 20 21 22 25 23 22 23 23 22 21 23 24 24 25 25
27 27 27 27 25 25 22 20 18 19 19 19 20 19 18 17 17 16 17 17 17 17 17 18 19 21 23 21 21 22 21 23 23 23 23 22 22 24 23 22 23 24 25 27
25 26 26 27 27 24 21 19 20 20 20 20 19 18 18 18 18 17 17 16 16 16 16 17 21 23 22 22 23 23 23 23 23 22 21 23 22 22 20 21 23 22 23 23
22 22 23 22 22 21 20 19 19 18 19 18 17 17 16 16 16 16 15 15 16 16 18 19 22 22 22 21 24 24 25 22 21 20 20 21 21 20 21 20 19 19 20 21
18 19 21 22 19 19 19 18 17 16 16 16 15 15 15 15 15 15 15 15 16 17 19 22 20 22 20 22 25 24 21 21 22 22 21 20 20 19 19 18 18 18 18 19
17 16 14 17 17 17 17 17 16 15 15 16 16 16 15 15 15 15 16 17 17 20 20 20 22 22 22 24 24 20 19 19 20 20 20 19 20 20 19 18 17 17 18 18
19 18 17 17 17 15 15 16 15 15 15 16 16 16 16 16 16 15 14 18 19 20 20 21 22 23 23 21 19 18 18 18 19 18 19 19 20 20 19 17 17 17 16 16
19 18 17 16 13 11 12 13 13 16 15 17 16 16 15 14 16 17 18 20 19 19 20 20 21 22 22 16 15 15 16 17 18 17 18 20 18 19 17 17 17 17 16 16
20 18 16 14 15 15 15 14 12 12 13 15 15 16 15 16 15 16 16 17 18 18 18 19 20 20 16 14 13 13 15 16 17 19 17 17 17 17 17 17 17 17 19 18
18 18 17 17 16 16 15 16 15 15 15 15 15 15 16 16 16 18 16 17 17 17 16 15 15 15 14 13 14 15 14 15 15 16 17 17 16 16 17 17 18 18 18 18
16 21 17 16 16 15 15 16 14 14 16 14 14 15 15 16 17 17 17 15 14 15 15 14 13 13 14 13 14 13 13 14 15 16 17 15 15 15 16 17 18 19 20 21

GFSNGP_sfc_dewp_105.txt.gz
Dewpoint
27 28 28 27 26 26 25 24 24 23 25 27 30 34 35 36 36 32 30 30 31 31 30 30 31 30 28 28 29 28 29 28 28 28 28 28 27 28 27 29 30 29 29 30
23 26 27 26 27 27 26 26 26 26 27 29 31 33 33 33 32 30 30 31 31 31 30 29 29 30 28 27 26 26 25 26 27 27 27 27 27 27 26 27 29 28 28 29
21 23 22 17 20 25 26 26 26 26 28 31 31 31 32 31 30 30 30 31 31 30 30 29 28 30 27 27 26 25 24 24 24 25 25 26 26 25 24 25 28 27 27 28
21 20 3 10 24 25 25 26 29 29 29 31 32 32 31 31 30 30 31 32 30 30 30 29 28 28 27 27 25 25 24 22 23 24 23 24 24 24 24 25 26 26 27 28
18 17 16 8 23 24 23 21 26 27 30 32 31 31 31 31 31 31 31 31 30 30 28 26 23 25 25 24 24 24 23 22 22 23 23 23 23 24 24 25 25 26 26 27
22 17 10 5 23 28 24 15 19 30 30 31 30 29 31 31 31 31 31 30 30 27 24 22 23 22 21 22 22 22 23 23 23 23 23 22 23 24 24 24 24 26 25 27
24 20 23 22 27 26 17 7 25 31 31 30 30 31 31 31 31 31 30 27 25 23 22 22 21 21 20 21 21 22 23 22 21 21 21 21 22 22 23 23 23 24 24 26
21 20 16 26 27 20 20 23 27 30 30 32 31 31 31 30 30 28 24 23 21 20 21 22 21 20 18 18 19 20 20 20 20 20 20 20 21 22 22 21 21 22 22 23
20 21 22 26 26 26 24 26 28 29 30 32 32 31 31 30 29 25 21 20 20 20 19 19 19 19 17 17 18 19 19 19 20 20 20 21 21 21 21 21 21 22 23 24
21 22 22 23 24 26 27 28 28 29 29 31 31 31 30 30 26 21 19 19 19 18 17 17 18 18 18 19 20 20 20 21 21 21 23 22 22 22 22 22 23 23 24 25
22 24 24 24 25 25 26 27 29 29 30 30 30 30 29 27 23 20 19 20 19 17 17 18 19 19 20 21 21 21 21 22 22 22 23 23 22 23 23 24 25 25 27 27
23 24 23 23 25 25 27 27 29 29 29 30 30 29 26 23 20 18 19 18 18 19 19 20 20 20 21 22 22 22 22 22 22 22 22 22 22 21 25 26 27 26 27 27
26 27 27 27 27 27 28 28 29 30 30 28 26 24 23 18 18 21 18 18 18 19 20 20 19 20 21 22 22 23 23 22 22 22 21 22 22 21 22 23 26 25 26 26
28 27 27 27 27 29 29 30 31 29 28 25 22 19 17 17 22 16 16 19 20 19 18 18 18 19 20 21 21 23 23 24 21 21 22 23 24 24 21 22 22 22 23 25
29 28 28 28 27 28 28 28 27 25 22 19 17 17 17 16 16 17 20 20 17 17 17 17 18 19 20 21 21 23 22 20 21 23 24 24 21 22 22 21 21 21 22 24
27 27 26 25 26 27 27 26 25 23 19 17 17 17 16 16 17 19 19 17 15 15 16 17 17 19 20 21 22 23 20 22 24 23 23 22 22 23 21 20 21 22 22 22
23 22 24 24 27 27 27 26 25 21 18 17 18 18 18 18 18 18 16 16 16 16 17 17 18 19 20 22 23 20 20 22 25 22 21 21 22 21 23 22 20 20 20 23
25 26 27 27 26 27 26 24 23 20 19 19 19 19 17 16 15 16 16 17 17 16 17 18 18 20 23 23 21 22 23 22 23 23 22 21 21 21 21 20 19 20 19 20
26 27 27 27 27 27 25 23 21 20 20 19 18 16 15 14 15 17 17 16 15 15 15 17 20 22 22 22 22 23 23 23 22 22 20 21 21 20 19 19 19 19 18 17
24 23 23 24 26 25 22 20 19 18 19 18 17 16 15 15 16 16 15 15 15 16 17 19 22 22 22 22 23 24 25 22 20 20 21 21 19 19 19 19 18 18 18 17
22 21 22 23 23 22 21 19 18 17 17 16 15 14 14 15 16 15 14 14 15 17 18 21 20 21 22 22 25 24 21 19 19 20 20 19 19 18 18 18 18 17 17 17
19 18 18 19 20 19 19 19 17 16 16 15 15 15 15 14 15 14 15 16 17 19 20 20 21 22 22 24 22 19 18 18 18 18 18 18 18 17 18 18 18 18 18 18
20 19 18 18 18 18 17 17 16 15 15 15 15 16 15 15 15 14 14 17 19 19 21 21 21 22 23 20 17 16 16 16 16 17 17 17 18 18 17 18 19 19 18 18
20 19 17 17 15 15 15 16 15 16 15 16 15 16 15 13 14 15 17 19 20 19 20 20 20 21 21 17 15 14 14 14 15 16 16 19 16 17 17 17 18 18 19 18
21 19 17 16 16 16 17 16 15 14 15 15 15 16 15 15 14 13 14 17 18 19 18 19 20 19 17 15 14 13 14 14 14 17 15 15 16 16 16 17 17 19 21 21
21 21 19 18 17 17 17 15 14 15 15 15 15 16 16 16 16 17 16 18 16 17 16 15 15 16 15 14 14 15 14 13 14 14 16 15 16 15 16 16 17 18 20 21
22 24 19 18 18 17 16 16 15 14 17 15 14 15 15 16 15 16 18 15 14 13 15 15 14 13 14 14 14 13 13 13 14 15 15 14 14 14 16 16 17 18 20 21

GFSNGP_sfc_dewp_108.txt.gz
Dewpoint
30 28 28 28 27 26 27 26 22 19 23 23 27 33 34 35 36 36 35 33 31 32 30 29 30 29 26 24 24 24 25 25 26 25 24 24 24 23 22 21 22 23 22 21
28 26 26 26 26 26 26 26 25 24 23 25 27 30 33 35 35 35 32 31 31 32 31 29 28 29 27 25 24 23 22 21 21 19 19 20 20 20 19 20 20 21 20 21
24 24 24 19 19 22 25 26 26 23 24 25 31 32 33 34 35 34 31 31 32 32 31 30 27 28 26 25 25 23 21 19 18 18 18 19 18 17 18 19 20 20 20 20
28 25 13 14 23 24 24 24 26 26 28 30 31 33 33 33 33 32 31 32 32 32 31 30 27 26 27 26 23 22 20 17 18 19 18 19 20 20 20 21 21 22 22 22
26 22 17 13 23 24 24 20 24 26 26 30 32 32 33 33 32 32 32 32 33 32 30 27 23 24 25 23 22 20 19 19 19 20 20 20 21 22 22 23 23 23 23 23
24 21 11 8 23 27 27 16 19 24 27 29 32 29 26 34 33 32 32 33 32 31 26 23 23 22 20 19 19 18 19 21 20 21 21 21 21 22 23 23 24 24 24 25
25 23 23 24 26 27 17 10 22 30 30 32 31 30 32 32 32 33 32 32 30 26 23 22 21 20 19 18 17 20 21 21 21 21 20 20 22 23 24 23 23 24 23 23
25 24 22 26 28 20 20 23 25 28 30 32 33 33 32 32 32 32 30 27 25 23 23 23 22 19 17 17 18 20 21 21 19 19 19 19 21 21 21 20 19 19 19 20
21 20 23 27 27 27 26 26 28 29 28 31 32 32 33 33 31 30 27 23 21 21 21 19 19 18 16 16 19 19 19 18 18 19 18 20 19 19 19 20 20 20 20 21
20 20 22 22 23 24 25 25 27 28 29 30 30 31 33 33 31 27 23 21 20 19 16 15 17 17 18 19 20 19 18 18 19 18 20 19 20 20 21 21 21 21 22 22
22 23 24 25 26 26 26 27 27 29 29 29 30 31 32 32 31 26 22 20 19 17 16 15 17 18 19 19 20 19 19 19 19 19 20 19 20 20 21 21 22 23 23 23
22 24 23 23 25 27 28 29 29 29 29 31 31 31 31 30 28 24 20 20 18 18 17 18 19 19 19 21 20 20 19 19 19 20 20 20 20 20 23 24 26 26 26 25
24 26 26 26 29 29 28 29 28 30 30 30 31 31 29 27 23 22 19 18 17 16 18 18 18 18 20 20 21 20 21 20 19 20 20 20 21 21 21 22 24 24 24 25
29 29 28 29 28 29 29 28 29 31 31 30 29 27 25 22 22 19 17 17 17 18 16 16 16 16 18 20 20 20 21 23 20 20 21 22 22 21 20 20 20 21 23 24
28 29 29 29 28 28 28 28 29 29 27 24 24 22 20 20 21 17 16 18 18 16 15 16 15 16 19 19 19 21 21 19 20 21 22 22 22 21 21 21 20 21 22 22
29 29 28 28 27 25 26 28 28 29 25 23 20 19 18 18 17 16 18 17 14 13 14 15 16 17 18 19 21 21 19 21 23 22 22 21 21 21 20 20 21 20 19 18
30 29 27 27 28 27 28 28 28 28 25 22 21 19 17 16 16 17 17 15 14 14 15 16 16 18 19 21 22 19 19 21 23 22 21 21 20 20 20 21 20 18 17 18
30 29 26 27 29 28 28 28 28 27 25 24 22 20 20 20 19 18 17 16 15 15 16 16 17 18 21 22 21 21 21 21 22 21 21 20 20 21 20 20 18 17 17 17
26 26 28 28 28 29 29 30 28 28 26 25 24 23 22 21 19 19 18 17 16 15 14 16 19 22 22 21 22 22 22 22 21 20 20 21 21 20 18 18 17 17 17 17
25 26 26 26 26 27 28 26 24 21 20 20 20 19 17 17 16 16 16 16 15 14 16 18 20 22 21 21 23 24 23 22 19 18 19 20 19 18 18 19 17 17 17 16
27 28 27 26 26 26 26 23 21 19 19 18 17 15 15 14 15 16 16 13 14 17 18 20 20 20 21 22 24 24 21 19 18 19 19 19 18 17 17 17 17 17 17 17
26 25 25 25 24 23 23 23 21 19 18 18 17 15 15 15 15 16 16 16 16 20 19 19 20 21 22 23 23 20 18 17 17 18 18 17 17 17 17 17 17 19 20 21
26 25 26 24 24 24 22 21 19 18 18 19 19 18 17 16 16 17 15 18 18 19 19 20 20 22 22 22 20 17 16 16 16 16 17 17 17 17 18 18 20 20 21 21
24 24 25 24 22 21 21 21 21 19 20 20 20 20 20 18 18 19 19 20 21 21 21 20 21 21 21 20 18 16 16 16 16 16 16 18 17 18 19 19 19 19 20 21
27 27 25 22 21 21 22 23 20 20 19 17 18 19 20 19 19 18 18 18 20 20 19 19 19 19 18 17 17 16 16 16 16 18 18 17 18 18 19 19 19 20 22 22
25 23 22 22 21 21 20 19 17 17 17 15 15 16 17 18 17 17 17 18 18 19 18 17 16 17 17 16 15 16 16 15 15 15 17 17 18 18 18 18 19 20 21 22
27 27 23 22 21 21 20 19 18 17 19 16 15 16 17 17 17 18 18 17 18 17 16 14 16 15 15 15 15 15 14 14 16 16 17 17 17 17 18 18 20 20 21 22

GFSNGP_sfc_dewp_111.txt.gz
Dewpoint
28 27 26 25 25 24 24 26 24 21 17 16 19 24 30 34 35 35 35 35 35 33 32 30 28 28 25 23 23 22 22 22 22 21 20 19 19 18 18 18 18 18 18 18
30 25 23 22 23 24 24 24 24 24 23 23 23 23 26 28 33 34 34 35 32 32 32 31 29 28 27 24 23 22 20 19 19 17 17 18 18 16 17 18 18 18 19 19
24 22 24 21 19 21 22 23 23 21 21 22 24 28 30 31 33 33 34 34 32 32 32 32 29 27 26 25 23 21 20 18 17 16 17 18 18 17 18 19 20 20 21 21
27 25 19 17 21 20 20 21 22 23 24 25 26 30 32 33 33 33 34 34 32 32 33 32 29 26 27 27 22 21 20 18 17 18 18 19 20 20 20 20 20 21 23 22
26 22 19 16 21 23 22 17 21 23 22 22 25 30 31 32 33 33 33 33 32 33 33 32 27 25 25 24 22 21 19 18 19 19 20 20 20 21 21 22 23 24 23 24
23 21 14 11 24 26 27 18 22 23 23 26 29 24 25 34 34 34 33 33 33 33 31 28 24 23 21 20 20 18 19 20 20 20 20 20 21 22 23 23 24 25 24 26
26 22 21 22 26 28 16 13 22 25 25 27 29 26 32 32 33 33 33 33 33 32 28 25 23 21 21 20 18 20 20 20 21 20 19 19 21 23 24 24 24 24 23 22
24 23 21 25 27 20 20 23 24 27 27 26 27 28 31 33 32 33 33 32 31 28 26 24 23 21 20 17 18 18 20 20 18 18 18 17 20 21 21 19 18 19 19 19
22 23 24 27 22 26 27 26 26 27 27 27 28 29 30 33 33 33 32 29 27 25 24 22 21 18 15 14 17 18 18 17 17 17 18 18 18 18 19 19 20 20 20 21
18 19 21 22 24 24 25 25 26 27 28 28 29 29 29 30 33 32 30 27 23 22 21 19 17 16 15 17 19 18 17 17 17 18 18 19 19 19 20 20 21 20 20 22
22 22 23 24 24 25 25 26 27 29 29 29 30 30 30 30 33 32 28 25 23 21 19 16 16 16 17 18 17 17 17 17 18 18 18 18 19 19 20 21 21 22 24 24
22 22 22 23 24 26 27 28 29 29 29 30 30 31 31 31 32 31 26 23 22 20 18 17 17 18 17 17 19 18 18 18 18 19 19 19 20 20 24 24 26 26 26 25
24 25 25 25 28 27 28 30 30 28 28 29 30 31 31 31 30 29 25 22 20 20 18 16 18 17 17 19 20 19 19 19 20 20 19 19 21 21 21 23 24 24 25 25
28 27 27 29 28 29 30 30 30 28 28 30 31 31 30 29 26 24 22 20 18 16 16 15 14 14 16 19 19 19 19 23 21 20 20 21 22 23 23 22 21 21 23 23
28 29 29 29 30 29 30 29 27 26 28 29 29 28 26 24 24 22 19 18 17 16 15 14 14 14 16 18 18 18 20 20 19 21 22 23 23 23 22 22 21 21 22 22
29 29 29 30 30 29 27 25 26 28 29 28 25 25 24 24 23 19 17 17 16 14 14 14 14 15 18 18 18 20 20 21 22 21 21 22 21 22 21 21 21 22 20 20
32 31 31 32 30 26 28 28 28 29 30 27 25 23 21 19 18 17 17 16 15 13 14 15 16 17 19 19 20 21 19 19 22 22 21 21 21 21 21 22 22 20 19 20
31 32 29 29 30 29 29 30 30 30 30 28 26 23 22 22 21 19 18 17 15 14 15 16 17 18 19 21 22 20 20 20 21 21 21 21 20 21 22 21 20 19 19 19
30 30 30 27 28 29 30 32 32 32 30 28 26 25 25 24 24 22 21 19 17 16 15 16 20 20 21 22 22 21 21 21 21 22 20 20 21 20 20 19 19 18 18 18
28 26 27 28 30 30 29 29 29 28 26 25 24 23 22 21 19 18 17 18 16 15 17 18 20 20 22 22 22 22 22 21 21 19 18 20 20 20 20 20 19 18 18 18
29 30 30 29 28 28 29 28 26 24 22 21 21 19 18 18 16 17 17 15 15 16 17 19 19 21 20 21 22 23 22 21 20 19 19 20 19 18 18 18 18 18 18 18
30 29 28 29 27 25 26 27 25 23 21 20 20 18 18 16 16 17 18 19 17 20 19 19 20 21 21 23 24 22 22 20 19 19 19 18 18 18 17 18 18 19 20 21
30 29 29 28 27 27 26 25 24 22 21 22 21 20 19 17 18 18 17 19 19 21 20 21 21 22 23 24 22 21 20 18 17 17 18 18 18 18 19 19 19 20 21 21
26 27 29 30 29 26 25 25 24 23 24 23 24 23 22 20 20 22 23 21 22 21 21 22 22 23 23 22 22 20 18 17 18 18 18 19 19 19 19 20 19 19 20 21
28 29 29 27 25 24 25 27 25 24 23 22 22 22 23 22 21 22 21 20 22 22 22 22 23 22 21 20 19 18 18 18 18 19 18 19 18 18 18 19 19 19 22 22
27 25 25 26 24 24 23 24 22 21 20 19 19 18 19 19 20 20 20 20 20 22 21 19 20 20 18 18 18 16 17 17 17 17 18 18 18 18 18 18 19 20 21 22
30 28 26 24 23 23 23 23 23 22 21 19 19 18 17 18 19 19 19 19 19 19 19 18 17 18 18 17 16 16 16 16 17 17 18 18 18 18 18 19 20 20 21 22

GFSNGP_sfc_dewp_114.txt.gz
Dewpoint
29 28 28 27 26 25 24 25 24 22 22 23 24 24 25 34 36 36 36 36 36 36 34 30 29 29 25 24 23 22 22 22 21 19 19 19 19 19 19 20 19 20 20 21
25 27 27 25 25 25 25 24 24 24 23 25 25 25 27 28 31 35 35 35 35 35 33 32 29 28 26 25 23 23 21 20 20 18 18 20 19 19 20 20 20 21 21 22
23 27 26 23 22 23 23 23 23 22 24 24 24 27 29 31 31 33 34 35 35 33 32 32 30 28 27 26 24 22 21 20 19 19 20 21 20 21 21 20 21 22 22 23
24 24 17 23 20 20 22 23 23 22 23 25 25 26 29 32 33 33 34 35 35 32 33 33 29 28 28 27 23 22 21 20 20 21 21 22 22 22 21 22 22 23 24 24
21 21 23 22 21 22 21 19 22 21 23 23 26 31 29 33 33 33 33 34 34 33 34 32 28 27 27 27 24 23 21 20 21 21 22 22 22 22 22 23 24 24 24 25
23 21 17 18 23 26 26 19 22 23 22 25 29 25 24 33 34 34 37 33 33 33 32 29 25 25 24 23 22 21 21 22 22 23 23 22 22 22 24 24 24 26 25 26
25 23 24 23 26 28 16 13 22 23 24 26 27 28 29 33 34 34 33 33 33 32 29 27 23 22 22 21 20 22 21 22 22 22 20 20 21 22 24 25 25 25 25 23
24 22 20 27 27 20 21 23 23 26 26 26 27 28 29 31 32 33 33 33 33 30 27 24 24 22 22 20 20 19 20 21 20 18 18 18 18 20 20 19 19 20 20 21
24 24 26 28 26 28 27 26 26 26 27 28 28 28 29 30 33 33 33 32 30 28 25 23 23 20 18 16 17 18 18 17 17 17 18 18 19 19 19 20 21 21 21 21
20 20 20 22 27 27 27 27 27 27 27 28 28 29 29 30 31 33 32 30 27 25 23 21 19 16 15 18 19 18 17 17 17 18 19 19 19 20 20 20 20 20 21 22
22 22 22 23 23 23 24 26 26 28 29 29 29 30 30 30 31 33 31 28 25 23 22 19 17 16 17 18 17 17 17 17 17 19 18 19 19 19 20 21 22 22 24 24
22 23 22 22 25 26 26 27 28 29 30 30 30 30 31 31 32 33 28 25 24 23 20 18 17 17 18 18 18 18 18 18 19 20 20 20 20 21 24 25 26 26 26 25
24 26 26 26 28 27 27 29 30 30 29 28 28 30 31 31 32 32 26 24 23 21 20 18 19 19 18 19 20 19 19 19 20 21 20 19 20 22 22 23 25 25 25 25
28 28 27 28 27 29 29 30 32 29 29 28 29 31 31 31 30 27 24 23 21 20 17 17 17 16 18 20 20 19 19 22 22 21 20 21 22 23 23 23 21 21 24 23
26 27 28 29 29 29 30 30 29 29 27 27 30 30 30 27 26 25 22 19 18 17 16 15 14 14 16 19 19 18 18 20 21 20 21 23 23 23 22 22 21 21 21 23
29 29 28 28 29 30 30 29 27 26 27 29 28 28 27 25 25 21 19 18 17 16 16 14 15 15 18 19 19 19 20 23 22 21 22 22 22 22 22 22 21 21 22 20
26 26 27 27 29 29 29 27 28 28 29 29 26 25 24 23 20 18 18 18 17 15 15 17 16 18 20 20 19 20 21 20 21 22 21 21 21 21 21 21 22 22 21 20
30 31 30 29 28 27 27 28 29 29 29 29 26 23 22 21 21 20 19 17 15 14 15 17 17 19 20 20 21 22 20 21 21 21 22 22 21 21 22 22 21 20 19 19
30 31 30 29 28 27 28 27 28 28 28 27 26 24 23 23 24 22 20 18 16 15 15 17 21 21 20 22 23 21 20 20 22 21 22 21 20 20 20 20 20 19 19 18
29 30 29 27 28 29 28 29 30 30 29 27 25 24 23 23 23 21 20 18 17 17 17 18 21 22 21 22 24 20 19 21 22 21 20 19 19 20 20 20 19 18 18 18
26 26 26 27 28 28 28 28 28 27 26 25 24 23 23 22 20 20 19 17 17 18 18 21 21 21 22 23 22 20 21 22 20 18 17 17 18 19 19 19 18 18 18 18
26 26 27 26 27 27 27 27 27 26 23 23 23 22 21 19 18 18 19 19 18 22 20 19 20 22 22 23 22 21 22 19 15 15 14 16 17 18 19 18 18 18 18 19
28 28 27 27 27 27 26 26 26 25 23 23 23 22 21 19 19 18 16 20 21 21 21 21 22 23 24 23 22 21 18 14 13 14 15 14 18 18 19 19 19 19 18 18
25 26 27 26 25 25 25 26 25 25 24 25 25 25 22 21 21 22 24 24 23 22 22 22 22 24 24 22 19 15 14 12 11 11 13 18 19 20 19 19 18 19 18 19
27 28 26 24 25 25 25 26 24 24 23 24 25 25 24 23 21 22 23 22 24 23 21 23 24 25 23 20 16 14 13 11 11 9 14 18 18 18 19 19 18 19 20 20
25 25 25 26 25 25 25 25 24 23 23 22 22 22 23 23 22 23 22 22 21 23 22 22 22 23 20 18 17 16 14 14 15 13 14 15 18 18 19 18 17 17 18 18
27 29 26 25 25 25 24 24 23 23 24 22 23 25 24 23 21 21 22 21 20 21 21 20 20 21 18 17 17 16 15 14 15 13 13 13 15 12 16 17 17 18 18 19

GFSNGP_sfc_dewp_117.txt.gz
Dewpoint
29 29 29 28 28 27 25 25 24 20 21 22 24 24 25 31 36 37 38 38 39 39 39 37 35 28 25 24 23 23 22 22 19 18 18 19 19 19 20 21 20 21 22 22
23 28 28 26 26 27 27 26 25 24 23 25 26 25 25 26 29 36 36 37 38 37 36 32 30 29 26 24 23 23 21 20 19 18 19 20 20 20 21 21 21 22 22 23
21 25 25 21 22 22 24 25 25 23 24 25 25 25 26 28 30 31 36 36 36 36 35 33 29 29 26 26 24 23 21 20 18 19 20 22 21 22 21 21 22 22 23 24
22 23 14 16 22 19 23 24 24 23 24 24 24 25 27 29 31 32 33 34 35 35 33 33 31 28 28 27 23 23 21 20 20 21 21 22 22 22 21 22 23 23 24 24
19 19 21 24 21 20 18 18 22 24 24 24 25 29 23 33 32 33 34 33 35 35 33 32 28 28 28 27 24 23 22 20 21 21 21 22 21 21 22 23 23 23 25 25
22 19 18 17 23 26 23 14 19 22 22 23 28 21 22 29 32 35 35 33 33 33 32 29 27 27 26 26 24 22 22 22 21 22 21 20 21 20 22 23 23 25 25 25
25 23 23 25 25 26 14 13 23 23 23 26 26 26 24 33 33 34 34 33 32 31 30 27 25 25 24 23 22 22 22 22 22 21 20 19 19 20 22 22 22 22 22 22
25 22 19 26 26 19 21 22 23 24 24 26 27 28 28 28 31 33 33 34 32 30 28 25 24 23 23 21 21 21 21 21 20 18 18 18 18 19 19 19 20 20 21 21
25 24 25 28 26 27 25 23 24 25 27 28 28 27 28 29 29 33 33 33 32 28 24 23 22 22 21 19 18 18 18 17 17 17 17 18 18 19 19 19 20 20 21 21
21 23 26 26 27 28 28 27 27 27 27 27 27 28 28 30 30 32 33 32 30 26 24 22 22 19 17 17 18 18 17 16 17 17 19 19 19 19 19 20 20 20 20 22
22 22 22 23 23 23 24 26 27 27 27 28 28 29 29 30 31 31 33 31 28 26 24 22 19 17 16 18 18 17 16 16 17 18 18 19 19 19 20 21 22 22 24 24
24 23 22 22 23 25 25 25 27 27 28 29 30 30 30 30 31 31 33 28 26 25 24 22 18 17 18 19 18 17 17 18 19 20 20 20 20 20 24 25 26 26 27 25
25 25 25 25 26 26 25 27 28 29 30 30 29 28 29 30 31 34 30 26 24 24 22 18 18 18 19 19 19 19 18 19 20 21 21 20 20 21 21 23 25 26 25 25
28 28 28 28 27 28 28 28 32 30 29 29 29 29 29 31 32 32 27 26 24 22 19 18 18 18 19 20 20 19 19 22 21 22 21 20 21 22 22 22 22 21 23 24
28 28 27 28 29 29 29 29 29 29 29 29 28 28 30 30 30 29 26 24 22 21 18 17 17 17 17 20 19 19 19 19 20 21 20 22 22 22 22 22 21 21 21 23
28 29 29 28 29 29 29 29 29 29 28 27 27 29 29 29 27 26 22 20 18 18 18 16 16 15 17 19 19 19 18 22 23 21 21 22 22 21 21 21 21 21 21 22
27 27 27 26 28 29 29 29 29 28 27 28 29 28 27 26 25 22 19 19 18 18 18 17 16 17 19 20 19 19 20 21 23 21 21 21 21 21 21 21 21 22 22 21
28 29 29 28 27 28 28 27 27 28 28 29 29 27 25 25 24 22 20 19 18 16 16 17 18 19 20 20 20 20 21 21 21 21 21 22 21 21 21 20 20 21 20 20
29 29 30 29 28 28 27 26 26 28 27 28 26 26 26 25 24 23 22 20 18 17 15 17 22 22 20 21 22 22 22 21 21 21 22 22 21 19 19 20 20 20 20 19
28 29 30 30 30 28 27 28 29 29 29 29 27 26 24 23 22 22 20 19 18 17 17 18 21 22 21 21 24 22 21 21 21 21 21 20 19 18 19 20 19 19 18 18
25 26 28 28 28 28 29 29 29 29 29 29 27 25 24 23 23 22 21 19 19 19 19 21 21 21 21 22 23 22 21 21 21 22 19 17 17 18 18 19 19 18 18 18
27 26 27 27 26 25 27 28 28 28 27 26 26 26 25 23 22 22 22 21 20 23 21 22 21 22 22 24 23 22 21 21 21 19 15 16 15 16 17 18 18 19 19 18
25 27 27 27 27 25 25 27 27 27 26 25 25 25 25 24 23 22 21 22 22 21 23 22 23 24 25 23 23 22 21 20 18 15 16 14 15 15 15 15 19 19 19 18
24 25 25 25 23 23 25 26 27 26 26 25 25 26 26 24 23 24 25 25 25 23 24 24 24 25 25 24 23 22 20 18 16 13 14 18 14 13 18 18 17 18 19 17
27 26 21 23 24 25 26 26 24 24 24 25 25 26 26 26 25 25 23 23 26 26 24 26 26 25 24 23 22 21 19 17 15 10 12 11 11 16 12 16 19 18 17 17
27 26 26 26 26 26 25 24 24 24 24 23 23 24 25 26 24 25 25 25 25 27 25 23 24 23 23 22 21 20 18 16 18 16 15 13 11 11 15 17 17 14 15 15
27 30 28 25 26 25 25 25 24 24 25 24 23 23 24 24 25 26 28 26 25 25 25 22 23 24 22 21 21 18 17 16 17 14 12 10 10 9 13 14 15 15 14 16